[[{"header":{"parameterUnit":"m.s-1","parameterCategory":1,"la1":30.6,"la2":29.2853,"lo1":-89.7004,"lo2":-87.6739,"dx":0.0162,"dy":0.0183,"nx":112,"ny":82,"refTime":"2022-12-09T06:00:00:Z","depth":0,"parameterNumber":2,"parameterNumberName":"U-component_of_WINDS"},"data":[0.0,0.0,0.0,0.0,0.0,0.0,0.0,0.0,0.0,0.0,0.0,0.0,0.0,0.0,0.0,0.0,0.0,0.0,0.0,0.0,0.0,0.0,0.0,0.0,0.0,0.0,0.0,0.0,0.0,0.0,0.0,0.0,0.0,0.0,0.0,0.0,0.0,0.0,0.0,0.0,0.0,0.0,0.0,0.0,0.0,0.0,0.0,0.0,0.0,0.0,0.0,0.0,0.0,0.0,0.0,0.0,0.0,0.0,0.0,0.0,0.0,0.0,0.0,0.0,0.0,0.0,0.0,0.0,0.0,0.0,0.0,0.0,0.0,0.0,0.0,0.0,0.0,0.0,0.0,0.0,0.0,0.0,0.0,0.0,0.0,0.0,0.0,0.0,0.0,0.0,0.0,-2.848,-2.8228,-2.8185,-2.8638,-2.9259,-2.8579,-2.6183,0.0,0.0,0.0,0.0,0.0,0.0,0.0,0.0,0.0,0.0,0.0,0.0,0.0,0.0,0.0,0.0,0.0,0.0,0.0,0.0,0.0,0.0,0.0,0.0,0.0,0.0,0.0,0.0,0.0,0.0,0.0,0.0,0.0,0.0,0.0,0.0,0.0,0.0,0.0,0.0,0.0,0.0,0.0,0.0,0.0,0.0,0.0,0.0,0.0,0.0,0.0,0.0,0.0,0.0,0.0,0.0,0.0,0.0,0.0,0.0,0.0,0.0,0.0,0.0,0.0,0.0,0.0,0.0,0.0,0.0,0.0,0.0,0.0,0.0,0.0,0.0,0.0,0.0,0.0,0.0,0.0,0.0,0.0,0.0,0.0,0.0,0.0,0.0,0.0,0.0,0.0,0.0,0.0,0.0,0.0,0.0,0.0,0.0,0.0,0.0,0.0,0.0,0.0,0.0,-2.6934,-2.8206,-2.8142,-2.817,-2.8589,-2.9225,-2.8631,-2.6309,0.0,0.0,0.0,0.0,0.0,0.0,0.0,0.0,0.0,0.0,0.0,0.0,0.0,0.0,0.0,0.0,0.0,0.0,0.0,0.0,0.0,0.0,0.0,0.0,0.0,0.0,0.0,0.0,0.0,0.0,0.0,0.0,0.0,0.0,0.0,0.0,0.0,0.0,0.0,0.0,0.0,0.0,0.0,0.0,0.0,0.0,0.0,0.0,0.0,0.0,0.0,0.0,0.0,0.0,0.0,0.0,0.0,0.0,0.0,0.0,0.0,0.0,0.0,0.0,0.0,0.0,0.0,0.0,0.0,0.0,0.0,0.0,0.0,0.0,0.0,0.0,0.0,0.0,0.0,0.0,0.0,0.0,0.0,0.0,0.0,0.0,0.0,0.0,0.0,0.0,0.0,0.0,0.0,0.0,0.0,0.0,0.0,0.0,0.0,0.0,0.0,0.0,0.0,-2.6471,-2.7022,-2.8031,-2.7847,-2.7901,-2.8495,-2.9176,-2.8596,-2.6328,-2.563,0.0,0.0,0.0,0.0,0.0,0.0,0.0,0.0,0.0,0.0,0.0,0.0,0.0,0.0,0.0,0.0,0.0,0.0,0.0,0.0,0.0,0.0,0.0,0.0,0.0,0.0,0.0,0.0,0.0,0.0,0.0,0.0,0.0,0.0,0.0,0.0,0.0,0.0,0.0,0.0,0.0,0.0,0.0,0.0,0.0,0.0,0.0,0.0,0.0,0.0,0.0,0.0,0.0,0.0,0.0,0.0,0.0,0.0,0.0,0.0,0.0,0.0,0.0,0.0,0.0,0.0,0.0,0.0,0.0,0.0,0.0,0.0,0.0,0.0,0.0,0.0,0.0,0.0,0.0,0.0,0.0,0.0,0.0,0.0,0.0,0.0,0.0,0.0,0.0,0.0,0.0,0.0,0.0,0.0,0.0,0.0,0.0,0.0,0.0,0.0,0.0,0.0,-2.732,-2.7538,-2.8021,-2.7689,-2.7771,-2.8657,-2.9212,-2.8562,-2.6363,-2.5848,0.0,0.0,0.0,0.0,0.0,0.0,0.0,0.0,0.0,0.0,0.0,0.0,0.0,0.0,0.0,0.0,0.0,0.0,0.0,0.0,0.0,0.0,0.0,0.0,0.0,0.0,0.0,0.0,0.0,0.0,0.0,0.0,0.0,0.0,0.0,0.0,0.0,0.0,0.0,0.0,0.0,0.0,0.0,0.0,0.0,0.0,0.0,0.0,0.0,0.0,0.0,0.0,0.0,0.0,0.0,0.0,0.0,0.0,0.0,0.0,0.0,0.0,0.0,0.0,0.0,0.0,0.0,0.0,0.0,0.0,0.0,0.0,0.0,0.0,0.0,0.0,0.0,0.0,0.0,0.0,0.0,0.0,0.0,0.0,0.0,0.0,0.0,0.0,0.0,0.0,0.0,0.0,0.0,0.0,0.0,0.0,0.0,0.0,0.0,0.0,0.0,0.0,-2.7645,-2.8368,-2.8298,-2.7815,-2.8009,-2.9316,-2.9472,-2.8579,-2.6433,-2.6264,0.0,0.0,0.0,0.0,0.0,0.0,0.0,0.0,0.0,0.0,0.0,0.0,0.0,0.0,0.0,0.0,0.0,0.0,0.0,0.0,0.0,0.0,0.0,0.0,0.0,0.0,0.0,0.0,0.0,0.0,0.0,0.0,0.0,0.0,0.0,0.0,0.0,0.0,0.0,0.0,0.0,0.0,0.0,0.0,0.0,0.0,0.0,0.0,0.0,0.0,0.0,0.0,0.0,0.0,0.0,0.0,0.0,0.0,0.0,0.0,0.0,0.0,0.0,0.0,0.0,0.0,0.0,0.0,0.0,0.0,0.0,0.0,0.0,0.0,0.0,0.0,0.0,0.0,0.0,0.0,0.0,0.0,0.0,0.0,0.0,0.0,0.0,0.0,0.0,0.0,0.0,0.0,0.0,0.0,0.0,0.0,0.0,0.0,0.0,0.0,0.0,0.0,-2.6584,-2.7268,0.0,-2.7496,-2.7775,-2.873,-2.9007,-2.813,-2.5764,0.0,0.0,0.0,0.0,0.0,0.0,0.0,0.0,0.0,0.0,0.0,0.0,0.0,0.0,0.0,0.0,0.0,0.0,0.0,0.0,0.0,0.0,0.0,0.0,0.0,0.0,0.0,0.0,0.0,0.0,0.0,0.0,0.0,0.0,0.0,0.0,0.0,0.0,0.0,0.0,0.0,0.0,0.0,0.0,0.0,0.0,0.0,0.0,0.0,0.0,0.0,0.0,0.0,0.0,0.0,0.0,0.0,0.0,0.0,0.0,0.0,0.0,0.0,0.0,0.0,0.0,0.0,0.0,0.0,0.0,0.0,0.0,0.0,0.0,0.0,0.0,0.0,0.0,0.0,0.0,0.0,0.0,0.0,0.0,0.0,0.0,0.0,0.0,0.0,0.0,0.0,0.0,0.0,0.0,0.0,0.0,0.0,0.0,0.0,0.0,0.0,0.0,-2.5173,-2.6114,-2.6919,0.0,-2.736,-2.7678,-2.8678,-2.8955,-2.7994,-2.543,0.0,0.0,0.0,0.0,0.0,0.0,0.0,0.0,0.0,0.0,0.0,0.0,0.0,0.0,0.0,0.0,0.0,0.0,0.0,0.0,0.0,0.0,0.0,0.0,0.0,0.0,0.0,0.0,0.0,0.0,0.0,0.0,0.0,0.0,0.0,0.0,0.0,0.0,0.0,0.0,0.0,0.0,0.0,0.0,0.0,0.0,0.0,0.0,0.0,0.0,0.0,0.0,0.0,0.0,0.0,0.0,0.0,0.0,0.0,0.0,0.0,0.0,0.0,0.0,0.0,0.0,0.0,0.0,0.0,0.0,0.0,0.0,0.0,0.0,0.0,0.0,0.0,0.0,0.0,0.0,0.0,0.0,0.0,0.0,0.0,0.0,0.0,0.0,0.0,0.0,0.0,0.0,0.0,0.0,0.0,0.0,0.0,0.0,0.0,0.0,0.0,0.0,-2.4878,-2.6495,-2.7701,-2.7701,-2.745,-2.7885,-2.9351,-2.9506,-2.8305,0.0,0.0,0.0,0.0,0.0,0.0,0.0,0.0,0.0,0.0,0.0,0.0,0.0,0.0,0.0,0.0,0.0,0.0,0.0,0.0,0.0,0.0,0.0,0.0,0.0,0.0,0.0,0.0,0.0,0.0,0.0,0.0,0.0,0.0,0.0,0.0,0.0,0.0,0.0,0.0,0.0,0.0,0.0,0.0,0.0,0.0,0.0,0.0,0.0,0.0,0.0,0.0,0.0,0.0,0.0,0.0,0.0,0.0,0.0,0.0,0.0,0.0,0.0,0.0,0.0,0.0,0.0,0.0,0.0,0.0,0.0,0.0,0.0,0.0,0.0,0.0,0.0,0.0,0.0,0.0,0.0,0.0,0.0,0.0,0.0,0.0,0.0,0.0,0.0,0.0,0.0,0.0,0.0,0.0,0.0,0.0,0.0,0.0,0.0,0.0,0.0,0.0,0.0,-2.5229,-2.6548,-2.7421,-2.7421,-2.7345,-2.7471,-2.7902,-2.8647,-2.7571,-2.4005,0.0,0.0,0.0,0.0,0.0,0.0,0.0,0.0,0.0,0.0,0.0,0.0,0.0,0.0,0.0,0.0,0.0,0.0,0.0,0.0,0.0,0.0,0.0,0.0,0.0,0.0,0.0,0.0,0.0,0.0,0.0,0.0,0.0,0.0,0.0,0.0,0.0,0.0,0.0,0.0,0.0,0.0,0.0,0.0,0.0,0.0,0.0,0.0,0.0,0.0,0.0,0.0,0.0,0.0,0.0,0.0,0.0,0.0,0.0,0.0,0.0,0.0,0.0,0.0,0.0,0.0,0.0,0.0,0.0,0.0,0.0,0.0,0.0,0.0,0.0,0.0,0.0,0.0,0.0,0.0,0.0,0.0,0.0,0.0,0.0,0.0,0.0,0.0,0.0,0.0,0.0,0.0,0.0,0.0,0.0,0.0,0.0,0.0,0.0,0.0,0.0,0.0,-2.4458,-2.6147,-2.7299,-2.7299,-2.7299,-2.7435,-2.7713,-2.844,-2.7687,-2.4834,0.0,0.0,0.0,0.0,0.0,0.0,0.0,0.0,0.0,0.0,0.0,0.0,0.0,0.0,0.0,0.0,0.0,0.0,0.0,0.0,0.0,0.0,0.0,0.0,0.0,0.0,0.0,0.0,0.0,0.0,0.0,0.0,0.0,0.0,0.0,0.0,0.0,0.0,0.0,0.0,0.0,0.0,0.0,0.0,0.0,0.0,0.0,0.0,0.0,0.0,0.0,0.0,0.0,0.0,0.0,0.0,0.0,0.0,0.0,0.0,0.0,0.0,0.0,0.0,0.0,0.0,0.0,0.0,0.0,0.0,0.0,0.0,0.0,0.0,0.0,0.0,0.0,0.0,0.0,0.0,0.0,0.0,0.0,0.0,0.0,0.0,0.0,0.0,0.0,0.0,0.0,0.0,0.0,0.0,0.0,0.0,0.0,0.0,0.0,0.0,0.0,0.0,-2.3277,-2.5617,-2.7332,-2.7401,-2.7401,-2.7677,-2.835,-2.8817,-2.842,-2.6892,0.0,0.0,0.0,0.0,0.0,0.0,0.0,0.0,0.0,0.0,0.0,0.0,0.0,0.0,0.0,0.0,0.0,0.0,0.0,0.0,0.0,0.0,0.0,0.0,0.0,0.0,0.0,0.0,0.0,0.0,0.0,0.0,0.0,0.0,0.0,0.0,0.0,0.0,0.0,0.0,0.0,0.0,0.0,0.0,0.0,0.0,0.0,0.0,0.0,0.0,0.0,0.0,0.0,0.0,0.0,0.0,0.0,0.0,0.0,0.0,-2.3579,0.0,0.0,0.0,0.0,0.0,0.0,0.0,0.0,0.0,0.0,0.0,0.0,0.0,0.0,0.0,0.0,0.0,0.0,0.0,0.0,0.0,0.0,0.0,0.0,0.0,0.0,0.0,0.0,0.0,0.0,0.0,0.0,0.0,0.0,0.0,0.0,0.0,0.0,0.0,0.0,0.0,-2.4822,-2.6291,-2.7538,-2.8188,-2.824,-2.8309,-2.8465,-2.9661,-2.8938,-2.5494,-2.6008,0.0,0.0,0.0,0.0,0.0,0.0,0.0,0.0,0.0,0.0,0.0,0.0,0.0,0.0,0.0,0.0,0.0,0.0,0.0,0.0,0.0,0.0,0.0,0.0,0.0,0.0,0.0,0.0,0.0,0.0,0.0,0.0,0.0,0.0,0.0,0.0,0.0,0.0,0.0,0.0,0.0,0.0,0.0,0.0,0.0,0.0,0.0,0.0,0.0,0.0,0.0,0.0,0.0,0.0,0.0,0.0,0.0,0.0,0.0,0.0,-2.4878,0.0,0.0,0.0,0.0,0.0,0.0,0.0,0.0,0.0,0.0,0.0,0.0,0.0,0.0,0.0,0.0,0.0,0.0,0.0,0.0,0.0,0.0,0.0,0.0,0.0,0.0,0.0,0.0,0.0,0.0,0.0,0.0,0.0,0.0,0.0,0.0,0.0,0.0,0.0,0.0,-2.4685,-2.6342,-2.7743,-2.8444,-2.8497,-2.867,-2.9083,-2.961,-2.9056,-2.7007,-2.6344,0.0,0.0,0.0,0.0,0.0,0.0,0.0,0.0,0.0,0.0,0.0,0.0,0.0,0.0,0.0,0.0,0.0,0.0,0.0,0.0,0.0,0.0,0.0,0.0,0.0,0.0,0.0,0.0,0.0,0.0,0.0,0.0,0.0,0.0,0.0,0.0,0.0,0.0,0.0,0.0,0.0,0.0,0.0,0.0,0.0,0.0,0.0,0.0,0.0,0.0,0.0,0.0,0.0,-2.7994,-2.8198,-2.8249,-2.8643,-2.8838,-2.8902,-2.9622,-2.8386,-2.5925,-2.6872,0.0,0.0,0.0,0.0,0.0,0.0,0.0,0.0,0.0,0.0,0.0,0.0,0.0,0.0,0.0,0.0,0.0,0.0,0.0,0.0,0.0,0.0,0.0,0.0,-2.9024,-2.8424,0.0,0.0,0.0,0.0,0.0,0.0,0.0,0.0,0.0,0.0,0.0,0.0,-2.4528,-2.6391,-2.794,-2.8523,-2.8667,-2.9031,-2.9739,-2.9644,-2.9396,-2.9034,-2.6932,-2.5452,0.0,0.0,0.0,0.0,0.0,0.0,0.0,0.0,0.0,0.0,0.0,0.0,0.0,0.0,0.0,0.0,0.0,0.0,0.0,0.0,0.0,0.0,0.0,0.0,0.0,0.0,0.0,0.0,0.0,0.0,0.0,0.0,-2.7869,-2.6697,0.0,0.0,0.0,0.0,0.0,0.0,0.0,0.0,0.0,0.0,0.0,0.0,0.0,-2.9713,-2.8618,-2.8844,-2.8506,-2.7627,-2.9612,-3.0606,-3.0799,-3.2835,-3.3808,-3.3847,-3.4018,0.0,-2.8254,-2.6331,0.0,0.0,0.0,0.0,0.0,0.0,0.0,0.0,0.0,0.0,0.0,0.0,0.0,0.0,0.0,0.0,0.0,0.0,0.0,0.0,0.0,0.0,-2.6334,-3.0636,-3.1091,-3.0513,0.0,-2.8514,-2.6678,-2.5978,-2.6397,0.0,0.0,0.0,0.0,0.0,0.0,0.0,-2.6504,-2.7285,-2.8014,-2.885,-2.9363,-2.967,-2.9791,-3.1011,-3.0886,-2.8797,-2.8546,-2.7441,-2.5162,-2.422,0.0,0.0,0.0,0.0,0.0,0.0,0.0,0.0,0.0,0.0,0.0,0.0,0.0,0.0,0.0,0.0,0.0,0.0,0.0,0.0,0.0,0.0,0.0,0.0,0.0,0.0,0.0,0.0,0.0,-2.6951,-2.7776,-2.5731,-2.7043,-2.732,0.0,0.0,0.0,0.0,0.0,0.0,0.0,0.0,0.0,-2.8285,-3.0577,-3.1391,-3.0458,-3.1737,-3.2126,-3.167,-3.3155,-3.3601,-3.3157,-3.468,-3.5415,-3.544,-3.5075,-3.4178,-3.2816,-3.0331,-2.9208,-2.8975,0.0,0.0,0.0,0.0,-2.6885,-2.5733,-2.5723,-2.5957,0.0,-2.407,0.0,0.0,0.0,0.0,0.0,0.0,0.0,0.0,0.0,0.0,-2.867,-3.1845,-3.2082,-3.1592,-3.1602,-3.0716,-2.9575,0.0,-2.8016,-2.7161,-2.4878,0.0,0.0,0.0,0.0,-2.6752,-2.7208,-2.752,-2.8142,-2.9323,-2.9665,-3.019,-3.1182,-3.1479,-3.1116,-2.9862,-2.9254,-2.85,-2.749,-2.5266,-2.3518,0.0,0.0,0.0,0.0,0.0,0.0,0.0,0.0,0.0,0.0,0.0,0.0,0.0,0.0,0.0,0.0,0.0,0.0,0.0,0.0,0.0,0.0,0.0,0.0,0.0,0.0,0.0,0.0,-2.7977,-2.8585,-2.5693,-2.7363,-2.8037,0.0,0.0,0.0,0.0,0.0,0.0,-2.7521,-2.9862,-3.0811,-2.9977,-3.2254,-3.3167,-3.248,-3.4197,-3.498,-3.4889,-3.5514,-3.5416,-3.4697,-3.535,-3.5654,-3.5646,-3.5112,-3.5247,-3.5675,-3.3208,-3.1613,-3.0693,-3.0473,-3.044,-3.0589,-3.0913,-3.0143,-2.9007,-2.9483,-2.9878,-2.9829,-2.7788,0.0,-2.7706,-2.645,0.0,0.0,0.0,0.0,-2.6163,-2.8092,-2.9332,-3.0559,-3.2537,-3.2657,-3.2331,-3.2393,-3.2275,-3.1753,0.0,-2.9789,-2.8778,-2.6726,0.0,0.0,0.0,0.0,-2.8158,-2.8029,-2.7999,-2.8335,-2.9208,-2.963,-3.0395,-3.1703,-3.1649,-3.1355,-3.0924,-2.9794,-2.9235,-2.9409,-2.6659,-2.5194,-2.5349,0.0,0.0,0.0,0.0,0.0,0.0,0.0,0.0,0.0,0.0,0.0,0.0,0.0,0.0,0.0,0.0,0.0,0.0,0.0,0.0,0.0,0.0,0.0,0.0,0.0,0.0,0.0,0.0,0.0,-2.8398,-2.9496,0.0,0.0,0.0,0.0,-3.0106,-3.0366,-3.0052,-2.9214,-3.1521,-3.2506,-3.1705,-3.4062,-3.5276,-3.5105,-3.5166,-3.5152,-3.5088,-3.5063,-3.5011,-3.4889,-3.4936,-3.4877,-3.4773,-3.4797,-3.4866,-3.4774,-3.2364,-3.176,-3.2148,-2.9881,-2.9008,-2.9008,-2.896,-2.8413,-2.7695,-2.7659,-2.8487,-2.9522,-2.9372,-2.9103,-2.8826,-2.8727,-2.8117,0.0,0.0,-2.7985,-2.9,-3.0381,-3.0794,-3.1195,-3.2665,-3.2977,-3.3021,-3.3193,-3.2583,-3.1823,0.0,-3.1665,-3.1392,-2.8878,0.0,-2.8639,-2.8524,-2.8337,-2.856,-2.9561,-2.9187,-2.8602,-2.7983,-2.9204,-3.0104,-3.0208,-3.1576,-3.2137,-3.1414,-3.0416,-2.9827,-2.9782,-2.8558,-2.7316,-2.6075,-2.5623,0.0,0.0,0.0,0.0,0.0,0.0,0.0,0.0,0.0,0.0,0.0,0.0,0.0,0.0,0.0,0.0,0.0,0.0,0.0,0.0,0.0,0.0,0.0,0.0,0.0,0.0,0.0,0.0,-3.0716,-3.2117,0.0,-2.9561,-2.8821,-2.8851,-2.9699,-3.0726,-3.1173,-3.0859,-3.3232,-3.4475,-3.4197,-3.504,-3.5502,-3.5483,-3.5469,-3.5395,-3.5304,-3.5779,-3.5676,-3.5043,-3.5486,-3.5665,-3.5627,-3.5055,-3.5131,-3.5559,-3.4197,-3.413,-3.4765,-3.3695,-3.3667,-3.4197,-3.3968,-3.4118,-3.4408,-3.4253,-3.4827,-3.5585,-3.5412,-3.5266,-3.489,-3.3537,-3.2931,-3.2291,-3.0392,-3.0702,-3.1577,-3.1486,-3.2131,-3.2899,-3.3399,-3.3433,-3.3345,-3.3481,-3.3146,-3.2805,-3.2596,-3.2375,-3.1735,-3.0215,-3.1007,-3.1388,-2.9992,-3.0354,-3.0772,-3.0766,-2.97,-2.9004,-2.9145,-2.972,-3.0296,-3.0772,-3.1889,-3.2433,-3.2136,-3.1288,-3.0836,-3.088,-2.9217,-2.8347,-2.8485,-2.7563,-2.5404,0.0,0.0,0.0,0.0,0.0,0.0,0.0,0.0,0.0,0.0,0.0,0.0,0.0,0.0,0.0,0.0,0.0,0.0,0.0,0.0,0.0,0.0,0.0,0.0,0.0,0.0,-3.2321,-3.2029,-3.3232,-3.3412,-3.1712,-3.0723,-3.0548,-3.1365,-3.2383,-3.2983,-3.2983,-3.4584,-3.5501,-3.5509,-3.5522,-3.5554,-3.5598,-3.561,-3.556,-3.5463,-3.6014,-3.5881,-3.5212,-3.5664,-3.5862,-3.5825,-3.5154,-3.5211,-3.5733,-3.5467,-3.5514,-3.5732,-3.5543,-3.6042,-3.6869,-3.6656,-3.7156,-3.8,-3.8028,-3.8345,-3.8758,-3.8693,-3.8685,-3.8402,-3.698,-3.6552,-3.6085,-3.3825,-3.3827,-3.4253,-3.3129,-3.344,-3.3972,-3.3693,-3.3473,-3.3316,-3.3371,-3.3304,-3.3247,-3.3364,-3.2962,-3.239,-3.1783,-3.2764,-3.2966,-3.1055,-3.1826,-3.2181,-3.0957,-3.0254,-2.9783,-2.9646,-2.9943,-3.0344,-3.0853,-3.1198,-3.1675,-3.2386,-3.12,-3.0698,-3.1234,-2.9196,-2.8359,-2.8979,-2.8084,-2.6115,-2.3002,0.0,0.0,0.0,0.0,0.0,0.0,0.0,0.0,0.0,0.0,0.0,0.0,0.0,0.0,0.0,0.0,0.0,0.0,0.0,0.0,0.0,0.0,0.0,-2.7776,-3.2294,-3.485,-3.2485,-3.293,-3.3384,-3.332,-3.2474,-3.2948,-3.5417,-3.5547,-3.55,-3.55,-3.55,-3.5501,-3.5509,-3.5566,-3.5598,-3.5598,-3.5608,-3.5606,-3.5606,-3.5606,-3.554,-3.5405,-3.5398,-3.5336,-3.5208,-3.5058,-3.5062,-3.5191,-3.5913,-3.5713,-3.5003,-3.504,-3.5571,-3.6302,-3.633,-3.6891,-3.77,-3.8199,-3.8361,-3.8423,-3.8734,-3.8824,-3.8814,-3.867,-3.8624,-3.8459,-3.7569,-3.7297,-3.6931,-3.5334,-3.4699,-3.4295,-3.3502,-3.3114,-3.2932,-3.2995,-3.3011,-3.3091,-3.3349,-3.3452,-3.352,-3.3591,-3.3675,-3.3208,-3.1795,-3.2634,0.0,-3.0225,-3.0848,-3.0889,-2.929,-2.975,-3.0211,-3.0271,-2.9538,-2.9992,-3.216,-3.0157,-2.9452,-3.0737,-2.8673,-2.7464,-2.7443,-2.7211,-2.6635,-2.5817,0.0,0.0,0.0,0.0,0.0,0.0,0.0,0.0,0.0,0.0,0.0,0.0,0.0,0.0,0.0,0.0,0.0,0.0,0.0,0.0,0.0,0.0,-3.3623,-3.2483,-3.3294,-3.4649,-3.6427,-3.6289,-3.6029,-3.5965,-3.5103,-3.4853,-3.5546,-3.5547,-3.55,-3.55,-3.5554,-3.5541,-3.5509,-3.5564,-3.5593,-3.5589,-3.5643,-3.5673,-3.5673,-3.5673,-3.5643,-3.5614,-3.5464,-3.5378,-3.5343,-3.5197,-3.5517,-3.6131,-3.6287,-3.6575,-3.6916,-3.6834,-3.6597,-3.6387,-3.7015,-3.7794,-3.8642,-3.9361,-3.9604,-3.9599,-3.9493,-3.9489,-3.9508,-3.9369,-3.9362,-3.9219,-3.8277,-3.7611,-3.6864,-3.5601,-3.4763,-3.4179,-3.3758,-3.3408,-3.3235,-3.3401,-3.3319,-3.3277,-3.3437,-3.352,-3.3577,-3.3605,-3.3698,-3.3628,-3.3233,-3.3548,0.0,-3.2725,-3.2184,-3.1345,-2.9968,-2.9894,-2.9923,-2.9939,-3.0303,-3.1055,-3.23,-3.1461,-3.0821,-3.067,-2.973,-2.9021,-2.8643,-2.7046,-2.6094,0.0,0.0,0.0,0.0,0.0,0.0,0.0,0.0,0.0,0.0,0.0,0.0,0.0,0.0,0.0,0.0,0.0,0.0,0.0,0.0,0.0,0.0,-3.5937,-3.7042,-3.6386,-3.6118,-3.6581,-3.8209,-3.7953,-3.7633,-3.7582,-3.676,-3.6226,-3.6239,-3.5825,-3.5571,-3.5571,-3.5612,-3.5623,-3.5587,-3.5626,-3.5637,-3.564,-3.5684,-3.5704,-3.5704,-3.6033,-3.6207,-3.6207,-3.6465,-3.6595,0.0,-3.6089,-3.6356,-3.7168,-3.6973,-3.7219,0.0,0.0,0.0,0.0,0.0,-3.9042,-3.9557,-4.0015,-4.0176,-4.0147,-3.9943,-3.9643,-3.9356,-3.9194,-3.9147,-3.8942,-3.7879,-3.7281,-3.6652,-3.5488,-3.4518,-3.3778,-3.362,-3.3368,-3.3175,-3.3357,-3.3349,-3.3352,-3.3506,-3.3605,0.0,-3.3671,-3.3753,-3.3595,-3.3005,-3.3458,-3.3576,-3.2765,-3.2473,-3.1921,-3.0829,-3.0539,-3.0461,-3.0511,-3.0303,0.0,0.0,0.0,-3.0099,-2.9062,-2.8579,0.0,0.0,0.0,0.0,0.0,0.0,0.0,0.0,-2.5186,-2.4983,0.0,0.0,0.0,0.0,0.0,0.0,0.0,0.0,0.0,0.0,0.0,0.0,0.0,0.0,0.0,0.0,-3.7705,-3.9389,-3.9397,-3.9664,-3.9513,-3.8644,-3.8462,-3.8435,-3.8537,-3.7754,-3.7236,-3.7236,-3.6376,-3.5839,-3.5844,0.0,0.0,0.0,0.0,-3.5984,-3.5979,-3.5875,-3.5878,-3.5994,-3.6516,-3.6864,-3.7077,-3.7748,-3.8133,-3.8239,-3.734,-3.7463,-3.824,-3.7934,-3.7874,-3.7976,-3.7747,-3.8184,-3.9061,-3.9967,-4.0301,-4.0301,-4.0301,0.0,0.0,-4.0137,-3.9505,-3.876,-3.8531,-3.8384,-3.8054,-3.6963,-3.6626,-3.6346,-3.5266,-3.4187,-3.339,-3.3364,-3.316,-3.2993,-3.3132,-3.3244,-3.3382,-3.3563,-3.3657,-3.3739,-3.3807,-3.382,-3.339,-3.2156,-3.2954,-3.3168,-3.1678,-3.227,-3.2478,-3.1687,0.0,0.0,-3.1426,-2.9948,-2.9595,-3.0958,-2.9776,-2.8406,-2.7042,-2.6639,-2.6233,-2.5774,-2.6297,-2.7158,-2.8345,-2.9003,-2.9872,-3.0822,-2.5312,-2.5035,0.0,0.0,0.0,0.0,0.0,0.0,0.0,0.0,0.0,0.0,0.0,0.0,0.0,0.0,0.0,-3.5451,-3.849,-4.0585,-4.0634,-4.0706,-4.0434,-3.9559,-3.8824,-3.8677,-3.9373,-3.8605,-3.8078,-3.8061,-3.7201,-3.6696,-3.676,-3.676,-3.676,-3.676,-3.7434,-3.7773,-3.7727,-3.7016,-3.7019,-3.769,0.0,0.0,-3.7922,-3.7406,-3.7541,-3.8205,-3.8075,-3.851,-3.9307,-3.9116,-3.9372,-3.9791,-3.8889,-3.9118,-3.9967,-4.0206,-4.0301,-4.0301,-4.0301,-4.0301,-4.0263,-4.0077,-3.9467,-3.8744,-3.8433,-3.7939,0.0,-3.7096,-3.6554,-3.5964,-3.5565,-3.4754,-3.3967,-3.3762,-3.3545,-3.3404,-3.3491,-3.3477,-3.3495,-3.3591,-3.3698,-3.3788,-3.3868,-3.3921,-3.3862,-3.3604,-3.3679,-3.3652,-3.334,-3.3,-3.2476,-3.1609,-3.099,-3.0751,-3.1008,-3.0159,-3.011,-3.1255,-2.9903,-2.8772,-2.8126,-2.802,-2.8201,-2.8664,-2.8802,-2.8994,-2.9265,-2.9287,-2.9803,-3.071,-2.9312,-2.9342,0.0,0.0,0.0,0.0,0.0,0.0,0.0,0.0,0.0,0.0,0.0,-2.9221,0.0,0.0,-3.5446,-3.6307,-3.8987,-4.0951,-4.0995,-4.0992,-4.0836,-4.0403,-3.9972,-3.9871,-4.031,-3.9556,-3.9039,-3.9004,-3.8187,-3.7723,-3.7743,-3.7743,-3.7747,-3.7759,-3.8115,-3.8277,-3.8253,-3.7774,-3.7767,-3.8193,-3.7793,-3.805,-3.8856,-3.8856,-3.9094,-3.948,-3.9071,-3.9414,-4.0241,-4.0069,-4.0149,-4.0346,-3.9859,-3.9906,-4.0262,-4.0335,-4.0318,-4.0196,-3.9823,-3.9661,-3.9509,-3.8975,-3.8222,-3.7489,-3.7148,-3.6832,-3.6545,-3.6257,-3.5917,-3.5552,-3.5304,-3.4628,-3.3972,-3.3829,-3.3726,-3.3684,-3.3815,-3.4168,-3.4444,-3.4448,-3.4523,-3.4563,-3.448,-3.4171,-3.3972,-3.4036,-3.3908,-3.3734,-3.3564,-3.3124,-3.2588,-3.207,-3.1789,-3.1705,-3.1888,-3.0977,-3.0668,-3.1264,-2.9922,-2.9017,-2.8863,-2.863,-2.8517,-2.8598,-2.8886,-2.9057,-2.9057,-2.9281,-2.9632,-3.0117,-3.0616,-3.1163,0.0,0.0,0.0,0.0,0.0,0.0,0.0,0.0,-3.0379,-3.3987,-3.396,-3.3216,-3.2957,-3.516,-3.7003,-3.7007,-3.926,-4.0996,-4.1,-4.0999,-4.0995,-4.1003,-4.1007,-4.1009,-4.1009,-4.0416,-4.001,-3.9958,-3.9208,-3.8721,-3.8724,-3.8741,-3.8646,-3.8462,-3.8517,-3.847,-3.8287,-3.8045,-3.8026,-3.8206,-3.8574,-3.8928,-3.9276,-3.9972,-4.0397,-4.0517,-3.9973,-4.0186,-4.0888,-4.073,-4.0584,-4.0509,-4.0559,-4.04,-4.0145,-4.034,-4.0234,-3.9937,-3.9505,-3.9181,-3.8822,-3.8052,-3.7234,-3.6444,-3.5918,-3.5724,-3.56,-3.5256,-3.5182,-3.5138,-3.4934,-3.4421,-3.3959,-3.3959,-3.3921,-3.3947,-3.4124,-3.4822,-3.5411,-3.5367,-3.5411,-3.5398,-3.5118,-3.4468,-3.4011,-3.4049,-3.3895,-3.368,-3.3408,-3.3047,-3.2765,-3.2672,-3.2673,-3.2673,-3.2588,-3.1619,-3.0934,-3.0763,-2.9694,-2.91,-2.919,-2.8816,-2.8431,-2.81,-2.8539,-2.8785,-2.8807,-2.9291,-2.9601,-2.9795,-3.0579,-3.1236,-2.7213,-2.7947,0.0,-2.886,-3.0561,-3.2359,0.0,0.0,-3.0791,-3.2672,-3.4113,-3.4594,-3.3248,-3.5193,-3.7007,-3.7008,-3.9249,-4.1003,-4.1002,-4.1006,-4.1006,-4.1002,-4.1006,-4.1009,-4.1009,-4.0912,-4.0854,-4.0854,-4.0055,-3.9562,-3.9579,-3.9578,-3.9178,-3.8345,-3.9053,-3.9054,-3.8222,-3.7377,-3.7379,-3.8176,-3.6722,-3.6857,-3.835,-3.8446,-3.8909,-3.9681,-4.0353,-4.0756,-4.0903,-4.0869,-4.0859,-4.0829,-4.0842,-4.0298,-3.9591,-4.0231,-3.9992,-3.9404,-4.004,-3.9747,-3.9023,-3.869,-3.8032,-3.7165,-3.6036,-3.5312,-3.4808,-3.4711,-3.4722,-3.4776,-3.4797,-3.4658,-3.4506,-3.4506,-3.4363,-3.4269,-3.434,-3.4962,-3.5491,-3.5557,-3.5663,-3.5663,-3.5392,-3.479,-3.4245,-3.3959,-3.3788,-3.3698,-3.3657,-3.3154,-3.2923,-3.3187,-3.2702,-3.2092,-3.1456,-3.12,-3.0541,-2.9247,-2.8937,-2.8837,-2.8853,-2.8683,-2.8893,-2.9462,-2.9425,-2.9473,-2.9569,-2.9531,-2.9916,-3.0728,-2.9802,-2.9373,-3.0249,0.0,0.0,0.0,-3.5151,-3.4841,-3.4833,-3.4318,-3.4432,-3.6557,-3.7578,-3.7901,-3.7291,-3.8267,-3.9143,0.0,-4.022,-4.1052,-4.1059,-4.1062,-4.1062,-4.1062,-4.1477,-4.1574,-4.1098,-4.1062,-4.1036,-4.1009,-4.0659,-4.0443,-4.0395,-4.0447,-4.0038,-3.9084,-3.9444,-3.9204,-3.8263,-3.784,-3.7796,-3.8125,-3.7398,-3.7469,-3.8228,-3.8672,-3.9411,-4.0269,-4.0641,-4.0839,-4.0907,-4.0908,-4.0893,-4.0903,-4.0858,-4.0327,-3.9603,-3.9799,-3.9215,-3.8301,-3.8227,-3.7832,-3.7253,-3.6594,-3.6116,-3.5681,-3.5033,-3.4719,-3.4561,-3.4506,-3.4528,-3.4602,-3.4666,-3.4645,-3.4612,-3.4612,-3.4528,-3.4506,-3.4612,-3.5666,-3.644,-3.5885,-3.6303,-3.6484,-3.5719,-3.4862,-3.4413,-3.4779,-3.4783,-3.4518,-3.3835,-3.3952,-3.3869,-3.336,-3.3273,-3.2861,-3.1967,-3.1439,-3.0965,-3.0558,-2.9853,-2.9621,-3.002,-2.9291,-2.8863,-2.8774,-2.8793,-2.8545,-2.8077,-2.8318,-2.8611,-2.8929,-2.907,-2.8885,-3.1427,0.0,0.0,-3.795,-3.8146,-3.7366,-3.7338,-3.7319,-3.7813,-3.9656,-4.0067,-4.0127,-4.0206,-4.0457,-4.0655,-4.0687,-4.0883,-4.1068,-4.1088,-4.1107,-4.1185,-4.1393,-4.173,-4.1902,-4.1792,-4.1562,-4.1399,-4.1342,-4.1131,-4.0949,-4.0874,-4.0701,-4.0177,-3.9228,-3.9024,-3.8481,-3.7535,-3.7481,-3.7422,-3.7379,-3.7379,-3.7411,-3.7501,-3.835,-3.921,-4.0117,-4.0361,-4.0509,-4.0568,-4.0806,-4.0908,-4.0859,-4.053,-3.9918,-3.9184,-3.8768,-3.8099,-3.7392,-3.7022,-3.6606,-3.6083,-3.5351,-3.5071,-3.4948,-3.4414,-3.4374,-3.4506,-3.4409,-3.4461,-3.4539,-3.4602,-3.4612,-3.4612,-3.4612,-3.4612,-3.4634,-3.4747,-3.5965,-3.684,-3.6123,-3.6603,-3.6888,-3.6164,-3.5261,-3.4889,-3.5646,-3.5973,-3.576,-3.47,-3.4793,-3.456,-3.3611,-3.3536,-3.3206,-3.2335,-3.1869,-3.1653,-3.1691,-3.1008,-3.0796,-3.1133,-3.0155,-2.9257,-2.8579,-2.868,-2.8165,-2.7008,-2.7633,-2.775,-2.7419,-2.8107,-2.8298,0.0,0.0,-3.1398,-3.5495,-3.8156,-3.9808,-3.9872,-3.984,-3.9838,-4.0048,-4.0106,-4.0137,-4.0263,-4.0413,-4.0557,-4.0675,-4.0823,-4.0943,-4.1081,-4.1107,-4.1393,-4.2171,-4.1532,-4.17,0.0,-4.2766,-4.2233,-4.2168,-4.1431,-4.0939,-4.0818,-4.0073,-3.918,-3.8183,-3.7388,-3.6526,-3.5599,-3.5573,-3.5573,-3.5586,-3.5586,-3.5605,-3.5719,-3.6584,-3.7481,-3.8429,-3.927,-3.9645,-3.9709,-4.0548,-4.0907,-4.0796,-3.9746,-3.882,-3.7939,-3.6959,-3.6692,-3.6909,-3.7477,-3.7156,-3.6445,-3.6226,-3.614,-3.593,-3.4742,-3.4495,-3.4561,-3.4439,-3.4495,-3.4602,-3.4602,-3.4612,-3.4612,-3.4612,-3.4612,-3.4623,-3.4687,-3.5469,-3.6147,-3.6187,-3.6312,-3.6511,-3.6817,-3.6254,-3.5888,-3.6311,-3.7151,-3.7438,-3.6618,-3.5505,-3.4588,-3.4033,-3.3228,-3.2505,-3.1966,-3.2424,-3.2451,-3.1745,-3.215,-3.224,-3.179,-3.1177,-3.0485,-2.9764,-2.9817,-2.9007,-2.7288,-2.8152,-2.8072,-2.7093,-2.6678,-2.7126,-2.9596,0.0,-3.4997,-3.7974,-3.9317,-3.99,-3.9933,-3.9954,-3.9986,-4.0077,-3.8822,-3.7737,-3.7836,-3.7956,-3.8083,-3.821,-4.0184,-4.174,-4.1877,-4.2383,-4.2645,-4.2349,-4.2521,0.0,0.0,0.0,0.0,-4.2229,-4.1485,-4.0936,-4.0804,-4.0546,-3.9971,-3.9,-3.8734,-3.8174,-3.7225,-3.6709,-3.6389,-3.6297,-3.5804,-3.5887,-3.6477,-3.677,-3.7403,-3.8346,-3.9212,-3.9606,-3.967,-4.0548,-4.0568,-3.9995,-3.9496,-3.844,-3.7148,-3.6675,-3.6207,-3.582,-3.5982,-3.5747,-3.5363,-3.5294,-3.5205,-3.5076,-3.4709,-3.4655,-3.4708,-3.4623,-3.4666,-3.4708,-3.4623,-3.4612,-3.4612,-3.4612,-3.4612,-3.4634,-3.4747,-3.5471,-3.5967,-3.5552,-3.5866,-3.6093,-3.571,-3.5578,-3.5733,-3.6311,-3.6099,-3.5988,-3.6302,-3.506,-3.3904,-3.3273,-3.3512,-3.3327,-3.2431,-3.2713,-3.2775,-3.2394,-3.1862,-3.1538,-3.1472,-3.0462,-2.9598,-2.8935,-2.9044,-2.8253,-2.6517,-2.6756,-2.6524,-2.5806,-2.5188,-2.5545,-3.1821,-3.4122,-3.653,-3.922,-3.99,-3.99,-3.99,-3.9954,-4.0007,-4.0096,-3.8176,-3.6517,-3.6599,-3.5979,-3.5587,-3.6031,-3.7932,-3.9717,-4.0785,-4.1395,-4.1873,-4.2218,-4.2477,0.0,0.0,0.0,0.0,-4.2201,-4.176,-4.1218,-4.0788,-4.0756,-4.032,-3.9357,-3.907,-3.8646,-3.8026,-3.7231,-3.6646,-3.6298,-3.5836,-3.5917,-3.6468,-3.646,-3.6767,-3.742,-3.8274,-3.865,-3.8733,-3.9612,-3.9651,-3.9078,-3.8562,-3.7707,-3.6717,-3.6223,-3.5684,-3.5228,-3.5215,-3.5091,-3.4927,-3.4859,-3.478,-3.471,-3.4728,-3.4778,-3.4809,-3.4706,-3.4708,-3.4747,-3.4634,-3.4612,-3.4612,-3.4612,-3.4623,-3.4655,-3.4747,-3.5244,-3.5551,-3.5116,-3.5343,-3.5519,-3.5253,-3.5518,-3.593,-3.6408,-3.5579,-3.5223,-3.6068,-3.4826,-3.371,-3.3212,-3.3139,-3.296,-3.2559,-3.2458,-3.248,-3.2546,-3.1887,-3.1374,-3.1139,-3.013,-2.928,-2.8667,-2.8722,-2.784,-2.5975,-2.6091,-2.5627,-2.4638,-2.4131,-2.445,-3.5049,-3.5836,-3.6084,-3.9134,-3.99,-3.99,-3.99,-3.9954,-3.9979,-3.9926,-3.8038,-3.6355,0.0,0.0,-3.3429,-3.4364,-3.4694,-3.5779,-3.8454,-3.877,-3.9616,0.0,0.0,0.0,0.0,0.0,0.0,-4.2194,0.0,-4.1795,-4.088,-4.0823,-4.0376,-3.9369,-3.8535,-3.807,-3.803,-3.7233,-3.6445,-3.5655,-3.5666,-3.5676,-3.5684,-3.5637,-3.5643,-3.5748,-3.6547,-3.6931,-3.7073,-3.7947,-3.8267,-3.8135,-3.7096,-3.6665,-3.6529,-3.5565,-3.5168,-3.5122,-3.5182,-3.519,-3.5166,-3.4973,-3.4908,-3.4908,-3.482,-3.4839,-3.4868,-3.4666,-3.4655,-3.4676,-3.4623,-3.4612,-3.4612,-3.4612,-3.4655,-3.4697,-3.4697,-3.4798,-3.4897,-3.4897,-3.4791,-3.4902,-3.5532,-3.6007,-3.6362,-3.6559,-3.5598,-3.5154,-3.5996,-3.4927,-3.4044,-3.3877,-3.2397,-3.1706,-3.2377,-3.1892,-3.1737,-3.22,-3.2157,-3.1694,-3.0744,-3.0164,-2.9544,-2.8905,-2.8841,-2.785,-2.584,-2.6161,-2.5398,-2.368,-2.3472,-2.3748,-3.5958,-3.7451,-3.8879,-3.9692,-3.9933,-3.9965,-3.9911,-4.0036,-3.9633,-3.7804,-3.6061,-3.4109,0.0,0.0,0.0,-3.4663,-3.8198,0.0,-4.3054,-4.321,0.0,-4.4059,0.0,-4.3836,-4.3831,-4.3229,0.0,0.0,-4.2573,-4.2338,-4.2615,-4.2641,-4.2153,-4.1105,-4.0847,-4.0419,-3.9774,-3.9,-3.7928,-3.6492,-3.6529,-3.6244,-3.5637,-3.5668,-3.5679,-3.5748,-3.6607,-3.6991,-3.7073,-3.7947,-3.7927,-3.7281,-3.6877,-3.6305,-3.5694,-3.5393,-3.5261,-3.5258,-3.5266,-3.5235,-3.5192,-3.5203,-3.5195,-3.5163,-3.5011,-3.4955,-3.4927,-3.4728,-3.4687,-3.4676,-3.4623,-3.4612,-3.4612,-3.4612,-3.4655,-3.4708,-3.4768,-3.4848,-3.4917,-3.4955,-3.4781,-3.4944,-3.5945,-3.5328,-3.509,-3.6338,-3.5133,-3.4601,-3.5991,-3.4826,-3.4103,-3.4691,-3.4634,-3.4074,-3.2946,-3.3187,-3.2741,-3.1218,-3.1052,-3.0572,-2.9559,-2.9384,-2.9123,-2.8764,-2.8304,-2.7603,-2.6705,-2.5479,-2.4353,-2.3316,-2.2367,-2.2335,-3.805,-3.9147,-4.0006,-4.0407,-4.0545,-4.0188,-3.8737,-3.8793,-3.8342,-3.5494,-3.3427,0.0,0.0,0.0,0.0,0.0,0.0,0.0,-4.2362,-4.2236,-4.2241,0.0,-4.3442,0.0,-4.3017,-4.332,-4.3685,0.0,-4.3622,-4.3319,-4.3292,-4.3634,-4.3176,-4.1752,-4.1669,-4.1076,-3.9832,-3.9442,-3.8421,-3.6813,-3.7263,-3.7017,-3.6184,-3.6607,-3.6599,-3.6245,0.0,-3.6762,-3.6471,-3.6966,-3.6869,-3.6427,-3.6315,-3.5964,-3.5527,-3.5483,-3.5464,-3.5445,-3.5496,-3.5477,-3.5411,-3.5262,-3.5215,-3.5187,-3.5081,-3.5001,-3.4927,-3.4811,-3.48,-3.4751,-3.4626,-3.4658,-3.471,-3.4615,-3.4666,-3.4758,-3.4788,-3.4859,-3.4888,-3.4869,-3.5052,-3.5353,-3.5843,-3.5562,-3.5441,-3.5935,-3.5153,-3.4837,-3.5735,-3.4842,-3.4248,-3.4615,-3.4333,-3.3674,-3.258,-3.18,-3.1007,-3.0176,-2.9577,-2.9048,-2.8601,-2.8228,-2.8106,-2.8254,-2.7724,-2.7108,-2.6419,-2.5184,-2.4069,-2.3068,-2.193,-2.1847,-4.0436,-4.0574,-4.0141,-4.1079,-4.1233,-4.0364,-3.7349,-3.7176,-3.6656,-3.3132,0.0,0.0,-2.8898,0.0,-3.1138,-3.2257,0.0,-3.6949,-3.9799,-3.9402,-3.948,-4.1291,-4.2114,-4.2609,-4.2809,-4.349,-4.423,-4.493,-4.4991,-4.4593,-4.3686,-4.4208,-4.3639,-4.1766,-4.153,-4.0745,-3.9284,-3.9346,-3.8626,-3.7128,-3.7971,-3.7848,-3.6899,-3.7671,-3.7618,-3.6884,-3.6792,0.0,-3.5869,-3.5748,-3.5704,-3.5704,-3.5704,-3.5709,-3.5695,-3.5692,-3.5651,-3.5623,-3.5713,-3.5708,-3.5629,-3.5285,-3.5163,-3.516,-3.5136,-3.5044,-3.4945,-3.4917,-3.4908,-3.486,-3.4678,-3.4761,-3.485,-3.4636,-3.4706,-3.4788,-3.4788,-3.4849,-3.486,-3.4728,-3.5304,-3.5776,-3.564,-3.6155,-3.6416,-3.5842,-3.5623,-3.5523,-3.5518,-3.4895,-3.4426,-3.4282,-3.3116,-3.2178,-3.1784,-2.9554,-2.8504,-2.9225,-2.8157,-2.7609,-2.7881,-2.7096,-2.6952,-2.7575,-2.6962,-2.6318,-2.5606,-2.4836,-2.3954,-2.2924,-2.1835,-2.1738,-4.1114,-4.065,-4.0205,-4.1142,-4.0889,-3.9891,-3.7931,-3.7133,0.0,0.0,0.0,-2.9545,-2.6816,-2.9266,-3.2227,-3.3881,0.0,0.0,0.0,0.0,-4.2173,0.0,0.0,0.0,0.0,0.0,0.0,0.0,0.0,-4.5804,-4.5473,-4.4905,-4.3694,-4.1766,-4.1001,-4.0475,-4.0177,-4.0238,-3.9804,-3.8876,-3.9094,-3.8363,-3.682,-3.7037,-3.704,-3.6856,-3.6193,0.0,-3.6714,-3.601,-3.5704,-3.5704,-3.5704,-3.5701,-3.5697,-3.5635,-3.561,-3.5596,-3.5568,-3.5531,-3.555,-3.559,-3.5554,-3.5476,-3.5327,-3.522,-3.5113,-3.5013,-3.4933,-3.4879,-3.4783,-3.4802,-3.4782,-3.4626,-3.4655,-3.4727,-3.4727,-3.4809,-3.4849,-3.4737,-3.481,-3.5295,-3.6438,-3.6093,-3.6086,-3.7352,-3.6744,-3.6118,-3.6076,-3.5045,-3.456,-3.511,-3.4119,-3.2944,-3.1729,-3.0451,-2.939,-2.8623,-2.789,-2.7609,-2.7881,-2.7016,-2.6663,-2.6952,-2.5616,-2.4999,-2.5112,-2.356,-2.2778,-2.2644,-2.1511,-2.1094,-4.2318,-4.1993,-4.1466,-4.1956,-4.2101,-4.0922,-3.6309,0.0,0.0,0.0,0.0,-2.7577,-2.5989,0.0,0.0,0.0,0.0,0.0,0.0,0.0,0.0,0.0,0.0,0.0,0.0,0.0,0.0,0.0,0.0,-4.6104,-4.5912,-4.4539,-4.3343,-4.2405,-4.1121,-4.0449,-4.0449,-4.0476,-4.01,-3.9307,-3.9786,-3.9376,-3.8169,-3.8666,-3.8394,-3.7562,-3.721,0.0,-3.6292,-3.5869,-3.5704,-3.5704,-3.5704,-3.5706,-3.5707,-3.5653,-3.5669,-3.5708,-3.5679,-3.5654,-3.5659,-3.5727,-3.5684,-3.5574,-3.5495,-3.5353,-3.5246,-3.5227,-3.5166,-3.5087,-3.5024,-3.506,-3.5079,-3.4898,-3.486,-3.4849,-3.4809,-3.4858,-3.4887,-3.482,-3.5199,-3.5716,-3.6276,-3.6607,-3.6913,-3.7208,-3.6938,-3.6549,-3.6098,-3.5089,-3.4635,-3.523,-3.4183,-3.2927,-3.1698,-2.9853,-2.8507,-2.7968,-2.7199,-2.705,-2.7655,-2.6497,-2.6231,-2.7093,-2.5915,-2.5206,-2.5056,-2.4255,-2.3383,-2.2461,-2.1477,-2.082,-4.3106,-4.3149,-4.2577,-4.2912,-4.3191,-4.1657,-3.5046,-3.4289,0.0,0.0,0.0,-2.5698,-2.5709,0.0,-3.0062,0.0,0.0,0.0,0.0,0.0,0.0,0.0,0.0,0.0,0.0,0.0,0.0,0.0,0.0,0.0,-4.5376,-4.3863,-4.2842,-4.2469,-4.1017,-4.0318,-4.0502,-4.0338,-4.0011,-3.9572,-4.0246,-4.0164,-3.9403,-4.0095,-3.9689,-3.8434,-3.8127,0.0,0.0,-3.5839,-3.5704,-3.5704,-3.5704,-3.5681,-3.5683,-3.5689,-3.5732,-3.579,-3.5773,-3.5782,-3.5782,-3.5806,-3.5723,-3.5615,-3.5646,-3.5506,-3.5374,-3.545,-3.5412,-3.5339,-3.5258,-3.5319,-3.5352,-3.5157,-3.5034,-3.4974,-3.4936,-3.4907,-3.4878,-3.4898,-3.5496,-3.5998,-3.5985,-3.7,-3.7604,-3.6946,-3.7107,-3.6978,-3.6053,-3.5385,-3.5042,-3.5173,-3.3576,-3.2095,-3.1041,-2.868,-2.7261,-2.7312,-2.6563,-2.6482,-2.7378,-2.5943,-2.572,-2.6996,-2.6007,-2.5185,-2.4593,-2.465,-2.3876,-2.232,-2.1392,-2.0713,-4.2659,-4.2898,-4.2496,-4.3609,-4.2784,-4.0593,-3.6263,0.0,0.0,0.0,-2.57,-2.5698,-2.5709,0.0,0.0,0.0,0.0,-3.2221,0.0,0.0,0.0,0.0,0.0,0.0,0.0,0.0,0.0,0.0,0.0,0.0,-4.3668,-4.3284,-4.2368,-4.077,-3.9869,-3.9754,-4.0482,-3.9781,-3.9746,-4.0381,-4.0466,-4.01,-3.9311,-3.9386,-3.939,-3.9212,-3.7681,0.0,0.0,-3.6323,-3.5704,-3.5704,-3.5704,-3.567,-3.5612,-3.5683,-3.5693,-3.5718,-3.5704,-3.5713,-3.5718,-3.578,-3.5742,-3.5704,-3.5769,-3.5674,-3.5582,-3.5654,-3.5609,-3.5543,-3.5418,-3.5385,-3.5357,-3.5146,-3.4997,-3.4917,-3.4981,-3.4898,-3.4829,-3.4889,-3.4965,-3.5287,-3.6131,-3.6641,-3.7075,-3.7522,-3.7824,-3.7534,-3.6257,-3.6381,-3.6207,-3.5212,-3.2271,-2.9958,-2.8889,-2.7338,-2.6496,-2.6747,-2.6353,-2.6395,-2.7018,-2.5686,-2.5223,-2.5829,-2.4504,-2.3538,-2.3003,-2.3035,-2.2726,-2.2189,-2.1076,-2.0578,-4.3189,-4.4026,-4.3801,-4.3963,-4.2384,-3.9708,-3.5649,0.0,0.0,-2.6498,-2.5703,-2.5698,-2.5709,-2.5707,-2.6023,-2.7047,-2.8434,0.0,-3.3353,0.0,0.0,0.0,0.0,0.0,0.0,0.0,0.0,0.0,0.0,0.0,-4.2576,-4.2379,-4.2,-4.1311,-4.0462,-4.0181,-4.0503,-4.0181,-4.0189,-4.0496,-4.0496,-4.0323,-4.0015,-4.0072,-3.9805,-3.9299,-3.8678,0.0,0.0,-3.67,-3.6115,-3.5639,-3.5673,-3.5654,-3.561,-3.5672,-3.5698,-3.5694,-3.5704,-3.5726,-3.5768,-3.5793,-3.5814,-3.5827,-3.5803,-3.575,-3.5727,-3.5745,-3.5713,-3.5654,-3.5644,-3.5618,-3.5543,-3.5386,-3.517,-3.5025,-3.5,-3.486,-3.4778,-3.4888,-3.5324,-3.5818,-3.6226,-3.6675,-3.7094,-3.747,-3.7226,-3.6881,-3.6504,-3.6322,-3.5797,-3.4691,-3.2482,-3.0957,-3.0521,-2.8132,-2.6707,-2.6811,-2.6231,-2.6022,-2.6438,-2.5531,-2.5172,-2.5438,-2.4902,-2.4296,-2.3578,-2.3433,-2.3055,-2.2524,-2.1126,-2.0544,-4.2077,-4.3932,-4.4606,-4.4303,-4.2068,-3.9005,0.0,0.0,0.0,-2.6302,-2.5703,-2.5698,-2.5709,-2.5707,-2.5707,-2.5707,-2.7129,-2.883,-3.0462,-3.2176,0.0,0.0,0.0,0.0,0.0,0.0,0.0,0.0,0.0,0.0,0.0,-4.1574,-4.1412,-4.1412,-4.0585,-4.015,-4.015,-4.015,-4.0158,-4.0146,-4.0389,-4.0504,-4.0531,-4.0565,-4.0077,-3.9253,0.0,0.0,0.0,-3.6852,-3.635,-3.5591,-3.5639,-3.5631,-3.5612,-3.5681,-3.5683,-3.5679,-3.5694,-3.5735,-3.5768,-3.5791,-3.5815,-3.5845,-3.5811,-3.5792,-3.5799,-3.5827,-3.5775,-3.5736,-3.5786,-3.5741,-3.5689,-3.5571,-3.5379,-3.5154,-3.5079,-3.4917,-3.48,-3.4887,-3.538,-3.5817,-3.5865,-3.6327,-3.672,-3.6797,-3.6515,-3.6308,-3.6359,-3.6006,-3.5419,-3.4617,-3.2644,-3.1278,-3.0991,-2.8262,-2.6455,-2.6213,-2.5838,-2.559,-2.5472,-2.5235,-2.5057,-2.49,-2.4927,-2.4496,-2.356,-2.3567,-2.3205,-2.2474,-2.129,-2.0411,-3.8561,-4.1893,-4.4465,-4.4739,-4.1928,-3.8481,0.0,0.0,0.0,-2.6191,-2.57,-2.5698,-2.5709,-2.5707,-2.5707,-2.5707,-2.5613,-2.6744,-3.0218,-3.0613,0.0,0.0,0.0,0.0,0.0,0.0,0.0,0.0,0.0,0.0,0.0,-4.0969,-4.0516,-4.0516,-3.9727,-3.9304,-3.9304,-3.9304,-3.9319,-3.9309,-4.0127,-4.0531,-4.0607,-4.0531,-3.9996,0.0,0.0,0.0,0.0,-3.6712,-3.6292,-3.5515,-3.5566,-3.5596,-3.5606,-3.5679,-3.5668,-3.5604,-3.5678,-3.5698,-3.5711,-3.5779,-3.5752,-3.5712,-3.5781,-3.5806,-3.5815,-3.5872,-3.5859,-3.5795,-3.5795,-3.5741,-3.5708,-3.5704,-3.5537,-3.5364,-3.5232,-3.5088,-3.4974,-3.4917,-3.4848,-3.4838,-3.4906,-3.537,-3.5646,-3.545,-3.5925,-3.6142,-3.5664,-3.56,-3.5509,-3.5297,-3.2352,-3.0037,-2.9108,-2.6987,-2.537,-2.4584,-2.5146,-2.5075,-2.4063,-2.472,-2.4771,-2.4026,-2.4085,-2.3541,-2.2313,-2.2996,-2.28,-2.1791,-2.1457,-2.0145,-3.5429,-3.7095,-3.7979,-3.8307,-3.5749,-3.2974,-3.2246,0.0,0.0,-2.5853,-2.5703,-2.5699,-2.5693,-2.5709,-2.5902,-2.6489,-2.6487,-2.6762,0.0,0.0,0.0,0.0,0.0,0.0,0.0,0.0,0.0,0.0,0.0,0.0,0.0,-4.065,-4.0496,-4.0496,-4.0246,-4.0131,-4.0131,-4.0131,-4.0146,-4.0183,-4.0438,-4.0573,-4.0607,-4.0573,0.0,0.0,0.0,0.0,0.0,-3.7521,-3.7423,-3.7079,-3.5911,-3.5868,-3.6363,-3.5822,-3.5645,-3.567,-3.5683,-3.57,-3.5702,-3.578,-3.5784,-3.5776,-3.5795,-3.581,-3.5799,-3.583,-3.5819,-3.5795,-3.5801,-3.5751,-3.5708,-3.5708,-3.5543,-3.5391,-3.535,-3.5119,-3.5116,-3.5742,-3.6254,-3.6593,-3.6593,-3.6751,-3.6671,-3.609,-3.5598,-3.5277,-3.5324,-3.4275,-3.3548,-3.3588,-3.0647,-2.8847,-2.9232,-2.6576,-2.4624,-2.405,-2.3787,-2.3581,-2.3374,-2.3878,-2.3973,-2.3589,-2.3921,-2.3881,-2.3369,-2.2555,-2.1386,-1.9949,-1.9983,-1.9099,-3.2191,-3.3961,-3.4949,-3.5157,-3.2787,0.0,0.0,0.0,-2.5618,-2.5697,-2.5703,-2.5699,-2.5694,-2.569,-2.598,-2.686,-2.6606,-2.6871,0.0,0.0,0.0,0.0,0.0,0.0,0.0,0.0,0.0,0.0,0.0,0.0,0.0,-4.0531,-4.0539,-4.0539,-4.0504,-4.0342,-4.0054,-4.0342,-4.0385,-4.0147,-4.0441,-4.0603,-4.0651,-4.0603,0.0,0.0,0.0,0.0,0.0,-3.7209,-3.721,-3.6869,-3.6169,-3.6058,-3.626,-3.6144,-3.591,-3.5673,-3.5697,-3.5683,-3.5674,-3.5761,-3.5824,-3.5824,-3.5804,-3.5806,-3.578,-3.5775,-3.5773,-3.5803,-3.5808,-3.5747,-3.5708,-3.5708,-3.5596,-3.5483,-3.5412,-3.5235,-3.5323,-3.6148,-3.6663,-3.7081,-3.7354,-3.732,-3.7016,-3.636,-3.5632,-3.5164,-3.5082,-3.3594,-3.2545,-3.2643,-2.9466,-2.7469,-2.7713,-2.5686,-2.4008,-2.3092,-2.2852,-2.261,-2.2347,-2.322,-2.349,-2.3112,-2.3302,-2.3377,-2.3299,-2.1778,-2.0412,-1.926,-1.9011,-1.8328,0.0,-3.1912,-3.4226,-3.4226,-3.2117,-3.009,-3.0211,-2.784,0.0,-2.5683,-2.5702,-2.5699,-2.5696,-2.5691,-2.5981,-2.6861,-2.6203,-2.7074,0.0,-3.1508,0.0,0.0,0.0,0.0,0.0,0.0,0.0,0.0,0.0,0.0,0.0,-4.0573,-4.0588,-4.0588,-4.0539,-4.0158,-3.94,-4.0131,-4.0157,-3.9495,-4.0244,-4.0605,-4.059,-4.0521,0.0,0.0,0.0,0.0,0.0,-3.6143,-3.6116,-3.5455,-3.6262,-3.6135,-3.5604,-3.6489,-3.6288,-3.562,-3.5683,-3.5665,-3.5623,-3.5753,-3.5841,-3.589,-3.5815,-3.5806,-3.5791,-3.5713,-3.5742,-3.5799,-3.5794,-3.5757,-3.5699,-3.5699,-3.5702,-3.5656,-3.5464,-3.5406,-3.5568,-3.6192,-3.6356,-3.6595,-3.7288,-3.723,-3.6888,-3.628,-3.5972,-3.5538,-3.4835,-3.3267,-3.2192,-3.2076,-2.8675,-2.6004,-2.4941,-2.4337,-2.3365,-2.187,-2.218,-2.2049,-2.1174,-2.2718,-2.3258,-2.2571,-2.239,-2.2246,-2.2088,-2.0706,-1.9772,-1.9256,-1.836,-1.7663,-2.6333,0.0,-2.7715,-2.7715,-2.7181,-2.6668,0.0,-2.6176,-2.5623,-2.5683,-2.5703,-2.5702,-2.5701,-2.57,-2.599,-2.6869,-2.6765,-2.7816,-3.1406,0.0,0.0,0.0,0.0,0.0,0.0,0.0,0.0,0.0,0.0,0.0,0.0,-4.0593,-4.06,-4.06,-4.0593,-4.0494,-4.0303,-4.0477,-4.0487,-4.0325,-4.0504,-4.0232,-3.9548,-3.9545,0.0,0.0,0.0,0.0,-3.6054,-3.7017,-3.7326,-3.7064,-3.5874,-3.5804,-3.6351,-3.597,-3.5723,-3.5621,-3.5781,-3.5817,-3.5753,-3.5795,-3.5804,-3.582,-3.5799,-3.5843,-3.5853,-3.5727,-3.5713,-3.5728,-3.5727,-3.5711,-3.5706,-3.5706,-3.5695,-3.5698,-3.5631,-3.5431,-3.5496,-3.6304,-3.6824,-3.7203,-3.7379,-3.7769,-3.7629,-3.6319,-3.5942,-3.5107,-3.3222,-3.1573,-3.0125,-2.8985,-2.6944,-2.5054,-2.3524,-2.2665,-2.1945,-2.1315,-2.1107,-2.1108,-2.1404,-2.2048,-2.2332,-2.2218,-2.2319,-2.1674,-2.024,-1.9587,-1.8594,-1.728,-1.6588,-1.6003,-2.5464,-2.5507,-2.5507,-2.5507,-2.5507,-2.5513,-2.558,-2.5601,-2.5623,-2.5682,-2.5703,-2.5702,-2.5702,-2.5701,-2.5993,-2.6851,-2.7905,0.0,0.0,0.0,-4.0371,0.0,0.0,0.0,0.0,0.0,0.0,0.0,0.0,0.0,0.0,-4.0633,-4.0654,-4.0654,-4.0654,-4.0633,-4.0598,-4.0598,-4.0619,-4.0635,-4.0181,-3.9709,-3.9225,-3.8766,-3.7748,0.0,0.0,0.0,-3.5713,-3.6242,-3.6486,-3.6466,-3.5907,-3.5815,-3.6021,-3.6074,-3.5863,-3.5581,-3.5779,-3.5853,-3.584,-3.5813,-3.5837,-3.5883,-3.5869,-3.5872,-3.5877,-3.5745,-3.5698,-3.5702,-3.5695,-3.5704,-3.5704,-3.5704,-3.5704,-3.5709,-3.5701,-3.5823,-3.6154,-3.6949,-3.7674,-3.8242,-3.8415,-3.8331,-3.7852,-3.6775,-3.5403,-3.3967,-3.2574,-3.0316,-2.8582,-2.7869,-2.5988,-2.4322,-2.3138,-2.2281,-2.1339,-2.0212,-1.9788,-1.951,-1.9337,-2.0309,-2.0867,-2.0913,-2.0981,-1.996,-1.7798,-1.7862,-1.7185,-1.5802,-1.5586,-1.542,-2.5464,-2.5866,-2.6133,-2.5623,-2.5507,-2.5513,-2.558,-2.5502,-2.5467,-2.5663,-2.5586,-2.5546,-2.5683,-2.5819,-2.613,0.0,0.0,0.0,-3.6916,-3.7977,-3.9124,0.0,0.0,0.0,0.0,0.0,0.0,0.0,0.0,0.0,0.0,-4.0615,-4.0649,-4.0514,-4.0649,-4.061,-4.0421,-4.0407,-4.0486,-4.0694,-3.967,-3.9153,-3.9032,-3.8185,-3.7211,0.0,0.0,0.0,-3.4917,-3.5125,-3.5125,-3.5096,-3.597,-3.5853,-3.5318,-3.6253,-3.6125,-3.5506,-3.5732,-3.5834,-3.5875,-3.5833,-3.5911,-3.5984,-3.5938,-3.5914,-3.5872,-3.5768,-3.5723,-3.5701,-3.5709,-3.5704,-3.5704,-3.5704,-3.5704,-3.5695,-3.5697,-3.6155,-3.6773,-3.7483,-3.815,-3.8784,-3.9192,-3.8452,-3.7572,-3.6984,-3.4619,-3.2662,-3.2038,-2.938,-2.7538,-2.7495,-2.537,-2.3728,-2.3031,-2.2143,-2.0754,-1.8654,-1.8664,-1.8272,-1.7348,-1.8696,-1.952,-1.9624,-1.9494,-1.823,-1.5771,-1.6309,-1.5939,-1.4767,-1.4894,-1.5229,-2.5427,-2.7532,-2.8984,-2.6187,-2.5507,-2.5513,-2.558,-2.5033,-2.4723,-2.5526,-2.5117,-2.4824,-2.5566,-2.6308,-2.6836,0.0,0.0,-3.6977,0.0,0.0,0.0,0.0,0.0,0.0,0.0,0.0,0.0,0.0,0.0,0.0,0.0,-4.0378,-4.0455,-3.9707,-4.0397,-4.0411,-3.9591,-3.9478,-3.9839,-4.0694,-3.967,-3.8788,-3.8036,-3.7878,-3.6812,-3.5182,0.0,-3.577,-3.4955,-3.5779,-3.5674,-3.5039,-3.5293,-3.5318,-3.525,-3.5586,-3.5581,-3.5454,-3.5717,-3.5772,-3.5764,-3.5914,-3.5979,-3.6007,-3.5983,-3.5951,-3.5909,-3.5885,-3.5794,-3.5694,-3.5706,-3.5704,-3.5704,-3.5704,-3.5704,-3.5709,-3.569,-3.5612,-3.5772,-3.6553,-3.6623,-3.6723,-3.7234,-3.7007,-3.6459,-3.5624,-3.4019,-3.2176,-3.0196,-2.8664,-2.7308,-2.6153,-2.4494,-2.3081,-2.2004,-2.0437,-1.8626,-1.6577,-1.8511,-1.9671,-1.9697,-1.9404,-1.953,-2.017,-1.9783,-1.8469,-1.6205,-1.6299,-1.559,-1.4115,-1.4013,-1.4387,-2.5423,-2.6603,-2.7812,-2.8078,-2.9457,-3.075,-3.077,-3.0388,-2.968,-2.8491,-2.7887,-2.7202,-2.5936,0.0,-2.9343,-3.2533,0.0,0.0,0.0,0.0,0.0,0.0,0.0,0.0,0.0,0.0,0.0,0.0,0.0,0.0,0.0,0.0,-4.0157,-3.9316,-3.9697,-3.9504,-3.8602,-3.8024,-3.8224,-3.9162,-3.8162,-3.7461,-3.7028,-3.6483,-3.5759,-3.4908,0.0,-3.5296,-3.4927,-3.5363,-3.5315,-3.4945,-3.5019,-3.5143,-3.5281,-3.5482,-3.556,-3.5577,-3.5698,-3.5764,-3.5837,-3.5958,-3.5953,-3.5892,-3.5925,-3.5904,-3.584,-3.5797,-3.5749,-3.5697,-3.5698,-3.5703,-3.5711,-3.5711,-3.5702,-3.5713,-3.5747,-3.5888,-3.6109,-3.6446,-3.6521,-3.6547,-3.6621,-3.5987,-3.5367,-3.5038,-3.2847,-3.0856,-2.9813,-2.8104,-2.6566,-2.5407,-2.4558,-2.3425,-2.187,-2.1062,-1.9409,-1.6518,-1.6184,-1.6666,-1.7878,-1.732,-1.7492,-1.8551,-1.841,-1.765,-1.6193,-1.5606,-1.489,-1.4079,-1.4127,-1.4595,-2.5423,-2.6056,-2.7242,-2.9743,-3.1648,-3.3327,-3.4855,-3.3708,-3.2084,-3.1357,-3.0485,-2.9179,-2.6908,-2.8427,0.0,-3.6784,0.0,0.0,0.0,0.0,0.0,0.0,0.0,0.0,0.0,0.0,0.0,0.0,0.0,0.0,0.0,0.0,-3.9471,-3.8837,-3.8877,-3.8577,-3.7874,-3.7149,-3.7165,-3.7893,-3.6875,-3.64,-3.6372,-3.5589,-3.5116,-3.4908,-3.4908,-3.4908,-3.4908,-3.4908,-3.4908,-3.4898,-3.4955,-3.5105,-3.533,-3.5457,-3.5537,-3.5595,-3.5645,-3.5733,-3.5856,-3.5938,-3.5926,-3.5852,-3.5909,-3.5886,-3.5813,-3.5768,-3.572,-3.5702,-3.5706,-3.5704,-3.5697,-3.5697,-3.5698,-3.5718,-3.5747,-3.6054,-3.6358,-3.6438,-3.6395,-3.6278,-3.6107,-3.508,-3.4248,-3.4075,-3.1629,-2.9706,-2.9412,-2.7607,-2.6043,-2.5257,-2.4545,-2.3243,-2.1006,-2.056,-1.9314,-1.6694,-1.4402,-1.409,-1.6167,-1.561,-1.5939,-1.7419,-1.752,-1.7003,-1.5838,-1.4974,-1.4351,-1.3933,-1.4147,-1.4767,-2.5423,-2.774,-3.0084,-3.0263,-2.8231,-2.7788,-3.3826,-2.9704,-2.6291,-3.2314,-3.093,-2.8688,-2.8826,-3.0485,-3.271,-3.5429,0.0,0.0,0.0,0.0,0.0,0.0,0.0,0.0,0.0,0.0,0.0,0.0,0.0,0.0,0.0,0.0,0.0,-3.7986,-3.805,-3.8001,-3.7808,-3.7681,-3.7712,-3.7893,-3.6875,-3.64,-3.64,-3.6325,-3.5769,-3.4908,-3.4908,-3.4908,-3.4908,-3.4908,-3.4908,-3.4927,-3.5107,-3.5231,-3.53,-3.5245,-3.5237,-3.5266,-3.5519,-3.5604,-3.565,-3.5833,-3.5936,-3.5984,-3.5994,-3.5942,-3.5885,-3.5895,-3.5807,-3.5708,-3.5697,-3.5695,-3.5709,-3.5709,-3.5692,-3.5678,-3.5629,-3.5598,-3.5724,-3.6224,-3.5437,-3.4757,-3.5058,-3.4152,-3.3041,-3.1983,-3.0669,-2.9401,-2.8267,-2.7206,-2.6421,-2.6061,-2.4056,-2.1442,-1.8183,-1.6536,-1.5873,-1.6295,-1.4807,-1.4859,-1.6943,-1.6149,-1.6505,-1.8365,-1.8402,-1.7293,-1.507,-1.4884,-1.4287,-1.3371,-1.3443,-1.4281,-2.5423,-2.787,-3.0333,-3.0364,-2.9447,-3.0042,-3.5817,-3.483,-3.3938,-3.8355,-3.8203,-3.6233,-3.2824,0.0,-3.6157,0.0,0.0,0.0,0.0,0.0,0.0,0.0,0.0,0.0,0.0,0.0,0.0,0.0,0.0,0.0,0.0,0.0,0.0,-3.7659,-3.7186,-3.667,-3.6133,-3.6053,-3.6052,-3.6101,-3.6215,-3.5989,-3.5476,-3.5476,-3.5249,-3.4908,-3.4908,-3.4908,-3.4908,-3.4908,-3.4908,-3.4917,-3.5174,-3.5242,-3.5201,-3.5376,-3.5397,-3.5362,-3.5531,-3.5607,-3.5639,-3.5795,-3.5836,-3.5815,-3.5866,-3.5829,-3.5772,-3.5724,-3.5713,-3.5703,-3.5698,-3.5708,-3.5692,-3.5692,-3.5693,-3.5684,-3.5667,-3.5583,-3.5493,-3.5437,-3.5069,-3.4623,-3.4193,-3.4006,-3.3421,-3.195,-3.0951,-2.987,-2.854,-2.7481,-2.6539,-2.5691,-2.3128,-2.081,-1.9181,-1.6754,-1.55,-1.5942,-1.3955,-1.3711,-1.5836,-1.4968,-1.5184,-1.674,-1.7345,-1.6957,-1.5609,-1.5459,-1.5064,-1.448,-1.4712,-1.5285,-2.5384,-2.7065,-2.9028,-3.0122,-3.0427,-3.1459,-3.5391,-3.7227,-3.8948,-4.2018,-4.1669,-3.9584,-3.5505,0.0,0.0,0.0,0.0,0.0,0.0,0.0,0.0,0.0,0.0,0.0,0.0,0.0,0.0,0.0,0.0,0.0,0.0,0.0,0.0,0.0,-3.6348,-3.5759,-3.5363,-3.5372,-3.5363,-3.5325,-3.6148,-3.611,-3.5296,-3.5306,-3.5306,-3.5306,-3.5022,-3.4908,-3.4908,-3.4908,-3.5059,-3.5287,-3.5236,-3.5321,-3.5479,-3.5472,-3.5417,-3.5369,-3.5489,-3.5531,-3.5566,-3.5724,-3.5756,-3.573,-3.5788,-3.5767,-3.5718,-3.5648,-3.566,-3.5676,-3.5694,-3.5694,-3.5692,-3.567,-3.5683,-3.5669,-3.5544,-3.5477,-3.5345,-3.504,-3.4943,-3.4646,-3.3865,-3.3809,-3.323,-3.1335,-3.0546,-2.9589,-2.8022,-2.7282,-2.6271,-2.4614,-2.1966,-2.0004,-1.9286,-1.6599,-1.5204,-1.592,-1.35,-1.3045,-1.5259,-1.4697,-1.4953,-1.6245,-1.6699,-1.6528,-1.5648,-1.5334,-1.5087,-1.4933,-1.5299,-1.5757,-2.5253,-2.5379,-2.6273,-2.958,-3.0481,-3.0821,-3.1742,-3.5144,-3.8947,-4.2068,-3.9689,-3.6883,-3.6325,-3.7762,0.0,0.0,0.0,0.0,0.0,0.0,0.0,0.0,0.0,0.0,0.0,0.0,0.0,0.0,0.0,0.0,0.0,0.0,0.0,0.0,-3.5547,-3.5408,-3.5875,-3.6087,-3.6125,-3.6007,-3.6872,-3.689,-3.6196,-3.6196,-3.6206,-3.6149,-3.5268,-3.4908,-3.4908,-3.4927,-3.542,-3.613,-3.5325,-3.5542,-3.6215,-3.5469,-3.5187,-3.5215,-3.5343,-3.5398,-3.5425,-3.5636,-3.5733,-3.5799,-3.5797,-3.5791,-3.5786,-3.5718,-3.5648,-3.5612,-3.5679,-3.5704,-3.5673,-3.561,-3.5648,-3.5593,-3.5193,-3.5209,-3.5278,-3.5198,-3.5037,-3.4698,-3.4089,-3.3442,-3.2188,-2.9778,-2.9196,-2.834,-2.643,-2.6461,-2.5615,-2.288,-2.0546,-1.8819,-1.7865,-1.542,-1.4584,-1.6196,-1.3733,-1.3252,-1.5596,-1.5685,-1.6254,-1.747,-1.6897,-1.6044,-1.4903,-1.4391,-1.4196,-1.4316,-1.4805,-1.5495,-2.4669,-2.8089,-3.1423,-2.9813,-3.3123,-3.67,-3.6529,-3.6735,-3.8057,-4.1849,-4.1653,-4.0219,-3.8318,0.0,0.0,0.0,0.0,0.0,0.0,0.0,0.0,0.0,0.0,0.0,0.0,0.0,0.0,0.0,0.0,0.0,0.0,0.0,0.0,0.0,-3.5465,-3.5063,-3.5055,-3.5069,-3.5044,-3.5038,-3.5848,-3.5907,-3.5313,-3.5912,-3.5874,-3.5268,-3.5003,-3.5249,-3.5855,-3.6424,-3.6803,-3.6965,-3.6217,-3.6064,-3.6214,-3.5584,-3.5285,-3.5215,-3.5343,-3.5348,-3.5281,-3.5438,-3.5498,-3.5532,-3.5579,-3.562,-3.5664,-3.5648,-3.5626,-3.5601,-3.5628,-3.5628,-3.5622,-3.5604,-3.5616,-3.5534,-3.517,-3.5384,-3.5371,-3.4401,-3.4737,-3.4715,-3.3198,-3.3452,-3.2879,-3.003,-2.9796,-2.8858,-2.5948,-2.5043,-2.3921,-2.1951,-2.0098,-1.8502,-1.7284,-1.5029,-1.4164,-1.5241,-1.4028,-1.4104,-1.6044,-1.5482,-1.5517,-1.6298,-1.6647,-1.6105,-1.4681,-1.5608,-1.5661,-1.4969,-1.5887,-1.6613,-2.6477,-2.9828,-3.3034,-3.3079,-3.6254,-3.9619,-4.0628,-3.9515,-3.8936,0.0,-4.1773,-4.1142,-3.9485,0.0,0.0,0.0,0.0,0.0,0.0,0.0,0.0,0.0,0.0,0.0,0.0,0.0,0.0,0.0,0.0,0.0,0.0,0.0,0.0,0.0,-3.5334,-3.4967,-3.4655,-3.4669,-3.4618,-3.4531,-3.5364,-3.5409,-3.4802,-3.5667,-3.5775,-3.5342,-3.5342,-3.5845,-3.6718,-3.7211,-3.7609,-3.7809,-3.673,-3.652,-3.669,-3.5691,-3.5262,-3.5176,-3.5281,-3.5254,-3.5193,-3.5355,-3.5392,-3.5419,-3.5489,-3.5514,-3.5501,-3.5496,-3.5476,-3.5483,-3.5509,-3.5515,-3.5509,-3.5495,-3.5496,-3.5397,-3.4959,-3.5106,-3.5077,-3.4244,-3.4459,-3.4417,-3.3266,-3.2974,-3.2119,-2.9856,-2.8965,-2.7676,-2.5264,-2.368,-2.2335,-2.1066,-1.9275,-1.7822,-1.6982,-1.5257,-1.4575,-1.5491,-1.4667,-1.4906,-1.6482,-1.6062,-1.5842,-1.5868,-1.6333,-1.5903,-1.4601,-1.5551,-1.5736,-1.524,-1.6219,-1.6941,-2.9652,-3.1091,-3.2867,-3.7872,-3.9451,-4.0589,-4.371,-4.2636,-4.0957,-4.0892,0.0,-4.0467,0.0,0.0,0.0,0.0,0.0,0.0,0.0,0.0,0.0,0.0,0.0,0.0,0.0,0.0,0.0,0.0,0.0,0.0,0.0,0.0,0.0,-3.5115,-3.5215,-3.5078,-3.4626,-3.4745,-3.4695,0.0,-3.5238,-3.5259,-3.463,-3.5443,-3.5824,-3.5893,-3.6044,-3.6617,-3.742,-3.7561,-3.8102,-3.8643,-3.7043,-3.69,-3.7405,-3.5779,-3.5151,-3.5101,-3.5168,-3.5143,-3.5136,-3.5319,-3.5371,-3.5385,-3.545,-3.5437,-3.5364,-3.5296,-3.5289,-3.5308,-3.5376,-3.5391,-3.5357,-3.5293,-3.5307,-3.5201,-3.4626,-3.4569,-3.4547,-3.4364,-3.4101,-3.3899,-3.3749,-3.2154,-3.0478,-2.9303,-2.7299,-2.5535,-2.4445,-2.2594,-2.1022,-2.0175,-1.8276,-1.6933,-1.6669,-1.5696,-1.5437,-1.6226,-1.5397,-1.5517,-1.683,-1.6994,-1.6751,-1.6009,-1.5939,-1.5507,-1.4637,-1.4697,-1.4919,-1.5303,-1.6035,-1.6784,-2.9786,-3.3987,-3.8236,-3.7844,-4.0582,-4.3333,-4.3156,-4.2333,-4.1572,-4.1452,-4.1227,0.0,0.0,0.0,0.0,0.0,0.0,0.0,0.0,0.0,0.0,0.0,0.0,0.0,0.0,0.0,0.0,0.0,0.0,0.0,0.0,0.0,0.0,-3.5105,-3.5179,-3.5092,-3.484,-3.486,-3.4838,0.0,-3.4936,-3.4886,-3.4696,-3.5454,-3.5523,-3.5138,-3.6451,-3.7146,-3.7504,-3.8831,-3.9464,-3.9494,-3.7937,-3.7433,-3.7405,-3.5779,-3.5151,-3.5092,-3.5119,-3.511,-3.5101,-3.5143,-3.519,-3.5231,-3.5193,-3.5218,-3.5231,-3.5155,-3.5226,-3.5285,-3.525,-3.5198,-3.5157,-3.5081,-3.5034,-3.4906,-3.4563,-3.4593,-3.4334,-3.3162,-3.321,-3.3222,-3.2459,-3.1456,-3.0219,-2.8646,-2.71,-2.5535,-2.3891,-2.2615,-2.118,-1.9442,-1.8123,-1.6714,-1.5001,-1.5008,-1.4935,-1.4545,-1.4768,-1.5517,-1.683,-1.6403,-1.6009,-1.5833,-1.5515,-1.5267,-1.5089,-1.5374,-1.5727,-1.6062,-1.6655,-1.7472,-3.1953,-3.5515,-3.8829,-4.0654,-4.2708,-4.3978,-4.2903,-4.1885,-4.1153,-4.1043,0.0,0.0,0.0,0.0,0.0,0.0,0.0,0.0,0.0,0.0,0.0,0.0,0.0,0.0,0.0,0.0,0.0,0.0,0.0,0.0,0.0,-3.5216,-3.5273,-3.5289,-3.5331,-3.5242,-3.5046,-3.5038,-3.4946,-3.477,-3.4711,-3.4612,-3.4475,-3.4944,-3.5169,-3.5281,-3.6156,-3.7065,-3.7991,-3.8869,-3.9291,-3.9252,-3.8061,-3.7338,-3.6796,-3.5593,-3.5075,-3.4965,-3.4992,-3.4974,-3.4965,-3.4992,-3.5038,-3.5046,-3.5001,-3.5001,-3.5,-3.4964,-3.5029,-3.5084,-3.4992,-3.501,-3.4991,-3.4773,-3.4744,-3.4685,-3.4398,-3.4314,-3.3952,-3.2848,-3.2862,-3.2921,-3.2408,-3.1214,-2.9652,-2.7641,-2.628,-2.4719,-2.2606,-2.1605,-2.0576,-1.9295,-1.84,-1.7488,-1.6499,-1.6497,-1.6275,-1.5708,-1.5791,-1.6271,-1.7235,-1.6149,-1.5515,-1.5515,-1.5665,-1.5453,-1.4919,-1.5303,-1.5789,-1.6298,-1.6793,-1.7584,-3.3493,-3.6546,-3.9308,-4.4176,-4.4836,-4.3994,-4.2743,-4.1554,-4.0621,0.0,0.0,0.0,0.0,0.0,0.0,0.0,0.0,0.0,0.0,0.0,0.0,0.0,0.0,0.0,0.0,0.0,0.0,0.0,0.0,0.0,-3.5324,-3.5187,-3.5239,-3.5486,-3.5493,-3.5424,-3.525,-3.5239,-3.5075,-3.4761,-3.4682,-3.4534,-3.4298,-3.4351,-3.4766,-3.5474,-3.5635,-3.6587,-3.8041,-3.8192,-3.8345,-3.8426,-3.7612,-3.6863,-3.6084,-3.5333,-3.4955,-3.4809,-3.485,-3.4849,-3.4809,-3.486,-3.4898,-3.4908,-3.4889,-3.4841,-3.4802,-3.4809,-3.4838,-3.4848,-3.4747,-3.482,-3.4812,-3.4453,-3.442,-3.4409,-3.4179,-3.3904,-3.3546,-3.2905,-3.2766,-3.272,-3.2546,-3.1006,-2.9056,-2.6845,-2.5411,-2.3772,-2.1514,-2.0652,-2.0012,-1.9371,-1.8816,-1.8444,-1.839,-1.8233,-1.7815,-1.7161,-1.705,-1.7107,-1.7364,-1.614,-1.5417,-1.5311,-1.57,-1.5524,-1.4713,-1.5098,-1.5683,-1.6411,-1.6897,-1.7687,-3.043,-3.8035,-4.5866,-4.577,-4.566,-4.4924,0.0,0.0,-4.1194,0.0,0.0,0.0,0.0,0.0,0.0,0.0,0.0,0.0,0.0,0.0,0.0,0.0,0.0,0.0,0.0,0.0,0.0,0.0,0.0,0.0,-3.5331,-3.5278,-3.5315,-3.5412,-3.5467,-3.5493,-3.5453,-3.5465,-3.5424,-3.5388,-3.5031,-3.4806,-3.4713,-3.4379,-3.4349,-3.4621,-3.5362,-3.585,-3.6126,-3.6888,-3.7246,-3.7258,-3.6435,-3.6132,-3.6014,-3.5211,-3.4879,-3.4798,-3.4809,-3.4809,-3.4798,-3.4809,-3.4859,-3.4889,-3.482,-3.4801,-3.4802,-3.4809,-3.4768,-3.4737,-3.4778,-3.4676,-3.4498,-3.4274,-3.4105,-3.3954,-3.3813,-3.3606,-3.3276,-3.2734,-3.2617,-3.236,-3.1462,-3.0233,-2.8827,-2.717,-2.5366,-2.3551,-2.1838,-2.1247,-2.0527,-1.9411,-1.9222,-1.8652,-1.7347,-1.774,-1.7356,-1.5615,-1.6705,-1.7003,-1.6079,-1.6438,-1.6368,-1.5727,-1.484,-1.4633,-1.5133,-1.5515,-1.6105,-1.6828,-1.7662,-1.8452,-3.1631,-3.8353,-4.4615,-4.5843,-4.5644,-4.48,-4.328,0.0,0.0,0.0,0.0,0.0,0.0,0.0,0.0,0.0,0.0,0.0,0.0,0.0,0.0,0.0,0.0,0.0,0.0,0.0,0.0,0.0,0.0,-3.6039,-3.5342,-3.5346,-3.5398,-3.5453,-3.5474,-3.546,-3.5398,-3.5383,-3.5335,-3.5215,-3.4817,-3.4642,-3.4689,-3.4351,-3.4233,-3.43,-3.4684,-3.533,-3.6099,-3.6192,-3.6489,-3.6805,-3.6167,-3.5692,-3.533,-3.4972,-3.478,-3.4687,-3.4687,-3.4687,-3.4687,-3.4687,-3.4718,-3.473,-3.4697,-3.4636,-3.4575,-3.4572,-3.455,-3.4517,-3.4484,-3.4367,-3.4208,-3.3934,-3.373,-3.356,-3.339,-3.3386,-3.3187,-3.2467,-3.1775,-3.1394,-3.1618,-3.0071,-2.8288,-2.6836,-2.4684,-2.2553,-2.0595,-2.0207,-1.9904,-1.9381,-1.9301,-1.9045,-1.8332,-1.8704,-1.8433,-1.7252,-1.79,-1.7906,-1.6915,-1.6673,-1.635,-1.5913,-1.5117,-1.5089,-1.5824,-1.5798,-1.6385,-1.7516,-1.7901,-1.8486,-3.1794,-3.6009,-3.9574,-4.3924,-4.4344,-4.3703,0.0,0.0,0.0,0.0,0.0,0.0,0.0,0.0,0.0,0.0,0.0,0.0,0.0,0.0,0.0,0.0,0.0,0.0,0.0,0.0,0.0,0.0,0.0,-3.6537,-3.5699,-3.5702,-3.5657,-3.55,-3.546,-3.5405,-3.5308,-3.5289,-3.517,-3.4954,-3.4626,-3.4498,-3.452,-3.4305,-3.4197,-3.4197,-3.4197,-3.4809,-3.5752,-3.5386,-3.5535,-3.5963,-3.5553,-3.5064,-3.4612,-3.4634,-3.4572,-3.4506,-3.4591,-3.4612,-3.4612,-3.4612,-3.4612,-3.4583,-3.455,-3.4484,-3.4386,-3.4386,-3.4328,-3.4233,-3.4173,-3.4018,-3.3821,-3.3541,-3.3408,-3.3317,-3.3178,-3.3084,-3.2839,-3.2217,-3.1176,-3.0684,-3.162,-2.9719,-2.7718,-2.6641,-2.4084,-2.1697,-1.9991,-1.949,-1.9301,-1.9301,-1.9301,-1.9341,-1.942,-1.9401,-1.9173,-1.8739,-1.8637,-1.8182,-1.727,-1.6724,-1.6332,-1.6079,-1.5781,-1.5824,-1.6167,-1.6105,-1.6733,-1.8003,-1.8172,-1.8586,-2.8415,-2.9599,-3.1214,-3.9257,-4.1086,-4.14,0.0,0.0,0.0,0.0,0.0,0.0,0.0,0.0,0.0,0.0,0.0,0.0,0.0,0.0,0.0,0.0,0.0,0.0,0.0,0.0,0.0,0.0,0.0,-3.8132,-3.6703,-3.6642,-3.6272,-3.5519,-3.5372,-3.5315,-3.5308,-3.5231,-3.5065,-3.4814,-3.473,-3.4551,-3.4311,-3.4239,-3.4197,-3.4197,-3.4197,-3.4161,-3.414,-3.416,-3.4148,-3.4122,-3.4033,-3.4022,-3.4061,-3.4185,-3.4221,-3.4257,-3.4517,-3.4612,-3.4612,-3.4612,-3.4612,-3.4591,-3.445,-3.4416,-3.4386,-3.4386,-3.4124,-3.3855,-3.3985,-3.3689,-3.3306,-3.3162,-3.322,-3.3309,-3.3292,-3.2599,-3.1995,-3.2086,-3.129,-3.0649,-3.0838,-2.8856,-2.7157,-2.6908,-2.3827,-2.1461,-2.1126,-2.004,-1.9301,-1.9301,-1.9301,-1.946,-1.9824,-1.9175,-1.8739,-1.8692,-1.7941,-1.7019,-1.5939,-1.6524,-1.6689,-1.6298,-1.662,-1.649,-1.5833,-1.6524,-1.7242,-1.8037,-1.8721,-1.9065,-2.6797,-2.8564,0.0,-3.5808,-3.9034,-4.1004,0.0,0.0,0.0,0.0,0.0,0.0,0.0,0.0,0.0,0.0,0.0,0.0,0.0,0.0,0.0,0.0,0.0,0.0,0.0,0.0,0.0,0.0,0.0,0.0,-3.7586,-3.7005,-3.6582,-3.6286,-3.5633,-3.5262,-3.5168,-3.5063,-3.4927,-3.473,-3.4586,-3.4428,-3.4281,-3.4136,-3.4124,-3.4228,-3.484,-3.5114,-3.5177,-3.5376,-3.5358,-3.5147,-3.4441,-3.4054,-3.3852,-3.3643,-3.3556,-3.3611,-3.4012,-3.4153,-3.4165,-3.4298,-3.4262,-3.4117,-3.3891,-3.3675,-3.3533,-3.3661,-3.3532,-3.3379,-3.3522,-3.3335,-3.3083,-3.2993,-3.283,-3.2682,-3.2498,-3.1822,-3.1096,-3.06,-2.9796,-2.9308,-2.9699,-2.8024,-2.652,-2.6108,-2.3897,-2.2004,-2.128,-2.043,-2.004,-2.0459,-1.9893,-1.9784,-2.0479,-2.0115,-1.9738,-1.9442,-1.8772,-1.7862,-1.6568,-1.6768,-1.6629,-1.6,-1.6594,-1.7113,-1.7535,-1.7594,-1.8003,-1.8721,-1.8965,-1.9108,-2.4495,-2.6072,0.0,0.0,0.0,-3.7181,0.0,0.0,0.0,0.0,0.0,0.0,0.0,0.0,0.0,0.0,0.0,0.0,0.0,0.0,0.0,0.0,0.0,0.0,0.0,0.0,0.0,0.0,0.0,0.0,-3.8366,-3.7574,-3.6856,-3.6213,-3.5599,-3.519,-3.5029,-3.4945,-3.4782,-3.4526,-3.4509,-3.4367,-3.4141,-3.4439,-3.455,-3.4562,-3.5776,-3.6002,-3.5581,-3.6054,-3.6047,-3.5639,-3.46,-3.4207,-3.4091,-3.3307,-3.3211,-3.3533,-3.3707,-3.3723,-3.3705,-3.3917,-3.3847,-3.3638,-3.3439,-3.3222,-3.3039,-3.3196,-3.3108,-3.3003,-3.3157,-3.3068,-3.2932,-3.2916,-3.2636,-3.2299,-3.1917,-3.1151,-3.0327,-2.9605,-2.8818,-2.8286,-2.8327,-2.7102,-2.5911,-2.5347,-2.3672,-2.2279,-2.1662,-2.0934,-2.0624,-2.1049,-2.0411,-2.0216,-2.0867,-2.0594,-2.0266,-1.9933,-1.9177,-1.8304,-1.7295,-1.7276,-1.7035,-1.6559,-1.7276,-1.7978,-1.8617,-1.8216,-1.8351,-1.9008,-1.9075,-1.9108,0.0,0.0,0.0,0.0,0.0,0.0,0.0,0.0,0.0,0.0,0.0,0.0,0.0,0.0,0.0,0.0,0.0,0.0,0.0,0.0,0.0,0.0,0.0,0.0,0.0,0.0,0.0,0.0,0.0,-3.9571,-3.9075,-3.8373,-3.7145,-3.5294,-3.5201,-3.5098,-3.4889,-3.4908,-3.467,-3.4246,-3.4566,-3.4419,-3.3925,-3.5169,-3.551,-3.5225,-3.6957,-3.6685,-3.5119,-3.6049,-3.6039,-3.5335,-3.4415,-3.4423,-3.4765,-3.3185,-3.3212,-3.3978,-3.36,-3.335,-3.3208,-3.3492,-3.3389,-3.3183,-3.3181,-3.3072,-3.2978,-3.3047,-3.2878,-3.2734,-3.2928,-3.2884,-3.2805,-3.2868,-3.2621,-3.2196,-3.1589,-3.0577,-2.9643,-2.9253,-2.8505,-2.7673,-2.6732,-2.6063,-2.5405,-2.4685,-2.3169,-2.2166,-2.2381,-2.1548,-2.0944,-2.0944,-2.075,-2.0683,-2.0867,-2.049,-2.0165,-2.0088,-1.8984,-1.8218,-1.8032,-1.8022,-1.8012,-1.8003,-1.8721,-1.8975,-1.8774,-1.8283,-1.8283,-1.8808,-1.9008,-1.9108,-2.0692,0.0,0.0,0.0,0.0,0.0,0.0,0.0,0.0,0.0,0.0,0.0,0.0,0.0,0.0,0.0,0.0,0.0,0.0,0.0,0.0,0.0,0.0,0.0,0.0,0.0,0.0,0.0,-4.0594,-3.9732,-3.994,-3.8657,-3.7391,-3.6259,-3.5509,-3.5073,-3.4964,-3.4773,-3.4838,-3.5144,-3.5132,-3.5348,-3.5781,-3.6228,-3.6276,-3.6086,-3.7063,-3.6921,-3.6077,-3.6919,-3.6818,-3.6058,-3.5363,-3.4619,-3.3847,-3.3194,-3.2737,-3.2459,-3.2705,-3.2743,-3.2743,-3.295,-3.287,-3.2663,-3.247,-3.2283,-3.2162,-3.2318,-3.2318,-3.2318,-3.2621,-3.2538,-3.2404,-3.2504,-3.1986,-3.1304,-3.0801,-3.0084,-2.9275,-2.849,-2.7877,-2.7163,-2.6196,-2.5114,-2.4278,-2.385,-2.2891,-2.2254,-2.2327,-2.1864,-2.1721,-2.2166,-2.1357,-2.0818,-2.0847,-2.0697,-2.0369,-1.9793,-1.9143,-1.8636,-1.8238,-1.8133,-1.7989,-1.7784,-1.8361,-1.8516,-1.8212,-1.8462,-1.8664,-1.8808,-1.9008,-1.9008,-2.0402,-2.0772,0.0,0.0,0.0,0.0,0.0,0.0,0.0,0.0,0.0,0.0,0.0,0.0,0.0,0.0,0.0,0.0,0.0,0.0,0.0,0.0,0.0,0.0,0.0,0.0,0.0,0.0,-4.019,-3.9486,-3.9586,-3.8707,-3.7646,-3.6426,-3.5807,-3.5467,-3.5371,-3.5214,-3.5424,-3.5957,-3.5906,-3.6133,-3.6594,-3.6922,-3.6897,-3.6644,-3.7296,-3.7223,-3.6681,-3.7086,-3.6941,-3.6461,-3.5762,-3.5233,-3.4716,-3.3862,-3.3263,-3.2884,-3.288,-3.2598,-3.23,-3.2537,-3.2487,-3.23,-3.2161,-3.1983,-3.1893,-3.209,-3.2266,-3.2404,-3.2472,-3.2352,-3.2231,-3.2127,-3.1585,-3.1044,-3.0734,-2.994,-2.8957,-2.7838,-2.7445,-2.6867,-2.5492,-2.4748,-2.4122,-2.3513,-2.3018,-2.2554,-2.2132,-2.1856,-2.1707,-2.1765,-2.1079,-2.0557,-2.0434,-2.0437,-2.0106,-1.9358,-1.9187,-1.888,-1.8404,-1.8404,-1.8286,-1.8032,-1.8337,-1.8381,-1.8144,-1.8516,-1.8707,-1.8808,-1.8908,-1.8908,-2.0547,-2.0402,-2.0595,0.0,0.0,0.0,-3.0018,-3.1384,0.0,0.0,0.0,0.0,0.0,0.0,0.0,0.0,0.0,0.0,0.0,0.0,0.0,0.0,0.0,0.0,0.0,0.0,-3.9861,-4.0454,-3.9696,-3.9064,-3.8761,-3.8654,-3.7886,-3.633,-3.6214,-3.6096,-3.591,-3.5961,-3.6234,-3.6773,-3.6799,-3.6887,-3.6959,-3.7503,-3.7477,-3.7043,-3.7536,-3.745,-3.6948,-3.6745,-3.6664,-3.6615,-3.5799,-3.5886,-3.6229,-3.4675,-3.4104,-3.4039,-3.3435,-3.263,-3.193,-3.2196,-3.2161,-3.2019,-3.1966,-3.1893,-3.1876,-3.209,-3.2387,-3.259,-3.2301,-3.2179,-3.2074,-3.1714,-3.13,-3.0965,-3.0928,-2.9978,-2.8732,-2.7369,-2.7155,-2.665,-2.4827,-2.4641,-2.4399,-2.3397,-2.3142,-2.2728,-2.1818,-2.1538,-2.1162,-2.0564,-2.0309,-2.0103,-1.9815,-1.9851,-1.9599,-1.8897,-1.9108,-1.9013,-1.8572,-1.8677,-1.8691,-1.8482,-1.8438,-1.8371,-1.8269,-1.8414,-1.8583,-1.8741,-1.8741,-1.8741,0.0,0.0,0.0,0.0,0.0,0.0,0.0,-2.3827,0.0,0.0,0.0,0.0,0.0,0.0,0.0,0.0,0.0,0.0,0.0,0.0,0.0,0.0,0.0,0.0,0.0,0.0,-3.9686,-3.9858,-3.9514,-3.9388,-3.9635,-3.8931,-3.8171,-3.7402,-3.6974,-3.6512,-3.5981,-3.63,-3.6888,-3.7724,-3.7692,-3.7986,-3.8549,-3.8618,-3.83,-3.7693,-3.7506,-3.7151,-3.6725,-3.6485,-3.6502,-3.6615,-3.5814,-3.5183,-3.4584,-3.3723,-3.2975,-3.2346,-3.2169,-3.2014,-3.1858,-3.16,-3.156,-3.1542,-3.1162,-3.122,-3.1449,-3.1654,-3.1784,-3.182,-3.1749,-3.1545,-3.13,-3.124,-3.0703,-3.0172,-2.9946,-2.9566,-2.8842,-2.7369,-2.686,-2.6258,-2.4956,-2.4185,-2.3585,-2.2977,-2.2071,-2.1363,-2.1161,-2.0898,-2.0663,-2.0498,-2.0309,-1.9913,-1.9178,-1.9604,-1.9492,-1.8486,-1.9104,-1.9322,-1.8839,-1.8715,-1.8557,-1.8347,-1.8022,-1.792,-1.8076,-1.8245,-1.8371,-1.8405,-1.8516,-1.8516,0.0,0.0,0.0,-2.0402,0.0,0.0,0.0,0.0,0.0,0.0,0.0,0.0,0.0,0.0,0.0,0.0,0.0,0.0,0.0,0.0,0.0,0.0,0.0,0.0,0.0,0.0,-3.8869,-3.8902,-3.8932,-3.9077,-3.9332,-3.8914,-3.8395,-3.7872,-3.7587,-3.728,-3.6904,-3.7093,-3.7652,-3.8552,-3.8382,-3.8543,-3.8933,-3.8606,-3.818,-3.7685,-3.7246,-3.6876,-3.6564,-3.6381,-3.6381,-3.6468,-3.6209,-3.5826,-3.5407,-3.5182,-3.4535,-3.3707,-3.308,-3.2626,-3.2228,-3.1414,-3.1218,-3.1257,-3.0985,-3.11,-3.1315,-3.1411,-3.1543,-3.1601,-3.1413,-3.124,-3.1004,-3.0638,-3.0279,-2.9908,-2.9538,-2.9159,-2.863,-2.7775,-2.7004,-2.6136,-2.5005,-2.4487,-2.4021,-2.3397,-2.2657,-2.1857,-2.1018,-2.0717,-2.0261,-1.9477,-1.9387,-1.9234,-1.8936,-1.9195,-1.9223,-1.882,-1.9072,-1.9106,-1.8738,-1.8567,-1.836,-1.8144,-1.7964,-1.7896,-1.8008,-1.8371,-1.8472,-1.8303,-1.8381,-1.8529,0.0,0.0,0.0,0.0,0.0,-2.2512,0.0,0.0,0.0,0.0,0.0,0.0,0.0,0.0,0.0,0.0,0.0,0.0,0.0,0.0,0.0,0.0,0.0,0.0,0.0,0.0,-3.7495,-3.8065,-3.7677,-3.7824,-3.8704,-3.8789,-3.8544,-3.7996,-3.8126,-3.8106,-3.7883,-3.8005,-3.8427,-3.9142,-3.8848,-3.877,-3.881,-3.8198,-3.7721,-3.7394,-3.6952,-3.6667,-3.6444,-3.6343,-3.6301,-3.6305,-3.6429,-3.6475,-3.6461,-3.6503,-3.6068,-3.5322,-3.4155,-3.3384,-3.2706,-3.1455,-3.1064,-3.1027,-3.0868,-3.1024,-3.1237,-3.1218,-3.1336,-3.1395,-3.1064,-3.1004,-3.0845,-3.0215,-2.9957,-2.9722,-2.9312,-2.8764,-2.8262,-2.7993,-2.7251,-2.634,-2.531,-2.5091,-2.4879,-2.4205,-2.3604,-2.2684,-2.133,-2.0781,-2.0022,-1.8768,-1.8682,-1.8814,-1.9013,-1.8997,-1.9085,-1.9304,-1.9098,-1.8862,-1.8607,-1.8326,-1.81,-1.794,-1.8032,-1.8032,-1.794,-1.864,-1.8798,-1.8428,-1.8687,-1.91,0.0,0.0,0.0,0.0,-2.163,0.0,0.0,0.0,0.0,0.0,0.0,0.0,0.0,0.0,0.0,0.0,0.0,0.0,0.0,0.0,0.0,0.0,0.0,0.0,0.0,0.0,0.0,-3.7917,-3.5048,-3.4792,-3.8422,-3.8744,-3.8534,-3.7923,-3.8603,-3.8713,-3.8159,-3.8734,-3.9112,-3.9272,-3.8952,-3.873,-3.8609,-3.7945,-3.7432,-3.7048,-3.6806,-3.6564,-3.6322,-3.6301,-3.6301,-3.6253,-3.5821,-3.564,-3.5553,-3.4992,-3.4732,-3.4503,-3.3604,-3.3292,-3.31,-3.1724,-3.1106,-3.0834,-3.0339,-3.0584,-3.1021,-3.0955,-3.0814,-3.0634,-3.0572,-3.0654,-3.0692,-3.0422,-2.9799,-2.9232,-2.8997,-2.8286,-2.761,-2.7346,-2.731,-2.7083,-2.6427,-2.5785,-2.5338,-2.5317,-2.386,-2.2716,-2.2513,-2.1068,-1.9981,-1.9836,-1.9591,-1.9479,-1.9528,-1.9374,-1.9265,-1.9287,-1.9275,-1.9079,-1.8617,-1.8075,-1.7774,-1.774,-1.8216,-1.8206,-1.775,-1.9044,-1.9408,-1.8944,-2.003,-2.0608,0.0,0.0,0.0,0.0,0.0,0.0,-2.4032,0.0,-2.3918,0.0,0.0,0.0,0.0,0.0,0.0,0.0,0.0,0.0,0.0,0.0,0.0,0.0,0.0,0.0,0.0,0.0,0.0,0.0,0.0,-3.404,-3.8159,-3.8277,-3.829,-3.8418,-3.8564,-3.8582,-3.8497,-3.8604,-3.874,-3.8822,-3.8423,-3.8147,-3.8012,-3.7649,-3.7319,-3.6987,-3.6829,-3.6667,-3.6523,-3.6444,-3.6364,-3.6287,-3.6139,-3.6119,-3.6182,-3.6011,-3.5947,-3.5733,-3.4225,-3.3751,-3.3504,-3.1708,-3.0965,-3.0744,-3.0563,-3.0825,-3.114,-3.0995,-3.0818,-3.0638,-3.0531,-3.0401,-3.021,-2.9864,-2.9611,-2.9319,-2.8637,-2.8238,-2.787,-2.7412,-2.7089,-2.6886,-2.6904,-2.643,-2.5922,-2.562,-2.4238,-2.3099,-2.2683,-2.1306,-2.0141,-1.9646,-1.9587,-1.9634,-1.976,-1.9695,-1.9756,-2.0048,-1.9785,-1.941,-1.8865,-1.8365,-1.8193,-1.8337,-1.8442,-1.8757,-1.9333,-2.0343,-2.0971,-2.1189,-2.102,-2.1292,-2.401,0.0,0.0,0.0,0.0,0.0,0.0,0.0,0.0,0.0,0.0,0.0,0.0,0.0,0.0,0.0,0.0,0.0,0.0,0.0,0.0,0.0,0.0,0.0,0.0,0.0,0.0,0.0,0.0,0.0,-3.7795,-3.7999,-3.8167,-3.8655,-3.852,-3.8523,-3.864,-3.8483,-3.8399,-3.8426,-3.7982,-3.7703,-3.7578,-3.7394,-3.7166,-3.6948,-3.6849,-3.6748,-3.6702,-3.6602,-3.6482,-3.6381,-3.6502,-3.6623,-3.6705,-3.6661,-3.6632,-3.6385,-3.4579,-3.3748,-3.3231,-3.152,-3.1001,-3.0962,-3.0683,-3.0905,-3.1162,-3.0781,-3.0601,-3.0497,-3.0363,-3.0151,-2.9908,-2.9515,-2.9403,-2.9152,-2.8398,-2.8091,-2.782,-2.7386,-2.6959,-2.6802,-2.7144,-2.6806,-2.6393,-2.6061,-2.5042,-2.4051,-2.326,-2.206,-2.0948,-2.0068,-2.0038,-2.0143,-2.029,-2.031,-2.0511,-2.0916,-2.0607,-2.0178,-1.9757,-1.9198,-1.9042,-1.9498,-1.9318,-1.9749,-2.0842,-2.1713,-2.2451,-2.303,-2.2329,-2.2433,0.0,0.0,0.0,-2.2631,0.0,0.0,0.0,0.0,-2.3852,0.0,0.0,0.0,0.0,0.0,0.0,0.0,0.0,0.0,0.0,0.0,0.0,0.0,0.0,0.0,0.0,0.0,0.0,0.0,0.0,0.0,-3.7308,-3.8153,-3.8368,-3.8323,-3.8667,-3.8758,-3.851,-3.8566,-3.8502,-3.8291,-3.7825,-3.7596,-3.7596,-3.7186,-3.6948,-3.6809,-3.6809,-3.6748,-3.6702,-3.6702,-3.6623,-3.6502,-3.6643,-3.6702,-3.6635,-3.5985,-3.5745,-3.5537,-3.4037,-3.2842,-3.1855,-3.1147,-3.134,-3.1638,-3.0398,-3.0522,-3.0945,-3.0075,-2.9853,-2.9815,-2.9815,-2.9913,-2.9973,-2.9832,-2.9157,-2.8488,-2.8312,-2.7635,-2.7029,-2.7003,-2.7093,-2.7181,-2.7211,-2.6826,-2.6618,-2.6994,-2.6533,-2.5779,-2.474,-2.3676,-2.2678,-2.1796,-2.1494,-2.1352,-2.1339,-2.1339,-2.1509,-2.1839,-2.1726,-2.1632,-2.1626,-2.06,-2.0424,-2.1196,-2.1083,-2.1232,-2.1649,-2.2905,-2.3568,-2.368,-2.4286,-2.4612,0.0,0.0,-3.5651,-2.8318,0.0,0.0,0.0,0.0,0.0,0.0,0.0,0.0,0.0,0.0,0.0,0.0,0.0,0.0,0.0,0.0,0.0,0.0,0.0,0.0,0.0,0.0,0.0,0.0,0.0,0.0,0.0,-3.7757,-3.7792,-3.8087,-3.7896,-3.7861,-3.8051,-3.7878,-3.7773,-3.7703,-3.7357,-3.7206,-3.7206,-3.7068,-3.6987,-3.6928,-3.6928,-3.6869,-3.6768,-3.6768,-3.6725,-3.6643,-3.6681,-3.6702,-3.6687,-3.6509,-3.6484,-3.6315,-3.4679,-3.3482,-3.2513,-3.1375,-3.1145,-3.1181,-3.0539,-3.0567,-3.0754,-3.0377,-3.0145,-2.9978,-2.9837,-2.9738,-2.957,-2.9159,-2.9044,-2.8795,-2.8018,-2.772,-2.7484,-2.7081,-2.7119,-2.7207,-2.7207,-2.7151,-2.7145,-2.7286,-2.6521,-2.5794,-2.5452,-2.3903,-2.2717,-2.242,-2.1789,-2.1387,-2.1387,-2.1387,-2.1662,-2.2327,-2.2144,-2.207,-2.2175,-2.1287,-2.118,-2.1943,-2.1562,-2.2091,-2.3559,-2.4082,-2.4555,-2.5021,-2.5356,-2.5342,-3.8442,-4.0177,0.0,-3.3122,-3.3783,0.0,-2.6732,0.0,0.0,0.0,0.0,0.0,0.0,0.0,0.0,0.0,0.0,0.0,0.0,0.0,0.0,0.0,0.0,0.0,0.0,0.0,0.0,0.0,0.0,0.0,0.0,0.0,-3.7649,-3.795,-3.7559,-3.7431,-3.7631,-3.7449,-3.7337,-3.7261,-3.7087,-3.7007,-3.7007,-3.7007,-3.7007,-3.7007,-3.7007,-3.6948,-3.6869,-3.6869,-3.6809,-3.6745,-3.6745,-3.6745,-3.671,-3.6492,-3.6254,-3.5852,-3.4584,-3.3751,-3.3056,-3.2029,-3.1489,-3.1186,-3.0794,-3.0554,-3.0323,-3.0059,-2.9886,-2.9695,-2.9572,-2.9357,-2.9075,-2.8826,-2.8708,-2.847,-2.7845,-2.7695,-2.7554,-2.7214,-2.7251,-2.7343,-2.7331,-2.7403,-2.7424,-2.734,-2.6808,-2.6194,-2.5506,-2.4266,-2.3235,-2.257,-2.2014,-2.1666,-2.1666,-2.179,-2.2071,-2.2587,-2.2628,-2.274,-2.2949,-2.2173,-2.2318,-2.3587,-2.271,-2.3245,-2.5246,-2.5116,-2.53,-2.5784,-2.5811,-2.5647]},{"header":{"parameterUnit":"m.s-1","parameterCategory":1,"la1":30.6,"la2":29.2853,"lo1":-89.7004,"lo2":-87.6739,"dx":0.0162,"dy":0.0183,"nx":112,"ny":82,"refTime":"2022-12-09T06:00:00:Z","depth":0,"parameterNumber":3,"parameterNumberName":"V-component_of_WINDS"},"data":[0.0,0.0,0.0,0.0,0.0,0.0,0.0,0.0,0.0,0.0,0.0,0.0,0.0,0.0,0.0,0.0,0.0,0.0,0.0,0.0,0.0,0.0,0.0,0.0,0.0,0.0,0.0,0.0,0.0,0.0,0.0,0.0,0.0,0.0,0.0,0.0,0.0,0.0,0.0,0.0,0.0,0.0,0.0,0.0,0.0,0.0,0.0,0.0,0.0,0.0,0.0,0.0,0.0,0.0,0.0,0.0,0.0,0.0,0.0,0.0,0.0,0.0,0.0,0.0,0.0,0.0,0.0,0.0,0.0,0.0,0.0,0.0,0.0,0.0,0.0,0.0,0.0,0.0,0.0,0.0,0.0,0.0,0.0,0.0,0.0,0.0,0.0,0.0,0.0,0.0,0.0,-1.1471,-1.2421,-1.3406,-1.4435,-1.511,-1.5801,-1.648,0.0,0.0,0.0,0.0,0.0,0.0,0.0,0.0,0.0,0.0,0.0,0.0,0.0,0.0,0.0,0.0,0.0,0.0,0.0,0.0,0.0,0.0,0.0,0.0,0.0,0.0,0.0,0.0,0.0,0.0,0.0,0.0,0.0,0.0,0.0,0.0,0.0,0.0,0.0,0.0,0.0,0.0,0.0,0.0,0.0,0.0,0.0,0.0,0.0,0.0,0.0,0.0,0.0,0.0,0.0,0.0,0.0,0.0,0.0,0.0,0.0,0.0,0.0,0.0,0.0,0.0,0.0,0.0,0.0,0.0,0.0,0.0,0.0,0.0,0.0,0.0,0.0,0.0,0.0,0.0,0.0,0.0,0.0,0.0,0.0,0.0,0.0,0.0,0.0,0.0,0.0,0.0,0.0,0.0,0.0,0.0,0.0,0.0,0.0,0.0,0.0,0.0,0.0,0.0,-1.0814,-1.1828,-1.2566,-1.3437,-1.4488,-1.5132,-1.5707,-1.6241,0.0,0.0,0.0,0.0,0.0,0.0,0.0,0.0,0.0,0.0,0.0,0.0,0.0,0.0,0.0,0.0,0.0,0.0,0.0,0.0,0.0,0.0,0.0,0.0,0.0,0.0,0.0,0.0,0.0,0.0,0.0,0.0,0.0,0.0,0.0,0.0,0.0,0.0,0.0,0.0,0.0,0.0,0.0,0.0,0.0,0.0,0.0,0.0,0.0,0.0,0.0,0.0,0.0,0.0,0.0,0.0,0.0,0.0,0.0,0.0,0.0,0.0,0.0,0.0,0.0,0.0,0.0,0.0,0.0,0.0,0.0,0.0,0.0,0.0,0.0,0.0,0.0,0.0,0.0,0.0,0.0,0.0,0.0,0.0,0.0,0.0,0.0,0.0,0.0,0.0,0.0,0.0,0.0,0.0,0.0,0.0,0.0,0.0,0.0,0.0,0.0,0.0,0.0,-1.0863,-1.147,-1.2334,-1.3208,-1.3987,-1.4715,-1.5269,-1.577,-1.6173,-1.5591,0.0,0.0,0.0,0.0,0.0,0.0,0.0,0.0,0.0,0.0,0.0,0.0,0.0,0.0,0.0,0.0,0.0,0.0,0.0,0.0,0.0,0.0,0.0,0.0,0.0,0.0,0.0,0.0,0.0,0.0,0.0,0.0,0.0,0.0,0.0,0.0,0.0,0.0,0.0,0.0,0.0,0.0,0.0,0.0,0.0,0.0,0.0,0.0,0.0,0.0,0.0,0.0,0.0,0.0,0.0,0.0,0.0,0.0,0.0,0.0,0.0,0.0,0.0,0.0,0.0,0.0,0.0,0.0,0.0,0.0,0.0,0.0,0.0,0.0,0.0,0.0,0.0,0.0,0.0,0.0,0.0,0.0,0.0,0.0,0.0,0.0,0.0,0.0,0.0,0.0,0.0,0.0,0.0,0.0,0.0,0.0,0.0,0.0,0.0,0.0,0.0,0.0,-1.1108,-1.1902,-1.2549,-1.358,-1.4457,-1.5038,-1.5451,-1.5832,-1.6116,-1.5608,0.0,0.0,0.0,0.0,0.0,0.0,0.0,0.0,0.0,0.0,0.0,0.0,0.0,0.0,0.0,0.0,0.0,0.0,0.0,0.0,0.0,0.0,0.0,0.0,0.0,0.0,0.0,0.0,0.0,0.0,0.0,0.0,0.0,0.0,0.0,0.0,0.0,0.0,0.0,0.0,0.0,0.0,0.0,0.0,0.0,0.0,0.0,0.0,0.0,0.0,0.0,0.0,0.0,0.0,0.0,0.0,0.0,0.0,0.0,0.0,0.0,0.0,0.0,0.0,0.0,0.0,0.0,0.0,0.0,0.0,0.0,0.0,0.0,0.0,0.0,0.0,0.0,0.0,0.0,0.0,0.0,0.0,0.0,0.0,0.0,0.0,0.0,0.0,0.0,0.0,0.0,0.0,0.0,0.0,0.0,0.0,0.0,0.0,0.0,0.0,0.0,0.0,-1.082,-1.1642,-1.2012,-1.323,-1.4464,-1.5547,-1.567,-1.5801,-1.6,-1.5977,0.0,0.0,0.0,0.0,0.0,0.0,0.0,0.0,0.0,0.0,0.0,0.0,0.0,0.0,0.0,0.0,0.0,0.0,0.0,0.0,0.0,0.0,0.0,0.0,0.0,0.0,0.0,0.0,0.0,0.0,0.0,0.0,0.0,0.0,0.0,0.0,0.0,0.0,0.0,0.0,0.0,0.0,0.0,0.0,0.0,0.0,0.0,0.0,0.0,0.0,0.0,0.0,0.0,0.0,0.0,0.0,0.0,0.0,0.0,0.0,0.0,0.0,0.0,0.0,0.0,0.0,0.0,0.0,0.0,0.0,0.0,0.0,0.0,0.0,0.0,0.0,0.0,0.0,0.0,0.0,0.0,0.0,0.0,0.0,0.0,0.0,0.0,0.0,0.0,0.0,0.0,0.0,0.0,0.0,0.0,0.0,0.0,0.0,0.0,0.0,0.0,0.0,-1.222,-1.297,0.0,-1.401,-1.4575,-1.5276,-1.5996,-1.6159,-1.5672,0.0,0.0,0.0,0.0,0.0,0.0,0.0,0.0,0.0,0.0,0.0,0.0,0.0,0.0,0.0,0.0,0.0,0.0,0.0,0.0,0.0,0.0,0.0,0.0,0.0,0.0,0.0,0.0,0.0,0.0,0.0,0.0,0.0,0.0,0.0,0.0,0.0,0.0,0.0,0.0,0.0,0.0,0.0,0.0,0.0,0.0,0.0,0.0,0.0,0.0,0.0,0.0,0.0,0.0,0.0,0.0,0.0,0.0,0.0,0.0,0.0,0.0,0.0,0.0,0.0,0.0,0.0,0.0,0.0,0.0,0.0,0.0,0.0,0.0,0.0,0.0,0.0,0.0,0.0,0.0,0.0,0.0,0.0,0.0,0.0,0.0,0.0,0.0,0.0,0.0,0.0,0.0,0.0,0.0,0.0,0.0,0.0,0.0,0.0,0.0,0.0,0.0,-1.1872,-1.2843,-1.3679,0.0,-1.4357,-1.4717,-1.5249,-1.6009,-1.6122,-1.5356,0.0,0.0,0.0,0.0,0.0,0.0,0.0,0.0,0.0,0.0,0.0,0.0,0.0,0.0,0.0,0.0,0.0,0.0,0.0,0.0,0.0,0.0,0.0,0.0,0.0,0.0,0.0,0.0,0.0,0.0,0.0,0.0,0.0,0.0,0.0,0.0,0.0,0.0,0.0,0.0,0.0,0.0,0.0,0.0,0.0,0.0,0.0,0.0,0.0,0.0,0.0,0.0,0.0,0.0,0.0,0.0,0.0,0.0,0.0,0.0,0.0,0.0,0.0,0.0,0.0,0.0,0.0,0.0,0.0,0.0,0.0,0.0,0.0,0.0,0.0,0.0,0.0,0.0,0.0,0.0,0.0,0.0,0.0,0.0,0.0,0.0,0.0,0.0,0.0,0.0,0.0,0.0,0.0,0.0,0.0,0.0,0.0,0.0,0.0,0.0,0.0,0.0,-1.0721,-1.2319,-1.3511,-1.3511,-1.41,-1.4827,-1.5606,-1.5689,-1.5529,0.0,0.0,0.0,0.0,0.0,0.0,0.0,0.0,0.0,0.0,0.0,0.0,0.0,0.0,0.0,0.0,0.0,0.0,0.0,0.0,0.0,0.0,0.0,0.0,0.0,0.0,0.0,0.0,0.0,0.0,0.0,0.0,0.0,0.0,0.0,0.0,0.0,0.0,0.0,0.0,0.0,0.0,0.0,0.0,0.0,0.0,0.0,0.0,0.0,0.0,0.0,0.0,0.0,0.0,0.0,0.0,0.0,0.0,0.0,0.0,0.0,0.0,0.0,0.0,0.0,0.0,0.0,0.0,0.0,0.0,0.0,0.0,0.0,0.0,0.0,0.0,0.0,0.0,0.0,0.0,0.0,0.0,0.0,0.0,0.0,0.0,0.0,0.0,0.0,0.0,0.0,0.0,0.0,0.0,0.0,0.0,0.0,0.0,0.0,0.0,0.0,0.0,0.0,-1.1798,-1.32,-1.4198,-1.4198,-1.4387,-1.4607,-1.4836,-1.5839,-1.5838,-1.4353,0.0,0.0,0.0,0.0,0.0,0.0,0.0,0.0,0.0,0.0,0.0,0.0,0.0,0.0,0.0,0.0,0.0,0.0,0.0,0.0,0.0,0.0,0.0,0.0,0.0,0.0,0.0,0.0,0.0,0.0,0.0,0.0,0.0,0.0,0.0,0.0,0.0,0.0,0.0,0.0,0.0,0.0,0.0,0.0,0.0,0.0,0.0,0.0,0.0,0.0,0.0,0.0,0.0,0.0,0.0,0.0,0.0,0.0,0.0,0.0,0.0,0.0,0.0,0.0,0.0,0.0,0.0,0.0,0.0,0.0,0.0,0.0,0.0,0.0,0.0,0.0,0.0,0.0,0.0,0.0,0.0,0.0,0.0,0.0,0.0,0.0,0.0,0.0,0.0,0.0,0.0,0.0,0.0,0.0,0.0,0.0,0.0,0.0,0.0,0.0,0.0,0.0,-1.1962,-1.343,-1.4515,-1.4515,-1.4515,-1.4549,-1.4735,-1.6009,-1.6106,-1.4447,0.0,0.0,0.0,0.0,0.0,0.0,0.0,0.0,0.0,0.0,0.0,0.0,0.0,0.0,0.0,0.0,0.0,0.0,0.0,0.0,0.0,0.0,0.0,0.0,0.0,0.0,0.0,0.0,0.0,0.0,0.0,0.0,0.0,0.0,0.0,0.0,0.0,0.0,0.0,0.0,0.0,0.0,0.0,0.0,0.0,0.0,0.0,0.0,0.0,0.0,0.0,0.0,0.0,0.0,0.0,0.0,0.0,0.0,0.0,0.0,0.0,0.0,0.0,0.0,0.0,0.0,0.0,0.0,0.0,0.0,0.0,0.0,0.0,0.0,0.0,0.0,0.0,0.0,0.0,0.0,0.0,0.0,0.0,0.0,0.0,0.0,0.0,0.0,0.0,0.0,0.0,0.0,0.0,0.0,0.0,0.0,0.0,0.0,0.0,0.0,0.0,0.0,-1.1574,-1.3264,-1.4494,-1.4531,-1.4531,-1.4677,-1.5034,-1.6097,-1.6243,-1.5137,0.0,0.0,0.0,0.0,0.0,0.0,0.0,0.0,0.0,0.0,0.0,0.0,0.0,0.0,0.0,0.0,0.0,0.0,0.0,0.0,0.0,0.0,0.0,0.0,0.0,0.0,0.0,0.0,0.0,0.0,0.0,0.0,0.0,0.0,0.0,0.0,0.0,0.0,0.0,0.0,0.0,0.0,0.0,0.0,0.0,0.0,0.0,0.0,0.0,0.0,0.0,0.0,0.0,0.0,0.0,0.0,0.0,0.0,0.0,0.0,-0.4797,0.0,0.0,0.0,0.0,0.0,0.0,0.0,0.0,0.0,0.0,0.0,0.0,0.0,0.0,0.0,0.0,0.0,0.0,0.0,0.0,0.0,0.0,0.0,0.0,0.0,0.0,0.0,0.0,0.0,0.0,0.0,0.0,0.0,0.0,0.0,0.0,0.0,0.0,0.0,0.0,0.0,-1.2241,-1.3577,-1.4565,-1.4713,-1.474,-1.4776,-1.4857,-1.5688,-1.604,-1.5738,-1.6609,0.0,0.0,0.0,0.0,0.0,0.0,0.0,0.0,0.0,0.0,0.0,0.0,0.0,0.0,0.0,0.0,0.0,0.0,0.0,0.0,0.0,0.0,0.0,0.0,0.0,0.0,0.0,0.0,0.0,0.0,0.0,0.0,0.0,0.0,0.0,0.0,0.0,0.0,0.0,0.0,0.0,0.0,0.0,0.0,0.0,0.0,0.0,0.0,0.0,0.0,0.0,0.0,0.0,0.0,0.0,0.0,0.0,0.0,0.0,0.0,-0.4977,0.0,0.0,0.0,0.0,0.0,0.0,0.0,0.0,0.0,0.0,0.0,0.0,0.0,0.0,0.0,0.0,0.0,0.0,0.0,0.0,0.0,0.0,0.0,0.0,0.0,0.0,0.0,0.0,0.0,0.0,0.0,0.0,0.0,0.0,0.0,0.0,0.0,0.0,0.0,0.0,-1.2341,-1.3349,-1.4212,-1.4728,-1.4795,-1.4845,-1.4939,-1.5744,-1.6189,-1.6107,-1.7026,0.0,0.0,0.0,0.0,0.0,0.0,0.0,0.0,0.0,0.0,0.0,0.0,0.0,0.0,0.0,0.0,0.0,0.0,0.0,0.0,0.0,0.0,0.0,0.0,0.0,0.0,0.0,0.0,0.0,0.0,0.0,0.0,0.0,0.0,0.0,0.0,0.0,0.0,0.0,0.0,0.0,0.0,0.0,0.0,0.0,0.0,0.0,0.0,0.0,0.0,0.0,0.0,0.0,-0.5727,-0.5705,-0.5651,-0.6154,-0.636,-0.6341,-0.6703,-0.6325,-0.551,-0.5559,0.0,0.0,0.0,0.0,0.0,0.0,0.0,0.0,0.0,0.0,0.0,0.0,0.0,0.0,0.0,0.0,0.0,0.0,0.0,0.0,0.0,0.0,0.0,0.0,-1.1948,-1.2065,0.0,0.0,0.0,0.0,0.0,0.0,0.0,0.0,0.0,0.0,0.0,0.0,-1.2129,-1.2943,-1.3778,-1.4533,-1.4765,-1.4912,-1.5071,-1.5928,-1.6421,-1.6427,-1.7448,-1.803,0.0,0.0,0.0,0.0,0.0,0.0,0.0,0.0,0.0,0.0,0.0,0.0,0.0,0.0,0.0,0.0,0.0,0.0,0.0,0.0,0.0,0.0,0.0,0.0,0.0,0.0,0.0,0.0,0.0,0.0,0.0,0.0,-0.3638,-0.2306,0.0,0.0,0.0,0.0,0.0,0.0,0.0,0.0,0.0,0.0,0.0,0.0,0.0,-0.3846,-0.4341,-0.4665,-0.5026,-0.537,-0.6836,-0.7383,-0.7075,-0.8454,-0.898,-0.8832,-0.8718,0.0,-0.6199,-0.5477,0.0,0.0,0.0,0.0,0.0,0.0,0.0,0.0,0.0,0.0,0.0,0.0,0.0,0.0,0.0,0.0,0.0,0.0,0.0,0.0,0.0,0.0,-0.9422,-1.2339,-1.2878,-1.2639,0.0,-1.2103,-1.1773,-1.1228,-1.1341,0.0,0.0,0.0,0.0,0.0,0.0,0.0,-1.1731,-1.2796,-1.3626,-1.3916,-1.46,-1.5077,-1.5098,-1.5758,-1.6379,-1.6878,-1.7968,-1.8379,-1.7865,-1.8711,0.0,0.0,0.0,0.0,0.0,0.0,0.0,0.0,0.0,0.0,0.0,0.0,0.0,0.0,0.0,0.0,0.0,0.0,0.0,0.0,0.0,0.0,0.0,0.0,0.0,0.0,0.0,0.0,0.0,-0.2743,-0.2736,-0.1602,-0.1891,-0.1851,0.0,0.0,0.0,0.0,0.0,0.0,0.0,0.0,0.0,-0.2942,-0.4161,-0.4937,-0.5199,-0.6133,-0.6865,-0.7384,-0.8305,-0.8768,-0.8768,-0.9496,-0.9697,-0.9455,-0.9153,-0.8561,-0.7803,-0.6933,-0.6408,-0.6192,0.0,0.0,0.0,0.0,-0.7709,-0.7684,-0.8049,-0.8215,0.0,-0.8083,0.0,0.0,0.0,0.0,0.0,0.0,0.0,0.0,0.0,0.0,-1.1041,-1.3354,-1.3494,-1.3046,-1.2969,-1.2762,-1.2402,0.0,-1.1676,-1.174,-1.1535,0.0,0.0,0.0,0.0,-1.2227,-1.305,-1.3348,-1.3764,-1.4461,-1.4871,-1.5217,-1.5462,-1.5566,-1.5854,-1.6468,-1.7103,-1.7636,-1.8023,-1.8022,-1.7601,0.0,0.0,0.0,0.0,0.0,0.0,0.0,0.0,0.0,0.0,0.0,0.0,0.0,0.0,0.0,0.0,0.0,0.0,0.0,0.0,0.0,0.0,0.0,0.0,0.0,0.0,0.0,0.0,-0.2233,-0.2469,-0.1234,-0.1793,-0.1961,0.0,0.0,0.0,0.0,0.0,0.0,-0.2529,-0.3435,-0.3885,-0.378,-0.5109,-0.5923,-0.6093,-0.7269,-0.8156,-0.8699,-0.8937,-0.9242,-0.9582,-0.9638,-0.9637,-0.9593,-0.9244,-0.9034,-0.8936,-0.8011,-0.7371,-0.7015,-0.7598,-0.7731,-0.7698,-0.8609,-0.8679,-0.8386,-0.8979,-0.9421,-0.9764,-0.9704,0.0,-1.0221,-0.9955,0.0,0.0,0.0,0.0,-0.8343,-1.0017,-1.1223,-1.2424,-1.4021,-1.3989,-1.3558,-1.3459,-1.3286,-1.291,0.0,-1.2036,-1.2031,-1.176,0.0,0.0,0.0,0.0,-1.2721,-1.3595,-1.3656,-1.3858,-1.4562,-1.4854,-1.5113,-1.5463,-1.5351,-1.542,-1.5757,-1.6388,-1.7135,-1.8022,-1.7897,-1.7888,-1.804,0.0,0.0,0.0,0.0,0.0,0.0,0.0,0.0,0.0,0.0,0.0,0.0,0.0,0.0,0.0,0.0,0.0,0.0,0.0,0.0,0.0,0.0,0.0,0.0,0.0,0.0,0.0,0.0,0.0,-0.183,-0.2095,0.0,0.0,0.0,0.0,-0.3364,-0.3493,-0.349,-0.3425,-0.4325,-0.4749,-0.4562,-0.5433,-0.622,-0.6824,-0.7115,-0.7472,-0.7859,-0.8055,-0.8365,-0.878,-0.8751,-0.9061,-0.9602,-0.9365,-0.918,-0.8912,-0.7845,-0.7515,-0.757,-0.6796,-0.6497,-0.6497,-0.6619,-0.656,-0.6457,-0.6608,-0.7633,-0.885,-0.8875,-0.9597,-1.0456,-1.0385,-1.0234,0.0,0.0,-1.0082,-1.0663,-1.2082,-1.252,-1.2882,-1.4119,-1.4382,-1.423,-1.3876,-1.3663,-1.3304,0.0,-1.2393,-1.2287,-1.1631,0.0,-1.1281,-1.1308,-1.1919,-1.2344,-1.2131,-1.3148,-1.3757,-1.3422,-1.4126,-1.4642,-1.4652,-1.5188,-1.5329,-1.4984,-1.6472,-1.7438,-1.7631,-1.9308,-1.9755,-1.8771,-1.909,0.0,0.0,0.0,0.0,0.0,0.0,0.0,0.0,0.0,0.0,0.0,0.0,0.0,0.0,0.0,0.0,0.0,0.0,0.0,0.0,0.0,0.0,0.0,0.0,0.0,0.0,0.0,0.0,-0.2283,-0.2881,0.0,-0.2521,-0.2458,-0.2778,-0.3482,-0.4079,-0.4416,-0.4406,-0.5301,-0.5692,-0.5454,-0.5746,-0.5941,-0.6057,-0.6135,-0.644,-0.7022,-0.7239,-0.7543,-0.797,-0.8642,-0.8975,-0.9048,-0.9229,-0.9249,-0.9155,-0.8487,-0.8351,-0.8547,-0.8871,-0.8903,-0.8884,-0.958,-0.9622,-0.9381,-0.9862,-1.0606,-1.1391,-1.1978,-1.2402,-1.2527,-1.1303,-1.0899,-1.0531,-0.9147,-0.9533,-1.0451,-1.0842,-1.1655,-1.2505,-1.2946,-1.3339,-1.3557,-1.3273,-1.3476,-1.3588,-1.317,-1.3039,-1.2902,-1.2593,-1.241,-1.2404,-1.277,-1.2767,-1.2983,-1.3779,-1.381,-1.3912,-1.4294,-1.4495,-1.4695,-1.4967,-1.5168,-1.5296,-1.5285,-1.5599,-1.6224,-1.7249,-1.8036,-1.8851,-1.9623,-1.998,-1.8927,0.0,0.0,0.0,0.0,0.0,0.0,0.0,0.0,0.0,0.0,0.0,0.0,0.0,0.0,0.0,0.0,0.0,0.0,0.0,0.0,0.0,0.0,0.0,0.0,0.0,0.0,-0.2792,-0.2275,-0.2907,-0.3291,-0.3019,-0.3094,-0.3447,-0.4164,-0.4912,-0.5372,-0.5372,-0.5981,-0.618,-0.5902,-0.5825,-0.575,-0.5598,-0.5521,-0.5712,-0.6173,-0.631,-0.661,-0.7084,-0.7784,-0.8156,-0.823,-0.8684,-0.8861,-0.8785,-0.8802,-0.8855,-0.895,-0.9524,-0.97,-0.9707,-1.0338,-1.0435,-1.0315,-1.1219,-1.1723,-1.2174,-1.337,-1.3747,-1.3552,-1.2463,-1.2141,-1.1812,-1.0341,-1.0666,-1.1378,-1.1045,-1.1883,-1.2871,-1.2723,-1.3185,-1.363,-1.3441,-1.371,-1.3899,-1.3564,-1.3359,-1.321,-1.3043,-1.2906,-1.282,-1.2863,-1.2939,-1.3206,-1.3783,-1.3868,-1.4047,-1.4379,-1.4483,-1.4595,-1.4799,-1.4756,-1.4981,-1.5578,-1.5556,-1.6151,-1.7537,-1.7847,-1.8549,-1.9731,-2.0125,-1.928,-1.7215,0.0,0.0,0.0,0.0,0.0,0.0,0.0,0.0,0.0,0.0,0.0,0.0,0.0,0.0,0.0,0.0,0.0,0.0,0.0,0.0,0.0,0.0,0.0,-0.1425,-0.24,-0.2781,-0.188,-0.2267,-0.2737,-0.3025,-0.3449,-0.4265,-0.5491,-0.6028,-0.63,-0.63,-0.63,-0.618,-0.5902,-0.5673,-0.5598,-0.5598,-0.5401,-0.5282,-0.5282,-0.5282,-0.5589,-0.6163,-0.6202,-0.6549,-0.7203,-0.7812,-0.7974,-0.7842,-0.8622,-0.8863,-0.8646,-0.8493,-0.854,-0.8674,-0.8471,-0.8474,-0.879,-1.0101,-1.0548,-1.0836,-1.2632,-1.3226,-1.3317,-1.3789,-1.3915,-1.3856,-1.3674,-1.3621,-1.3487,-1.2904,-1.332,-1.3813,-1.3536,-1.4013,-1.4533,-1.4389,-1.4353,-1.4217,-1.3601,-1.3346,-1.3119,-1.2936,-1.2716,-1.2292,-1.1377,-1.2323,0.0,-1.1944,-1.3253,-1.4077,-1.358,-1.4071,-1.4329,-1.4156,-1.3971,-1.4426,-1.5729,-1.6417,-1.7305,-1.8469,-1.8889,-1.9141,-1.9171,-1.9499,-1.9529,-1.9191,0.0,0.0,0.0,0.0,0.0,0.0,0.0,0.0,0.0,0.0,0.0,0.0,0.0,0.0,0.0,0.0,0.0,0.0,0.0,0.0,0.0,0.0,-0.3349,-0.2735,-0.2876,-0.307,-0.3147,-0.3374,-0.3628,-0.3859,-0.4349,-0.4898,-0.555,-0.6028,-0.63,-0.63,-0.599,-0.5828,-0.5902,-0.5434,-0.524,-0.5398,-0.5168,-0.5093,-0.5093,-0.5093,-0.5168,-0.5362,-0.5935,-0.6318,-0.6511,-0.7161,-0.7347,-0.7269,-0.8045,-0.8276,-0.8184,-0.8631,-0.8702,-0.8484,-0.8545,-0.8552,-0.87,-0.9404,-0.9645,-0.9827,-1.0999,-1.123,-1.1235,-1.1849,-1.194,-1.1804,-1.1748,-1.1588,-1.1491,-1.1782,-1.1885,-1.2019,-1.2496,-1.3244,-1.3724,-1.3368,-1.3674,-1.3826,-1.3382,-1.3119,-1.2973,-1.29,-1.2599,-1.2281,-1.2055,-1.2045,0.0,-1.2358,-1.3044,-1.3629,-1.3974,-1.454,-1.4878,-1.4846,-1.4903,-1.5188,-1.5754,-1.6421,-1.7394,-1.8657,-1.9307,-1.9946,-2.062,-1.9695,-1.9177,0.0,0.0,0.0,0.0,0.0,0.0,0.0,0.0,0.0,0.0,0.0,0.0,0.0,0.0,0.0,0.0,0.0,0.0,0.0,0.0,0.0,0.0,-0.2907,-0.3893,-0.3584,-0.3518,-0.3603,-0.3805,-0.3822,-0.3872,-0.3991,-0.431,-0.4649,-0.4851,-0.5274,-0.5515,-0.5515,-0.5243,-0.5165,-0.5279,-0.5007,-0.4929,-0.5049,-0.5015,-0.5018,-0.5018,-0.5064,-0.5089,-0.5089,-0.5613,-0.5796,0.0,-0.6445,-0.6615,-0.6512,-0.7733,-0.8081,0.0,0.0,0.0,0.0,0.0,-0.8611,-0.8634,-0.8917,-0.8999,-0.913,-0.982,-0.9976,-0.9995,-1.0686,-1.0857,-1.0937,-1.131,-1.1265,-1.1249,-1.1874,-1.2054,-1.2211,-1.2696,-1.3397,-1.3869,-1.3477,-1.3601,-1.3645,-1.3156,-1.29,0.0,-1.2673,-1.2452,-1.2145,-1.1647,-1.1889,-1.2138,-1.225,-1.3161,-1.3921,-1.4253,-1.473,-1.498,-1.4922,-1.4903,0.0,0.0,0.0,-1.7203,-1.8248,-1.8961,0.0,0.0,0.0,0.0,0.0,0.0,0.0,0.0,-1.8467,-1.7779,0.0,0.0,0.0,0.0,0.0,0.0,0.0,0.0,0.0,0.0,0.0,0.0,0.0,0.0,0.0,0.0,-0.2843,-0.3576,-0.4097,-0.4169,-0.4109,-0.3976,-0.3831,-0.3701,-0.3668,-0.3843,-0.3914,-0.3914,-0.4225,-0.444,-0.4401,0.0,0.0,0.0,0.0,-0.4697,-0.4737,-0.4922,-0.5042,-0.5059,-0.5132,-0.5181,-0.5211,-0.5347,-0.5274,-0.5077,-0.5705,-0.5808,-0.563,-0.7417,-0.8007,-0.7899,-0.8671,-0.8947,-0.8883,-0.8678,-0.8612,-0.8612,-0.8612,0.0,0.0,-0.9174,-0.9302,-0.9395,-1.0144,-1.0465,-1.0777,-1.1566,-1.1724,-1.1766,-1.2402,-1.291,-1.3237,-1.3353,-1.3905,-1.4346,-1.4021,-1.3855,-1.3572,-1.301,-1.2709,-1.2489,-1.2305,-1.2268,-1.1906,-1.0876,-1.1791,-1.2401,-1.1923,-1.3449,-1.4545,-1.4399,0.0,0.0,-1.4822,-1.4607,-1.4836,-1.5647,-1.642,-1.7153,-1.7814,-1.848,-1.8583,-1.8047,-1.8628,-1.9372,-2.0265,-2.0687,-2.1554,-2.2703,-1.8559,-1.7775,0.0,0.0,0.0,0.0,0.0,0.0,0.0,0.0,0.0,0.0,0.0,0.0,0.0,0.0,0.0,-0.2013,-0.3749,-0.4893,-0.4092,-0.3964,-0.3938,-0.3853,-0.3738,-0.3639,-0.3531,-0.3972,-0.4128,-0.3916,-0.4403,-0.4668,-0.4473,-0.431,-0.431,-0.4473,-0.4431,-0.4554,-0.4925,-0.5079,-0.5203,-0.5339,0.0,0.0,-0.5372,-0.5257,-0.5276,-0.5327,-0.5266,-0.5113,-0.5044,-0.5977,-0.6721,-0.7375,-0.8488,-0.8896,-0.886,-0.8684,-0.8612,-0.8612,-0.8612,-0.8612,-0.8696,-0.9345,-0.9293,-0.9212,-1.0433,-1.0388,0.0,-1.0506,-1.0482,-1.0483,-1.1128,-1.1418,-1.1737,-1.2372,-1.3003,-1.3411,-1.3193,-1.3229,-1.3236,-1.2936,-1.2599,-1.2298,-1.2077,-1.1929,-1.1742,-1.153,-1.1968,-1.2331,-1.2217,-1.3627,-1.4502,-1.4239,-1.5409,-1.5965,-1.546,-1.629,-1.6906,-1.7014,-1.7923,-1.8774,-1.9421,-1.9574,-1.9792,-2.0118,-2.0261,-2.0396,-2.0587,-2.0794,-2.1112,-2.1453,-2.086,-2.122,0.0,0.0,0.0,0.0,0.0,0.0,0.0,0.0,0.0,0.0,0.0,-0.3007,0.0,0.0,-0.3569,-0.2937,-0.3883,-0.444,-0.3812,-0.3631,-0.3618,-0.3846,-0.3629,-0.3444,-0.335,-0.3461,-0.3544,-0.3498,-0.3635,-0.3757,-0.3759,-0.3551,-0.351,-0.3594,-0.3964,-0.4277,-0.4485,-0.5015,-0.535,-0.541,-0.5311,-0.5305,-0.5461,-0.5461,-0.5451,-0.5373,-0.5187,-0.497,-0.4807,-0.5676,-0.6449,-0.716,-0.7748,-0.821,-0.8512,-0.816,-0.834,-0.8727,-0.8419,-0.843,-0.8669,-0.8998,-0.8956,-0.9,-1.0171,-1.0215,-1.0006,-1.0869,-1.0981,-1.1039,-1.1684,-1.1797,-1.1781,-1.2187,-1.2526,-1.2636,-1.2224,-1.2225,-1.2324,-1.2368,-1.2098,-1.1985,-1.2337,-1.21,-1.1781,-1.1595,-1.1966,-1.2445,-1.2842,-1.389,-1.468,-1.4827,-1.5376,-1.5549,-1.5124,-1.5954,-1.6825,-1.7643,-1.8381,-1.8934,-1.924,-1.9585,-1.9783,-1.9701,-2.0039,-2.0204,-2.0204,-2.0598,-2.1185,-2.1881,-2.199,-2.2434,0.0,0.0,0.0,0.0,0.0,0.0,0.0,0.0,-0.5425,-0.5764,-0.5569,-0.515,-0.4632,-0.42,-0.3889,-0.3849,-0.3694,-0.3587,-0.3542,-0.3317,-0.3361,-0.3723,-0.3452,-0.3183,-0.3183,-0.3003,-0.2929,-0.3101,-0.2914,-0.2877,-0.309,-0.2879,-0.283,-0.2943,-0.3666,-0.4128,-0.4193,-0.5051,-0.5471,-0.5455,-0.5507,-0.5514,-0.5564,-0.5662,-0.5588,-0.5424,-0.5218,-0.4934,-0.4659,-0.5453,-0.6065,-0.6552,-0.6605,-0.7078,-0.7712,-0.7522,-0.7866,-0.8443,-0.8127,-0.815,-0.8429,-0.8654,-0.8724,-0.8918,-1.0003,-1.0117,-1.0124,-1.1201,-1.1431,-1.1502,-1.1986,-1.1978,-1.1818,-1.1818,-1.1929,-1.1855,-1.1335,-1.1273,-1.142,-1.1619,-1.142,-1.1459,-1.235,-1.2079,-1.1669,-1.1558,-1.2003,-1.2592,-1.3244,-1.407,-1.4716,-1.5062,-1.5106,-1.5106,-1.5196,-1.5679,-1.6622,-1.8121,-1.86,-1.8807,-1.8776,-1.9345,-1.9494,-1.9043,-1.9614,-1.9876,-1.9845,-2.0415,-2.1261,-2.235,-2.2473,-2.2799,-0.4097,-0.4583,0.0,-0.4927,-0.5733,-0.651,0.0,0.0,-0.5776,-0.5577,-0.5098,-0.4631,-0.4377,-0.4088,-0.3849,-0.3645,-0.3606,-0.3497,-0.3272,-0.3227,-0.3227,-0.3272,-0.3227,-0.3183,-0.3183,-0.3175,-0.317,-0.317,-0.3108,-0.3157,-0.3419,-0.3202,-0.3298,-0.3819,-0.4191,-0.4536,-0.4905,-0.5461,-0.5711,-0.5663,-0.5611,-0.5632,-0.5689,-0.5703,-0.5642,-0.5489,-0.5178,-0.4779,-0.4344,-0.4476,-0.4565,-0.4652,-0.4879,-0.544,-0.6226,-0.6913,-0.7142,-0.7214,-0.7738,-0.7816,-0.7851,-0.8843,-0.8999,-0.9094,-1.0376,-1.0209,-0.9694,-1.0035,-0.9997,-0.9808,-0.9732,-0.9938,-1.018,-1.018,-1.0588,-1.0887,-1.0663,-1.0898,-1.1105,-1.0956,-1.0606,-1.0606,-1.1414,-1.1053,-1.0962,-1.1818,-1.2298,-1.2599,-1.2709,-1.3818,-1.4358,-1.3789,-1.4903,-1.6132,-1.7257,-1.7517,-1.8035,-1.8903,-1.9198,-1.9314,-1.9324,-1.9576,-1.9857,-2.0201,-2.0461,-2.0494,-2.0322,-2.0582,-2.085,-2.1118,-2.2406,-2.3156,-0.6395,0.0,0.0,0.0,-0.7191,-0.7525,-0.7563,-0.7451,-0.7476,-0.7812,-0.7603,-0.7281,-0.7038,-0.5847,-0.4936,0.0,-0.3917,-0.3141,-0.3051,-0.3006,-0.3006,-0.3006,-0.3219,-0.3226,-0.3054,-0.3006,-0.3094,-0.3183,-0.3155,-0.3405,-0.3934,-0.3583,-0.3547,-0.3892,-0.4015,-0.425,-0.4571,-0.5108,-0.5564,-0.5868,-0.584,-0.5767,-0.5713,-0.578,-0.5583,-0.5212,-0.508,-0.4743,-0.43,-0.448,-0.4433,-0.4344,-0.4746,-0.4907,-0.5038,-0.5904,-0.6826,-0.7575,-0.7344,-0.7826,-0.8643,-0.9124,-0.934,-0.9686,-1.0669,-1.0491,-0.9992,-1.018,-1.0105,-0.9922,-0.9695,-0.9771,-0.9884,-0.9884,-1.0105,-1.018,-0.9884,-0.9891,-1.002,-1.0121,-0.9855,-0.9861,-1.0623,-1.0825,-1.1016,-1.1468,-1.1765,-1.2054,-1.2399,-1.3033,-1.3512,-1.3521,-1.4727,-1.5806,-1.6376,-1.7248,-1.824,-1.9281,-1.9619,-1.9933,-2.0249,-2.0415,-2.0446,-2.0335,-2.1112,-2.1413,-2.1158,-2.168,-2.2004,-2.2198,-2.2814,-2.3079,-0.7219,0.0,0.0,-0.8023,-0.8413,-0.8584,-0.8706,-0.8787,-0.8991,-0.9429,-0.9388,-0.9218,-0.8867,-0.7316,-0.5985,-0.5764,-0.4342,-0.3187,-0.2918,-0.292,-0.2925,-0.3031,-0.3238,-0.3298,-0.3197,-0.3134,-0.3213,-0.3435,-0.3373,-0.3673,-0.4431,-0.4009,-0.3957,-0.4383,-0.4274,-0.4384,-0.4733,-0.5143,-0.5551,-0.5962,-0.5962,-0.5884,-0.5688,-0.5689,-0.5467,-0.5015,-0.4956,-0.4705,-0.4353,-0.4514,-0.448,-0.4385,-0.5021,-0.5034,-0.4768,-0.5664,-0.6632,-0.7438,-0.7196,-0.7864,-0.8913,-0.9101,-0.9397,-0.9774,-1.0686,-1.055,-1.018,-1.0438,-1.0331,-1.0067,-0.9922,-0.9884,-0.9884,-0.9884,-0.9884,-0.9809,-0.9473,-0.9301,-0.9271,-0.9468,-0.9169,-0.924,-1.0284,-1.0654,-1.1,-1.1582,-1.1775,-1.1922,-1.2245,-1.2621,-1.3137,-1.3836,-1.4712,-1.5396,-1.5771,-1.6945,-1.8183,-1.942,-1.9993,-2.0529,-2.1148,-2.146,-2.1403,-2.0907,-2.2106,-2.2353,-2.1579,-2.2577,-2.2927,-2.2653,-2.317,-2.3275,0.0,0.0,-0.6997,-0.7828,-0.8984,-0.9879,-0.9618,-0.9749,-0.984,-0.9384,-0.9305,-0.9174,-0.8696,-0.7764,-0.6741,-0.5852,-0.4877,-0.3942,-0.3008,-0.292,-0.3031,-0.3365,-0.3269,-0.3373,0.0,-0.3742,-0.3788,-0.406,-0.3761,-0.3987,-0.4921,-0.4389,-0.4637,-0.5877,-0.5379,-0.5337,-0.5837,-0.5873,-0.5873,-0.5915,-0.5915,-0.5799,-0.5578,-0.5345,-0.5143,-0.4974,-0.4865,-0.4692,-0.448,-0.4351,-0.43,-0.4423,-0.5586,-0.5975,-0.5924,-0.6683,-0.6511,-0.6052,-0.7412,-0.7813,-0.7871,-0.8655,-0.8927,-0.9125,-1.0209,-1.0218,-0.9992,-1.0406,-1.0218,-0.9922,-0.9922,-0.9884,-0.9884,-0.9884,-0.9884,-0.9846,-0.962,-0.9421,-0.9222,-0.9064,-0.855,-0.8723,-1.0557,-1.0396,-1.0673,-1.2547,-1.2747,-1.2572,-1.2252,-1.2835,-1.3712,-1.4842,-1.4924,-1.5374,-1.6464,-1.7149,-1.8081,-1.9406,-2.0236,-2.1037,-2.1849,-2.2548,-2.2764,-2.2327,-2.3664,-2.3333,-2.132,-2.2899,-2.2936,-2.1599,-2.3344,-2.4105,-0.5988,0.0,-0.808,-0.9073,-0.9666,-0.9994,-0.9864,-0.9777,-0.9646,-0.9345,-0.8429,-0.7506,-0.7098,-0.6309,-0.5352,-0.4353,-0.4268,-0.4019,-0.3112,-0.315,-0.3309,-0.3333,-0.3627,0.0,0.0,0.0,0.0,-0.3834,-0.3812,-0.4212,-0.5191,-0.4889,-0.5085,-0.5959,-0.5487,-0.5407,-0.5813,-0.5568,-0.5723,-0.6278,-0.5911,-0.5644,-0.5533,-0.529,-0.5132,-0.5006,-0.4858,-0.4688,-0.4476,-0.4351,-0.4353,-0.4557,-0.5683,-0.6002,-0.5925,-0.6715,-0.667,-0.6397,-0.7321,-0.813,-0.8817,-0.9087,-0.9351,-0.9604,-0.983,-0.9733,-0.9544,-0.9846,-0.9695,-0.9544,-0.9846,-0.9884,-0.9884,-0.9884,-0.9884,-0.9809,-0.9473,-0.9339,-0.9135,-0.8535,-0.8652,-0.8957,-0.9194,-1.0202,-1.1438,-1.2725,-1.2916,-1.2877,-1.2811,-1.3899,-1.4698,-1.4727,-1.5939,-1.6935,-1.7426,-1.8414,-1.9742,-2.1441,-2.1847,-2.2548,-2.3662,-2.4014,-2.3968,-2.3484,-2.4697,-2.4777,-2.3615,-2.4197,-2.3987,-2.3033,-2.3335,-2.3408,-0.6982,-0.7878,-0.8644,-0.9733,-0.9994,-0.9994,-0.9994,-0.9777,-0.9559,-0.9349,-0.7897,-0.6603,-0.6248,-0.5297,-0.4251,-0.3192,-0.3194,-0.3169,-0.2763,-0.2713,-0.2882,-0.3508,-0.3903,0.0,0.0,0.0,0.0,-0.3924,-0.4021,-0.4514,-0.546,-0.5411,-0.5711,-0.6454,-0.6144,-0.6078,-0.6363,-0.5897,-0.5845,-0.6156,-0.5716,-0.5448,-0.5328,-0.5246,-0.5167,-0.501,-0.4954,-0.4788,-0.4584,-0.4469,-0.4474,-0.4668,-0.572,-0.6014,-0.6021,-0.6795,-0.7017,-0.7007,-0.7365,-0.8021,-0.8708,-0.8975,-0.9279,-0.9463,-0.9468,-0.9359,-0.9246,-0.9625,-0.9544,-0.9473,-0.9809,-0.9884,-0.9884,-0.9884,-0.9846,-0.9733,-0.9473,-0.9279,-0.9029,-0.8512,-0.8894,-0.931,-0.9322,-1.0817,-1.2153,-1.2625,-1.2862,-1.3038,-1.3172,-1.4425,-1.5185,-1.4961,-1.6613,-1.7803,-1.8048,-1.9167,-2.0444,-2.1953,-2.2121,-2.2742,-2.4002,-2.4398,-2.4569,-2.4538,-2.5749,-2.5904,-2.492,-2.525,-2.4802,-2.3689,-2.3456,-2.3406,-0.7851,-0.8438,-0.8746,-0.9757,-0.9994,-0.9994,-0.9994,-0.9777,-0.9506,-0.9218,-0.7696,-0.6288,0.0,0.0,-0.3514,-0.2478,-0.1894,-0.1719,-0.2184,-0.1735,-0.2033,0.0,0.0,0.0,0.0,0.0,0.0,-0.4388,0.0,-0.4808,-0.5654,-0.5919,-0.6395,-0.7297,-0.7186,-0.7228,-0.7435,-0.6817,-0.6222,-0.5607,-0.541,-0.5212,-0.5015,-0.5207,-0.5168,-0.4984,-0.5055,-0.4985,-0.4799,-0.4743,-0.4699,-0.4809,-0.5751,-0.6094,-0.6195,-0.6913,-0.7395,-0.7706,-0.7518,-0.748,-0.7595,-0.8356,-0.8623,-0.8703,-0.9127,-0.9132,-0.9099,-0.9695,-0.9733,-0.9657,-0.9846,-0.9884,-0.9884,-0.9884,-0.9733,-0.9582,-0.9582,-0.9284,-0.8984,-0.8984,-0.916,-0.972,-1.0906,-1.2048,-1.2698,-1.2366,-1.2693,-1.3056,-1.3369,-1.4334,-1.5157,-1.5573,-1.6865,-1.7893,-1.8411,-1.9353,-2.0267,-2.1061,-2.1234,-2.1885,-2.3167,-2.3886,-2.468,-2.5573,-2.6777,-2.6661,-2.5228,-2.5877,-2.5287,-2.3525,-2.3677,-2.4008,-0.826,-0.8991,-0.9649,-0.9942,-0.9864,-0.9733,-0.9951,-0.9519,-0.8832,-0.7863,-0.6035,-0.4264,0.0,0.0,0.0,-0.1741,-0.351,0.0,-0.3341,-0.3353,0.0,-0.4194,0.0,-0.4462,-0.4317,-0.4448,0.0,0.0,-0.4334,-0.4871,-0.5942,-0.604,-0.6535,-0.7572,-0.7571,-0.7628,-0.7776,-0.714,-0.6475,-0.5821,-0.5582,-0.5376,-0.5207,-0.5132,-0.5054,-0.4984,-0.4901,-0.4829,-0.4799,-0.4743,-0.4741,-0.4867,-0.5758,-0.6116,-0.6213,-0.656,-0.6734,-0.6853,-0.7015,-0.7169,-0.728,-0.7322,-0.7361,-0.7514,-0.8365,-0.8594,-0.8708,-0.9468,-0.962,-0.9657,-0.9846,-0.9884,-0.9884,-0.9884,-0.9733,-0.9544,-0.9397,-0.9175,-0.8908,-0.8594,-0.9198,-1.0351,-1.2289,-1.2164,-1.1954,-1.2468,-1.2484,-1.2636,-1.31,-1.4425,-1.5407,-1.5718,-1.6939,-1.8165,-1.9262,-1.9891,-2.0909,-2.2525,-2.282,-2.3459,-2.4693,-2.493,-2.5709,-2.7117,-2.6977,-2.6889,-2.688,-2.5703,-2.4674,-2.3831,-2.301,-2.2878,-0.9091,-0.9624,-0.9975,-0.9981,-0.9828,-0.9556,-0.8899,-0.8378,-0.767,-0.6219,-0.4364,0.0,0.0,0.0,0.0,0.0,0.0,0.0,-0.3427,-0.3278,-0.3464,0.0,-0.4279,0.0,-0.4,-0.4124,-0.4206,0.0,-0.4248,-0.4888,-0.6036,-0.6132,-0.6694,-0.7833,-0.7958,-0.7938,-0.7788,-0.7221,-0.6602,-0.5913,-0.5694,-0.5491,-0.5246,-0.5186,-0.5103,-0.5094,0.0,-0.4921,-0.4883,-0.4867,-0.4854,-0.4917,-0.5427,-0.5656,-0.5667,-0.5699,-0.5815,-0.5931,-0.5741,-0.5857,-0.6244,-0.7134,-0.7365,-0.7399,-0.7978,-0.8322,-0.8627,-0.9084,-0.9203,-0.9311,-0.9765,-0.9652,-0.9463,-0.9803,-0.9695,-0.9435,-0.9322,-0.9056,-0.8861,-0.8937,-0.9392,-1.0346,-1.2167,-1.1899,-1.1644,-1.2198,-1.219,-1.2208,-1.2479,-1.3813,-1.4936,-1.5411,-1.6931,-1.8331,-1.9383,-2.0602,-2.1812,-2.2947,-2.3212,-2.3839,-2.4972,-2.4864,-2.5586,-2.7284,-2.7185,-2.7168,-2.7298,-2.5965,-2.4924,-2.4098,-2.2808,-2.2426,-0.9941,-1.0116,-0.9915,-0.9862,-0.9804,-0.9319,-0.7556,-0.7016,-0.6381,-0.4509,0.0,0.0,-0.1262,0.0,-0.1462,-0.0739,0.0,-0.2462,-0.3132,-0.2669,-0.2674,-0.3794,-0.4009,-0.3962,-0.3698,-0.3757,-0.3821,-0.3882,-0.4085,-0.4736,-0.6042,-0.6115,-0.6765,-0.8071,-0.8261,-0.8105,-0.7636,-0.7204,-0.668,-0.6047,-0.5844,-0.5614,-0.535,-0.5336,-0.5287,-0.5184,-0.513,0.0,-0.4961,-0.4984,-0.5018,-0.5018,-0.5018,-0.4979,-0.4937,-0.4818,-0.4971,-0.5165,-0.4504,-0.4543,-0.5126,-0.7019,-0.7514,-0.7433,-0.7548,-0.805,-0.8551,-0.8585,-0.8623,-0.8813,-0.9576,-0.9273,-0.8932,-0.9728,-0.9625,-0.9322,-0.9322,-0.9013,-0.8894,-0.9468,-0.9584,-1.0006,-1.128,-1.153,-1.1613,-1.1862,-1.1963,-1.2015,-1.197,-1.3134,-1.4216,-1.4906,-1.6919,-1.8484,-1.9192,-2.1227,-2.2522,-2.2679,-2.2954,-2.358,-2.4667,-2.4344,-2.5023,-2.6862,-2.7258,-2.7313,-2.7102,-2.6459,-2.5519,-2.4316,-2.306,-2.2559,-0.9966,-0.9806,-0.9652,-0.9593,-0.9299,-0.8752,-0.7631,-0.6924,0.0,0.0,0.0,-0.1225,0.0088,-0.0798,-0.1583,-0.1294,0.0,0.0,0.0,0.0,-0.4014,0.0,0.0,0.0,0.0,0.0,0.0,0.0,0.0,-0.441,-0.5936,-0.5912,-0.653,-0.8071,-0.8016,-0.7959,-0.7855,-0.7321,-0.6974,-0.6724,-0.6367,-0.6119,-0.5996,-0.5618,-0.5329,-0.5098,-0.5046,0.0,-0.4834,-0.4941,-0.5018,-0.5018,-0.5018,-0.4898,-0.4779,-0.5087,-0.5124,-0.5082,-0.5276,-0.5389,-0.5392,-0.5121,-0.5234,-0.5619,-0.6269,-0.7046,-0.7744,-0.7923,-0.8185,-0.8575,-0.9036,-0.9041,-0.9117,-0.9765,-0.9733,-0.9549,-0.9549,-0.9246,-0.9094,-0.9511,-0.9613,-0.9913,-1.088,-1.1337,-1.1682,-1.1956,-1.2428,-1.2746,-1.2864,-1.3672,-1.4404,-1.4858,-1.7011,-1.8639,-1.9396,-2.0831,-2.1847,-2.2212,-2.2787,-2.358,-2.4667,-2.4433,-2.5302,-2.7487,-2.6876,-2.6867,-2.7586,-2.6748,-2.5745,-2.4603,-2.4154,-2.3478,-1.0306,-0.9985,-0.9668,-0.9542,-0.943,-0.8698,-0.6321,0.0,0.0,0.0,0.0,-0.0271,0.0624,0.0,0.0,0.0,0.0,0.0,0.0,0.0,0.0,0.0,0.0,0.0,0.0,0.0,0.0,0.0,0.0,-0.4135,-0.5892,-0.6557,-0.7253,-0.7955,-0.7807,-0.768,-0.768,-0.7319,-0.6981,-0.6754,-0.6613,-0.6457,-0.6216,-0.5822,-0.5524,-0.5404,-0.5105,0.0,-0.4899,-0.4961,-0.5018,-0.5018,-0.5018,-0.4859,-0.4701,-0.4813,-0.4696,-0.4543,-0.4618,-0.4654,-0.4616,-0.4229,-0.4579,-0.5237,-0.5622,-0.6234,-0.6811,-0.6808,-0.7115,-0.7498,-0.7965,-0.7893,-0.7897,-0.8499,-0.8813,-0.9013,-0.9246,-0.9137,-0.9022,-0.9127,-0.9144,-0.9403,-1.0316,-1.1061,-1.1594,-1.1955,-1.2945,-1.362,-1.3541,-1.4759,-1.5557,-1.5273,-1.7276,-1.8867,-1.952,-2.1245,-2.2423,-2.2598,-2.3488,-2.457,-2.5902,-2.5869,-2.6635,-2.8302,-2.8281,-2.8055,-2.7585,-2.7176,-2.6488,-2.5556,-2.4652,-2.411,-1.0698,-1.0359,-0.9977,-0.9563,-0.9476,-0.8617,-0.5199,-0.4552,0.0,0.0,0.0,0.0505,0.0842,0.0,-0.0984,0.0,0.0,0.0,0.0,0.0,0.0,0.0,0.0,0.0,0.0,0.0,0.0,0.0,0.0,0.0,-0.5773,-0.7095,-0.7844,-0.7823,-0.751,-0.7427,-0.7507,-0.7204,-0.692,-0.6711,-0.6825,-0.6721,-0.6417,-0.6037,-0.5843,-0.5787,-0.5316,0.0,0.0,-0.5037,-0.5018,-0.5018,-0.5018,-0.4896,-0.4737,-0.454,-0.4348,-0.4196,-0.3997,-0.3919,-0.3919,-0.3882,-0.4426,-0.5085,-0.501,-0.5425,-0.588,-0.5654,-0.5886,-0.6311,-0.6853,-0.6745,-0.6672,-0.7353,-0.8008,-0.8518,-0.8751,-0.8946,-0.898,-0.8742,-0.8686,-0.8934,-0.9684,-1.0697,-1.1542,-1.2005,-1.346,-1.4519,-1.4521,-1.6079,-1.6949,-1.6355,-1.8183,-1.962,-2.0014,-2.2106,-2.3386,-2.3327,-2.4234,-2.5407,-2.6728,-2.7159,-2.7824,-2.8824,-2.972,-2.9423,-2.792,-2.7923,-2.7406,-2.6424,-2.5214,-2.4739,-1.1032,-1.1044,-1.0645,-0.9668,-0.9143,-0.8167,-0.5379,0.0,0.0,0.0,0.0393,0.0505,0.0842,0.0,0.0,0.0,0.0,-0.0598,0.0,0.0,0.0,0.0,0.0,0.0,0.0,0.0,0.0,0.0,0.0,0.0,-0.5265,-0.6759,-0.7614,-0.7556,-0.7165,-0.7144,-0.7503,-0.7104,-0.6964,-0.7075,-0.7044,-0.6981,-0.6843,-0.6635,-0.6371,-0.6123,-0.5673,0.0,0.0,-0.5105,-0.5018,-0.5018,-0.5018,-0.4973,-0.4965,-0.4737,-0.4659,-0.4623,-0.4423,-0.4345,-0.4307,-0.4116,-0.427,-0.4423,-0.4036,-0.4499,-0.504,-0.4654,-0.4846,-0.5312,-0.6086,-0.6279,-0.6433,-0.731,-0.808,-0.8585,-0.8237,-0.8742,-0.917,-0.878,-0.8718,-0.8716,-0.88,-1.0248,-1.1601,-1.2192,-1.4001,-1.5595,-1.6428,-1.7499,-1.825,-1.8477,-2.0263,-2.1467,-2.1572,-2.3297,-2.4279,-2.4031,-2.452,-2.5103,-2.5808,-2.6891,-2.7829,-2.8623,-2.9791,-2.9992,-2.9244,-2.9219,-2.8316,-2.6561,-2.626,-2.5583,-1.132,-1.1284,-1.0819,-0.9696,-0.8864,-0.7808,-0.5646,0.0,0.0,-0.0578,0.0168,0.0505,0.0842,0.0898,0.0795,0.0443,0.0434,0.0,-0.0655,0.0,0.0,0.0,0.0,0.0,0.0,0.0,0.0,0.0,0.0,0.0,-0.5794,-0.6854,-0.7453,-0.7424,-0.718,-0.7085,-0.7279,-0.7085,-0.7041,-0.7095,-0.7095,-0.7065,-0.7011,-0.6796,-0.6616,-0.6444,-0.6126,0.0,0.0,-0.5362,-0.5317,-0.5326,-0.5093,-0.509,-0.5124,-0.4815,-0.4621,-0.4501,-0.4423,-0.407,-0.368,-0.3999,-0.3804,-0.3489,-0.3724,-0.4034,-0.4229,-0.4073,-0.4345,-0.4654,-0.4732,-0.4927,-0.5312,-0.616,-0.7195,-0.8046,-0.8241,-0.8894,-0.9359,-0.8941,-0.8889,-0.8847,-0.8739,-0.9827,-1.1208,-1.2537,-1.4476,-1.6228,-1.7559,-1.8757,-1.9537,-1.9677,-2.0843,-2.1576,-2.162,-2.3139,-2.4047,-2.393,-2.4622,-2.5405,-2.6208,-2.768,-2.8893,-2.985,-3.1028,-3.1308,-3.0727,-3.0197,-2.9377,-2.8253,-2.6919,-2.606,-1.1324,-1.1566,-1.138,-1.0228,-0.8942,-0.7538,0.0,0.0,0.0,-0.0574,0.014,0.0505,0.0842,0.0898,0.0898,0.0898,0.1036,0.1007,0.0631,0.0843,0.0,0.0,0.0,0.0,0.0,0.0,0.0,0.0,0.0,0.0,0.0,-0.705,-0.7302,-0.7302,-0.7156,-0.7034,-0.7034,-0.7034,-0.6991,-0.6943,-0.7031,-0.7051,-0.701,-0.6925,-0.6886,-0.6833,0.0,0.0,0.0,-0.5796,-0.5717,-0.5637,-0.5326,-0.5246,-0.5243,-0.4896,-0.4737,-0.4618,-0.4343,-0.3992,-0.368,-0.3841,-0.3606,-0.3294,-0.3448,-0.3643,-0.3763,-0.3489,-0.38,-0.4151,-0.388,-0.4112,-0.454,-0.5118,-0.6198,-0.7272,-0.7897,-0.8665,-0.9203,-0.9022,-0.9068,-0.9013,-0.8818,-0.9691,-1.1095,-1.3166,-1.4939,-1.6738,-1.8726,-1.9805,-2.0449,-2.0544,-2.1453,-2.2003,-2.2004,-2.335,-2.4295,-2.4498,-2.5006,-2.5702,-2.6609,-2.8212,-2.9533,-3.0477,-3.1905,-3.2433,-3.2059,-3.1275,-3.0447,-2.9555,-2.7558,-2.6361,-1.0921,-1.1914,-1.2436,-1.1414,-0.9487,-0.7262,0.0,0.0,0.0,-0.0086,0.0393,0.0505,0.0842,0.0898,0.0898,0.0898,0.1903,0.2222,0.0989,0.1772,0.0,0.0,0.0,0.0,0.0,0.0,0.0,0.0,0.0,0.0,0.0,-0.7224,-0.7098,-0.7098,-0.696,-0.6886,-0.6886,-0.6886,-0.68,-0.6622,-0.694,-0.701,-0.6795,-0.701,-0.7232,0.0,0.0,0.0,0.0,-0.6515,-0.6073,-0.5864,-0.5673,-0.5479,-0.5282,-0.5054,-0.5132,-0.5162,-0.4144,-0.4304,-0.482,-0.3761,-0.3837,-0.4187,-0.313,-0.329,-0.3606,-0.2744,-0.3137,-0.3802,-0.3802,-0.4112,-0.4384,-0.4423,-0.5351,-0.6395,-0.7088,-0.7859,-0.8518,-0.8908,-0.9175,-0.9213,-0.9027,-0.9934,-1.1582,-1.4188,-1.5388,-1.7094,-2.0178,-2.0605,-2.076,-2.1156,-2.2444,-2.3257,-2.3206,-2.4406,-2.5481,-2.6133,-2.5757,-2.5853,-2.6666,-2.825,-2.9391,-3.0003,-3.2107,-3.3157,-3.308,-3.2538,-3.1526,-3.0062,-2.8218,-2.6492,-0.8874,-0.9378,-0.9381,-0.8317,-0.6989,-0.5666,-0.464,0.0,0.0,-0.0592,0.0056,0.0477,0.0729,0.0842,0.0905,0.0896,0.1997,0.2665,0.0,0.0,0.0,0.0,0.0,0.0,0.0,0.0,0.0,0.0,0.0,0.0,0.0,-0.7122,-0.7095,-0.7095,-0.7051,-0.7031,-0.7031,-0.7031,-0.6943,-0.6724,-0.6858,-0.6881,-0.6795,-0.6881,0.0,0.0,0.0,0.0,0.0,-0.6869,-0.6641,-0.6455,-0.6332,-0.6123,-0.5881,-0.5554,-0.5287,-0.4973,-0.4105,-0.3949,-0.4107,-0.3563,-0.3524,-0.3602,-0.2974,-0.3251,-0.3763,-0.3647,-0.3567,-0.3604,-0.3921,-0.4192,-0.4384,-0.4384,-0.5312,-0.624,-0.6472,-0.7625,-0.8593,-0.8581,-0.8955,-0.9209,-0.9209,-0.9462,-1.0429,-1.2647,-1.4654,-1.6685,-1.8683,-2.0696,-2.1891,-2.1865,-2.3199,-2.3991,-2.383,-2.511,-2.6176,-2.6651,-2.6886,-2.7067,-2.7246,-2.8966,-3.0071,-3.0397,-3.2254,-3.325,-3.3374,-3.2513,-3.0756,-2.8162,-2.6761,-2.5811,-0.721,-0.788,-0.8028,-0.7353,-0.6151,0.0,0.0,0.0,-0.1539,-0.0561,0.0056,0.0449,0.0673,0.0813,0.0907,0.0909,0.1977,0.2558,0.0,0.0,0.0,0.0,0.0,0.0,0.0,0.0,0.0,0.0,0.0,0.0,0.0,-0.701,-0.6966,-0.6966,-0.7051,-0.7068,-0.7018,-0.7068,-0.6939,-0.6583,-0.6722,-0.6704,-0.6529,-0.6704,0.0,0.0,0.0,0.0,0.0,-0.7359,-0.7149,-0.6958,-0.6663,-0.6399,-0.6149,-0.5644,-0.5367,-0.5093,-0.4146,-0.4105,-0.4341,-0.3561,-0.3095,-0.2859,-0.3093,-0.329,-0.3563,-0.4155,-0.3997,-0.3724,-0.404,-0.4231,-0.4384,-0.4384,-0.5082,-0.5819,-0.6125,-0.6969,-0.779,-0.8304,-0.8591,-0.886,-0.9227,-0.9521,-1.0571,-1.3055,-1.5079,-1.7056,-1.9297,-2.135,-2.2577,-2.2435,-2.3914,-2.4951,-2.5118,-2.5855,-2.6663,-2.746,-2.766,-2.7858,-2.8094,-2.9521,-3.0474,-3.081,-3.2295,-3.3154,-3.3351,-3.191,-2.9839,-2.719,-2.6287,-2.5695,0.0,-0.7111,-0.7862,-0.7862,-0.6425,-0.4665,-0.3475,-0.2466,0.0,-0.0084,0.028,0.0449,0.0617,0.0785,0.0879,0.0879,0.1861,0.2012,0.0,0.0997,0.0,0.0,0.0,0.0,0.0,0.0,0.0,0.0,0.0,0.0,0.0,-0.6881,-0.6792,-0.6792,-0.6966,-0.6991,-0.6903,-0.7031,-0.6765,-0.6211,-0.6599,-0.6567,-0.6157,-0.6599,0.0,0.0,0.0,0.0,0.0,-0.7971,-0.7635,-0.7455,-0.6803,-0.6412,-0.6158,-0.5453,-0.5342,-0.5323,-0.4105,-0.4419,-0.5165,-0.364,-0.2624,-0.2195,-0.3409,-0.329,-0.3013,-0.4345,-0.4428,-0.4118,-0.4157,-0.4311,-0.4462,-0.4462,-0.474,-0.521,-0.5935,-0.6044,-0.6472,-0.8023,-0.8185,-0.8365,-0.9167,-1.0019,-1.1675,-1.4843,-1.6204,-1.8059,-2.1242,-2.2386,-2.2909,-2.3038,-2.4708,-2.6117,-2.6922,-2.6734,-2.7176,-2.8566,-2.8326,-2.8477,-2.9278,-3.008,-3.0725,-3.1209,-3.2199,-3.2749,-3.2902,-3.0843,-2.8904,-2.7121,-2.6651,-2.6063,-0.4289,0.0,-0.4669,-0.4669,-0.4305,-0.3629,0.0,-0.1974,-0.1455,-0.0196,0.014,0.0252,0.0308,0.0421,0.0539,0.0586,0.1315,0.1397,0.0034,0.0,0.0,0.0,0.0,0.0,0.0,0.0,0.0,0.0,0.0,0.0,0.0,-0.652,-0.6476,-0.6476,-0.652,-0.664,-0.6835,-0.6864,-0.6684,-0.6342,-0.646,-0.6552,-0.6618,-0.6751,0.0,0.0,0.0,0.0,-0.8365,-0.7995,-0.7764,-0.7583,-0.783,-0.7407,-0.6532,-0.5617,-0.5021,-0.4453,-0.2895,-0.2937,-0.364,-0.3407,-0.3093,-0.2898,-0.3368,-0.286,-0.2468,-0.4229,-0.4504,-0.4387,-0.4704,-0.482,-0.4859,-0.4859,-0.4937,-0.5057,-0.5246,-0.6128,-0.7061,-0.7593,-0.8417,-0.9104,-0.945,-1.012,-1.1191,-1.2995,-1.5349,-1.7743,-2.006,-2.2262,-2.4124,-2.5363,-2.6362,-2.7402,-2.86,-2.8366,-2.8729,-3.009,-3.0284,-3.064,-3.1289,-3.208,-3.2192,-3.1437,-3.1581,-3.1389,-3.0871,-2.9804,-2.8633,-2.7387,-2.6806,-2.6568,-0.3777,-0.3613,-0.3613,-0.3613,-0.3613,-0.3274,-0.2069,-0.179,-0.1455,-0.0252,0.0112,0.0196,0.0196,0.0308,0.0425,0.0498,0.0518,0.0,0.0,0.0,-0.2513,0.0,0.0,0.0,0.0,0.0,0.0,0.0,0.0,0.0,0.0,-0.639,-0.6257,-0.6257,-0.6257,-0.639,-0.6612,-0.6612,-0.6479,-0.6254,-0.6499,-0.66,-0.6652,-0.701,-0.7551,0.0,0.0,0.0,-0.845,-0.8242,-0.8047,-0.7959,-0.8043,-0.7735,-0.7124,-0.5956,-0.528,-0.4763,-0.3366,-0.2979,-0.3136,-0.3212,-0.2938,-0.2588,-0.2784,-0.2469,-0.2391,-0.4073,-0.4621,-0.474,-0.4937,-0.5018,-0.5018,-0.5018,-0.5018,-0.4979,-0.4898,-0.5794,-0.6742,-0.7266,-0.8008,-0.8873,-0.989,-1.0585,-1.1799,-1.4071,-1.6415,-1.8731,-2.0952,-2.3053,-2.4846,-2.6159,-2.6736,-2.7612,-2.9088,-2.9235,-2.9641,-3.0538,-3.0838,-3.1222,-3.1788,-3.2265,-3.221,-3.1596,-3.1105,-3.0517,-2.9842,-2.8865,-2.7975,-2.7232,-2.686,-2.6979,-0.3777,-0.3722,-0.3789,-0.363,-0.3613,-0.3274,-0.2069,-0.1811,-0.1446,-0.0252,0.0084,0.0167,0.0168,0.0253,0.0371,0.0,0.0,0.0,-0.1652,-0.1534,-0.2093,0.0,0.0,0.0,0.0,0.0,0.0,0.0,0.0,0.0,0.0,-0.6251,-0.603,-0.601,-0.603,-0.616,-0.6357,-0.6445,-0.6322,-0.6127,-0.6594,-0.6728,-0.6619,-0.725,-0.774,0.0,0.0,0.0,-0.8665,-0.8473,-0.8392,-0.8345,-0.7851,-0.7743,-0.7628,-0.6189,-0.5641,-0.5425,-0.4348,-0.3608,-0.3178,-0.2978,-0.2472,-0.1925,-0.2041,-0.2118,-0.2469,-0.368,-0.4426,-0.4898,-0.4979,-0.5018,-0.5018,-0.5018,-0.5018,-0.4937,-0.4779,-0.5444,-0.6277,-0.7074,-0.7632,-0.851,-1.0318,-1.1162,-1.2663,-1.5842,-1.7925,-1.9966,-2.2382,-2.4112,-2.5512,-2.6552,-2.7029,-2.7843,-2.9346,-2.9925,-3.0338,-3.074,-3.0985,-3.1331,-3.1785,-3.1739,-3.1698,-3.1634,-3.0747,-2.9969,-2.9351,-2.8247,-2.7468,-2.6986,-2.6938,-2.7333,-0.3885,-0.4207,-0.4655,-0.3826,-0.3613,-0.3274,-0.2069,-0.1805,-0.1458,-0.0251,0.0027,0.0027,0.0028,0.0057,0.0059,0.0,0.0,-0.3561,0.0,0.0,0.0,0.0,0.0,0.0,0.0,0.0,0.0,0.0,0.0,0.0,0.0,-0.572,-0.5731,-0.5581,-0.5722,-0.5904,-0.6226,-0.6562,-0.6533,-0.6127,-0.6594,-0.6883,-0.7092,-0.7191,-0.7741,-0.8568,0.0,-0.8464,-0.8675,-0.8425,-0.8359,-0.8331,-0.7744,-0.7628,-0.7573,-0.5796,-0.5318,-0.5378,-0.3793,-0.3444,-0.3522,-0.2433,-0.2004,-0.1848,-0.1532,-0.1805,-0.2196,-0.2273,-0.321,-0.4343,-0.4859,-0.5018,-0.5018,-0.5018,-0.5018,-0.4979,-0.4976,-0.5879,-0.6872,-0.7354,-0.8329,-0.9412,-1.0589,-1.1491,-1.2777,-1.4847,-1.7427,-1.9862,-2.1939,-2.4481,-2.666,-2.8168,-2.919,-3.0148,-3.1134,-3.1395,-3.1621,-3.193,-3.2388,-3.2658,-3.262,-3.2135,-3.1715,-3.1358,-3.0609,-2.9845,-2.9159,-2.8882,-2.8271,-2.7332,-2.7428,-2.7785,-0.3913,-0.3946,-0.4312,-0.4384,-0.5028,-0.5457,-0.4736,-0.4779,-0.437,-0.218,-0.1858,-0.1545,-0.0226,0.0,-0.1377,-0.2596,0.0,0.0,0.0,0.0,0.0,0.0,0.0,0.0,0.0,0.0,0.0,0.0,0.0,0.0,0.0,0.0,-0.6765,-0.6579,-0.6554,-0.6522,-0.659,-0.7047,-0.7041,-0.6554,-0.7159,-0.7494,-0.766,-0.788,-0.8256,-0.8703,0.0,-0.8596,-0.8708,-0.8571,-0.8519,-0.8551,-0.8246,-0.7791,-0.7138,-0.558,-0.4919,-0.4644,-0.3791,-0.3326,-0.2938,-0.2042,-0.212,-0.247,-0.1922,-0.2275,-0.2899,-0.3171,-0.3679,-0.4146,-0.4304,-0.4582,-0.482,-0.482,-0.474,-0.4662,-0.4548,-0.5764,-0.6978,-0.7291,-0.8852,-1.0436,-1.1547,-1.2348,-1.3488,-1.5372,-1.8254,-2.0861,-2.2619,-2.5472,-2.7995,-2.9748,-2.9924,-3.0597,-3.2272,-3.2433,-3.2542,-3.2772,-3.309,-3.3244,-3.3186,-3.2488,-3.1884,-3.1416,-3.0042,-2.952,-2.9901,-2.9196,-2.8603,-2.8161,-2.8181,-2.8491,-0.3913,-0.3778,-0.4163,-0.4977,-0.5866,-0.6554,-0.6775,-0.6935,-0.6491,-0.4372,-0.4115,-0.355,-0.1175,-0.1303,0.0,-0.4435,0.0,0.0,0.0,0.0,0.0,0.0,0.0,0.0,0.0,0.0,0.0,0.0,0.0,0.0,0.0,0.0,-0.7494,-0.7374,-0.7162,-0.7063,-0.7105,-0.7558,-0.7477,-0.6895,-0.7628,-0.7986,-0.8022,-0.838,-0.8593,-0.8703,-0.8703,-0.8703,-0.8703,-0.8703,-0.8703,-0.8661,-0.8513,-0.7783,-0.6788,-0.5973,-0.5351,-0.4805,-0.4258,-0.3638,-0.294,-0.2041,-0.2237,-0.2743,-0.2196,-0.2549,-0.3212,-0.368,-0.3951,-0.4107,-0.4068,-0.4423,-0.4779,-0.4779,-0.4621,-0.4465,-0.4389,-0.5589,-0.6821,-0.7331,-0.9116,-1.1005,-1.2301,-1.3029,-1.4186,-1.6482,-1.9335,-2.1881,-2.3764,-2.666,-2.9114,-3.0639,-3.0514,-3.1127,-3.3211,-3.3306,-3.3368,-3.3666,-3.3521,-3.3294,-3.3055,-3.2544,-3.1969,-3.1344,-2.9892,-2.9673,-3.0751,-2.9547,-2.8942,-2.8886,-2.8846,-2.9061,-0.3913,-0.427,-0.5068,-0.5404,-0.4661,-0.4339,-0.6117,-0.5841,-0.5379,-0.6026,-0.6187,-0.5544,-0.338,-0.2232,-0.2036,-0.3333,0.0,0.0,0.0,0.0,0.0,0.0,0.0,0.0,0.0,0.0,0.0,0.0,0.0,0.0,0.0,0.0,0.0,-0.704,-0.6795,-0.6957,-0.7649,-0.7881,-0.763,-0.6895,-0.7628,-0.7986,-0.7986,-0.8053,-0.8299,-0.8703,-0.8703,-0.8703,-0.8703,-0.8703,-0.8703,-0.8627,-0.7863,-0.7288,-0.6942,-0.7411,-0.745,-0.7015,-0.5467,-0.4885,-0.4535,-0.2741,-0.208,-0.1925,-0.1729,-0.1962,-0.2273,-0.2117,-0.3054,-0.4226,-0.4779,-0.4937,-0.4979,-0.4979,-0.4818,-0.4776,-0.5126,-0.5598,-0.6379,-0.7782,-0.9082,-1.0502,-1.2286,-1.311,-1.4624,-1.7957,-2.0012,-2.2256,-2.5174,-2.7867,-2.9667,-3.0113,-3.1492,-3.2861,-3.4108,-3.4092,-3.4234,-3.4748,-3.375,-3.27,-3.1781,-3.2039,-3.1791,-3.0868,-3.0778,-3.0878,-3.1156,-3.0182,-2.9539,-2.9171,-2.916,-2.9281,-0.3913,-0.4445,-0.5348,-0.5286,-0.473,-0.496,-0.7818,-0.8282,-0.8148,-0.8371,-0.8513,-0.7743,-0.4869,0.0,-0.372,0.0,0.0,0.0,0.0,0.0,0.0,0.0,0.0,0.0,0.0,0.0,0.0,0.0,0.0,0.0,0.0,0.0,0.0,-0.8263,-0.7862,-0.7753,-0.7928,-0.8282,-0.8199,-0.7797,-0.8361,-0.8557,-0.8435,-0.8435,-0.8544,-0.8703,-0.8703,-0.8703,-0.8703,-0.8703,-0.8703,-0.8585,-0.7557,-0.733,-0.7522,-0.6437,-0.6321,-0.6514,-0.5389,-0.5004,-0.4771,-0.3407,-0.3175,-0.3409,-0.3059,-0.3253,-0.3641,-0.3912,-0.4345,-0.4582,-0.4304,-0.4543,-0.4818,-0.4818,-0.4659,-0.4579,-0.4854,-0.5437,-0.6338,-0.7816,-0.9849,-1.1627,-1.2614,-1.461,-1.6617,-1.8215,-2.1173,-2.3973,-2.6095,-2.8769,-3.0732,-3.1445,-3.3185,-3.4549,-3.5235,-3.5027,-3.4917,-3.5083,-3.4111,-3.3409,-3.3107,-3.2844,-3.2378,-3.1734,-3.0893,-3.0908,-3.1827,-3.0921,-3.0463,-3.0443,-3.0331,-3.0243,-0.4162,-0.4408,-0.4988,-0.5075,-0.4785,-0.537,-0.8783,-0.9411,-0.9531,-1.0379,-1.0245,-0.9139,-0.638,0.0,0.0,0.0,0.0,0.0,0.0,0.0,0.0,0.0,0.0,0.0,0.0,0.0,0.0,0.0,0.0,0.0,0.0,0.0,0.0,0.0,-0.8392,-0.8256,-0.8653,-0.8778,-0.8817,-0.8807,-0.9138,-0.9129,-0.8841,-0.8803,-0.8803,-0.8803,-0.8732,-0.8703,-0.8703,-0.8703,-0.8741,-0.8716,-0.7731,-0.7709,-0.7987,-0.6454,-0.6205,-0.6475,-0.5661,-0.5389,-0.5157,-0.3912,-0.3798,-0.4031,-0.3682,-0.3878,-0.4307,-0.4851,-0.5051,-0.4935,-0.4343,-0.4501,-0.4818,-0.4973,-0.4737,-0.4696,-0.5431,-0.5857,-0.671,-0.8818,-1.0892,-1.2567,-1.3468,-1.5766,-1.8043,-1.9771,-2.2551,-2.5383,-2.8022,-2.9969,-3.1447,-3.2369,-3.4314,-3.5628,-3.5799,-3.5597,-3.5388,-3.5136,-3.4273,-3.3654,-3.3484,-3.3009,-3.2528,-3.2056,-3.1159,-3.125,-3.2352,-3.1527,-3.1191,-3.1308,-3.1109,-3.0924,-0.468,-0.419,-0.4044,-0.4884,-0.4691,-0.5158,-0.8542,-0.8478,-0.8679,-1.2013,-1.124,-0.9496,-0.8053,-0.7383,0.0,0.0,0.0,0.0,0.0,0.0,0.0,0.0,0.0,0.0,0.0,0.0,0.0,0.0,0.0,0.0,0.0,0.0,0.0,0.0,-0.8043,-0.8297,-0.9865,-0.9375,-0.9385,-0.9901,-0.9923,-0.9626,-0.9109,-0.9025,-0.8985,-0.8971,-0.8793,-0.8703,-0.8703,-0.8708,-0.8831,-0.8966,-0.8562,-0.841,-0.8361,-0.7944,-0.768,-0.7365,-0.6511,-0.6202,-0.5928,-0.4336,-0.3638,-0.3368,-0.3171,-0.3446,-0.388,-0.4307,-0.4851,-0.5243,-0.5054,-0.5018,-0.5093,-0.5521,-0.5129,-0.524,-0.708,-0.7003,-0.7539,-1.0929,-1.2107,-1.3103,-1.4911,-1.6265,-1.8584,-2.2953,-2.4121,-2.6255,-3.1083,-3.1466,-3.1632,-3.2524,-3.4706,-3.5959,-3.5636,-3.5784,-3.5648,-3.5031,-3.4096,-3.3216,-3.2334,-3.2247,-3.1986,-3.1517,-3.1695,-3.2092,-3.2702,-3.1947,-3.1607,-3.1596,-3.1391,-3.1078,-0.3935,-0.5651,-0.7327,-0.5896,-0.7154,-0.9023,-0.9916,-0.9287,-0.9312,-1.2347,-1.2042,-1.0636,-0.8715,0.0,0.0,0.0,0.0,0.0,0.0,0.0,0.0,0.0,0.0,0.0,0.0,0.0,0.0,0.0,0.0,0.0,0.0,0.0,0.0,0.0,-0.9048,-0.9354,-0.968,-0.9849,-1.0007,-1.0171,-1.011,-0.9747,-0.9092,-0.9037,-0.8944,-0.8793,-0.8727,-0.8789,-0.894,-0.9082,-0.9176,-0.9173,-0.8611,-0.8409,-0.8278,-0.7118,-0.7019,-0.7365,-0.6511,-0.6591,-0.6938,-0.5851,-0.5345,-0.5112,-0.4921,-0.4768,-0.4735,-0.5129,-0.5285,-0.5321,-0.5404,-0.5404,-0.5443,-0.5559,-0.5482,-0.5747,-0.7195,-0.7966,-0.9024,-1.1178,-1.2944,-1.4335,-1.5085,-1.746,-2.0247,-2.3043,-2.5169,-2.7868,-3.1688,-3.1839,-3.2254,-3.4045,-3.481,-3.5353,-3.5834,-3.595,-3.5501,-3.4434,-3.3659,-3.2927,-3.2179,-3.2367,-3.235,-3.2073,-3.1893,-3.2127,-3.2781,-3.2089,-3.1933,-3.2284,-3.1864,-3.1492,-0.5447,-0.7195,-0.8697,-0.8209,-0.9587,-1.1127,-1.1219,-1.0773,-1.0889,0.0,-1.2672,-1.1555,-0.9388,0.0,0.0,0.0,0.0,0.0,0.0,0.0,0.0,0.0,0.0,0.0,0.0,0.0,0.0,0.0,0.0,0.0,0.0,0.0,0.0,0.0,-0.8933,-0.941,-0.9733,-0.99,-1.0213,-1.064,-1.0517,-1.0153,-0.957,-0.9515,-0.9335,-0.9058,-0.9058,-0.9062,-0.9112,-0.9235,-0.9333,-0.9339,-0.8649,-0.8431,-0.8386,-0.718,-0.7134,-0.7638,-0.6938,-0.7173,-0.7561,-0.6553,-0.6121,-0.5967,-0.578,-0.5625,-0.5583,-0.598,-0.6096,-0.6057,-0.6022,-0.5983,-0.6022,-0.6099,-0.598,-0.6321,-0.8071,-0.8875,-0.9893,-1.2127,-1.3878,-1.5279,-1.6225,-1.8942,-2.1818,-2.4177,-2.7188,-3.0005,-3.2336,-3.2817,-3.3348,-3.4462,-3.5317,-3.5745,-3.5503,-3.562,-3.5187,-3.3893,-3.3235,-3.2614,-3.2001,-3.2127,-3.2214,-3.2266,-3.2055,-3.2249,-3.2795,-3.242,-3.2353,-3.2589,-3.2091,-3.1694,-0.8188,-0.8842,-0.9308,-1.1263,-1.178,-1.1927,-1.2379,-1.2579,-1.2865,-1.3385,0.0,-1.2131,0.0,0.0,0.0,0.0,0.0,0.0,0.0,0.0,0.0,0.0,0.0,0.0,0.0,0.0,0.0,0.0,0.0,0.0,0.0,0.0,0.0,-0.7825,-0.809,-0.8746,-0.9765,-0.9554,-0.9949,0.0,-1.0731,-1.0528,-1.0381,-1.0247,-0.9977,-0.9576,-0.9616,-0.9512,-0.9286,-0.9365,-0.9456,-0.9545,-0.8765,-0.8519,-0.8593,-0.7809,-0.7753,-0.8063,-0.7676,-0.7791,-0.791,-0.6745,-0.6356,-0.6279,-0.6131,-0.6209,-0.6395,-0.6861,-0.7099,-0.7103,-0.6756,-0.6679,-0.6753,-0.698,-0.6703,-0.7042,-0.9399,-0.975,-1.0521,-1.3536,-1.4783,-1.5943,-1.7944,-2.0485,-2.3228,-2.6154,-2.9662,-3.2247,-3.296,-3.3974,-3.4558,-3.4336,-3.6063,-3.6626,-3.5046,-3.5151,-3.4774,-3.3547,-3.2925,-3.235,-3.1819,-3.171,-3.1839,-3.2197,-3.2231,-3.242,-3.2779,-3.2816,-3.2737,-3.2538,-3.2162,-3.1733,-0.7842,-1.1125,-1.4011,-1.2525,-1.2359,-1.2631,-1.2886,-1.2842,-1.2859,-1.3369,-1.2653,0.0,0.0,0.0,0.0,0.0,0.0,0.0,0.0,0.0,0.0,0.0,0.0,0.0,0.0,0.0,0.0,0.0,0.0,0.0,0.0,0.0,0.0,-0.7783,-0.7718,-0.8102,-0.897,-0.8894,-0.9213,0.0,-0.9525,-0.9921,-1.0898,-1.0418,-0.9893,-0.9374,-0.9682,-0.965,-0.9351,-0.9682,-0.9885,-0.9847,-0.8977,-0.8642,-0.8593,-0.7809,-0.7753,-0.8102,-0.7987,-0.8025,-0.8063,-0.7791,-0.748,-0.7288,-0.7561,-0.7446,-0.7288,-0.7553,-0.7407,-0.7219,-0.7292,-0.7442,-0.7633,-0.7978,-0.8008,-0.83,-0.9626,-1.1157,-1.2794,-1.4592,-1.5663,-1.6882,-1.874,-2.1018,-2.4037,-2.8336,-3.0631,-3.2247,-3.3339,-3.3371,-3.3978,-3.5715,-3.6053,-3.6255,-3.6553,-3.5789,-3.4972,-3.4161,-3.3169,-3.235,-3.1819,-3.202,-3.2197,-3.2283,-3.2437,-3.2555,-3.2638,-3.2505,-3.2335,-3.2127,-3.1823,-3.1359,-0.9238,-1.2099,-1.4325,-1.4446,-1.3928,-1.3341,-1.3117,-1.2905,-1.2827,-1.3237,0.0,0.0,0.0,0.0,0.0,0.0,0.0,0.0,0.0,0.0,0.0,0.0,0.0,0.0,0.0,0.0,0.0,0.0,0.0,0.0,0.0,-0.7165,-0.7176,-0.7099,-0.6988,-0.733,-0.8131,-0.825,-0.8794,-0.9684,-0.9382,-0.9884,-1.1077,-1.0558,-1.0209,-1.0033,-1.024,-1.0105,-0.9737,-1.0007,-0.9933,-0.9605,-0.8962,-0.8706,-0.8622,-0.8013,-0.8178,-0.8637,-0.8441,-0.8518,-0.8637,-0.8441,-0.825,-0.8131,-0.8322,-0.8322,-0.8241,-0.8475,-0.8289,-0.814,-0.8441,-0.8284,-0.828,-0.9074,-0.9107,-0.9253,-1.0271,-1.1565,-1.3033,-1.4625,-1.6028,-1.7504,-1.9329,-2.273,-2.6349,-2.9772,-3.1389,-3.273,-3.4153,-3.4242,-3.4757,-3.6194,-3.6307,-3.6257,-3.6203,-3.5278,-3.4412,-3.3686,-3.2738,-3.2021,-3.1579,-3.2126,-3.2437,-3.2437,-3.2387,-3.2489,-3.2737,-3.2538,-3.2283,-3.1986,-3.175,-3.1319,-1.036,-1.2095,-1.32,-1.6079,-1.5384,-1.3819,-1.317,-1.2853,-1.2759,0.0,0.0,0.0,0.0,0.0,0.0,0.0,0.0,0.0,0.0,0.0,0.0,0.0,0.0,0.0,0.0,0.0,0.0,0.0,0.0,0.0,-0.7026,-0.7399,-0.7249,-0.6377,-0.6338,-0.6606,-0.7292,-0.7531,-0.8178,-0.9273,-0.9415,-0.9943,-1.0732,-1.0625,-1.0671,-1.0761,-1.0767,-1.0578,-1.0238,-1.0278,-1.0006,-0.9447,-0.9073,-0.885,-0.8746,-0.836,-0.8675,-0.9246,-0.8932,-0.9013,-0.9246,-0.8894,-0.8742,-0.8703,-0.878,-0.8889,-0.9041,-0.9246,-0.9213,-0.9175,-0.9473,-0.9127,-0.9003,-1.0083,-1.0196,-1.0233,-1.1105,-1.1798,-1.2835,-1.4737,-1.683,-1.8796,-2.0486,-2.4774,-2.8616,-3.0544,-3.1946,-3.3328,-3.4851,-3.5324,-3.5735,-3.6241,-3.6533,-3.6394,-3.561,-3.4656,-3.3861,-3.3321,-3.2321,-3.1671,-3.1487,-3.2109,-3.2506,-3.2556,-3.237,-3.2455,-3.2852,-3.2655,-3.2335,-3.195,-3.1695,-3.1261,-0.8154,-1.0772,-1.3913,-1.6208,-1.5388,-1.3788,0.0,0.0,-1.2693,0.0,0.0,0.0,0.0,0.0,0.0,0.0,0.0,0.0,0.0,0.0,0.0,0.0,0.0,0.0,0.0,0.0,0.0,0.0,0.0,0.0,-0.7188,-0.7057,-0.6865,-0.6563,-0.6374,-0.6338,-0.6451,-0.6493,-0.6606,-0.6799,-0.8613,-0.9408,-0.9301,-1.047,-1.083,-1.0544,-1.0727,-1.0662,-1.0487,-1.0665,-1.0548,-1.0289,-0.9891,-0.9513,-0.9188,-0.8779,-0.8899,-0.9284,-0.9246,-0.9246,-0.9284,-0.9246,-0.8975,-0.878,-0.9127,-0.9122,-0.9041,-0.9246,-0.9397,-0.9511,-0.9359,-0.9657,-1.0137,-1.0807,-1.1329,-1.1774,-1.2057,-1.2732,-1.4082,-1.6679,-1.989,-2.2501,-2.3708,-2.6339,-2.8764,-3.0308,-3.2032,-3.3556,-3.4695,-3.5015,-3.5464,-3.622,-3.6343,-3.6507,-3.6886,-3.5196,-3.434,-3.4866,-3.2786,-3.1727,-3.2162,-3.2002,-3.2037,-3.2335,-3.2752,-3.2866,-3.2639,-3.2437,-3.2127,-3.1732,-3.1298,-3.0861,-0.9295,-1.2415,-1.5308,-1.7425,-1.6557,-1.4881,-1.4063,0.0,0.0,0.0,0.0,0.0,0.0,0.0,0.0,0.0,0.0,0.0,0.0,0.0,0.0,0.0,0.0,0.0,0.0,0.0,0.0,0.0,0.0,-0.799,-0.7231,-0.6911,-0.6641,-0.6451,-0.6335,-0.6412,-0.6641,-0.6718,-0.7069,-0.7646,-0.9289,-0.9852,-0.9539,-1.0625,-1.0999,-1.0856,-1.0936,-1.1224,-1.1642,-1.1151,-1.0982,-1.0946,-1.02,-0.9647,-0.926,-0.9085,-0.9279,-0.962,-0.962,-0.962,-0.962,-0.962,-0.9506,-0.9387,-0.9582,-0.9728,-0.9873,-0.9954,-1.003,-1.0143,-1.0255,-1.0507,-1.095,-1.1892,-1.2402,-1.2799,-1.3237,-1.3404,-1.4387,-1.74,-2.0243,-2.2548,-2.3826,-2.6198,-2.8474,-3.0134,-3.2315,-3.4235,-3.5493,-3.5715,-3.5907,-3.6259,-3.6301,-3.6392,-3.6669,-3.5269,-3.4395,-3.4414,-3.2796,-3.181,-3.173,-3.1858,-3.2003,-3.2179,-3.2603,-3.2638,-3.2266,-3.2301,-3.1985,-3.1357,-3.1162,-3.0841,-0.9569,-1.2223,-1.416,-1.7081,-1.6304,-1.4835,0.0,0.0,0.0,0.0,0.0,0.0,0.0,0.0,0.0,0.0,0.0,0.0,0.0,0.0,0.0,0.0,0.0,0.0,0.0,0.0,0.0,0.0,0.0,-0.8268,-0.7141,-0.6819,-0.6528,-0.63,-0.6412,-0.6602,-0.6903,-0.7099,-0.7757,-0.8918,-0.9765,-1.0137,-1.0062,-1.0775,-1.1111,-1.1111,-1.1111,-1.1563,-1.2311,-1.1498,-1.1289,-1.1425,-1.07,-1.022,-0.9884,-0.9809,-0.9954,-1.018,-0.996,-0.9884,-0.9884,-0.9884,-0.9884,-0.9916,-1.003,-1.0255,-1.0513,-1.0513,-1.07,-1.0999,-1.1186,-1.1465,-1.1977,-1.2959,-1.3244,-1.3419,-1.3912,-1.4428,-1.5488,-1.7858,-2.0343,-2.2396,-2.3398,-2.5948,-2.8268,-2.9653,-3.2473,-3.4807,-3.5881,-3.6178,-3.6301,-3.6301,-3.6301,-3.628,-3.6237,-3.5091,-3.4235,-3.3806,-3.2608,-3.1811,-3.156,-3.1787,-3.1968,-3.2074,-3.2266,-3.2266,-3.2074,-3.2127,-3.1804,-3.1103,-3.1004,-3.0781,-0.7052,-0.7551,-0.84,-1.347,-1.3102,-1.2214,0.0,0.0,0.0,0.0,0.0,0.0,0.0,0.0,0.0,0.0,0.0,0.0,0.0,0.0,0.0,0.0,0.0,0.0,0.0,0.0,0.0,0.0,0.0,-0.8105,-0.6885,-0.6791,-0.6641,-0.6303,-0.6676,-0.6865,-0.6903,-0.7288,-0.8136,-0.9451,-0.9387,-0.9744,-1.049,-1.0919,-1.1111,-1.1111,-1.1111,-1.1347,-1.1714,-1.1471,-1.1509,-1.1707,-1.1843,-1.1756,-1.1521,-1.1149,-1.1037,-1.0925,-1.0143,-0.9884,-0.9884,-0.9884,-0.9884,-0.996,-1.0368,-1.0481,-1.0513,-1.0513,-1.1335,-1.2114,-1.1744,-1.2512,-1.3499,-1.3949,-1.376,-1.3542,-1.379,-1.6209,-1.8333,-1.8292,-2.1056,-2.3358,-2.3238,-2.6096,-2.843,-2.8666,-3.2274,-3.5021,-3.5247,-3.5876,-3.6301,-3.6301,-3.6301,-3.6216,-3.6041,-3.4681,-3.3806,-3.3721,-3.2283,-3.1674,-3.2231,-3.1913,-3.1805,-3.1986,-3.1841,-3.1931,-3.2283,-3.1913,-3.1509,-3.1083,-3.0699,-3.051,-0.6681,-0.742,0.0,-1.2025,-1.3155,-1.3422,0.0,0.0,0.0,0.0,0.0,0.0,0.0,0.0,0.0,0.0,0.0,0.0,0.0,0.0,0.0,0.0,0.0,0.0,0.0,0.0,0.0,0.0,0.0,0.0,-0.6839,-0.665,-0.6574,-0.6562,-0.6765,-0.7134,-0.7676,-0.8055,-0.8627,-0.9387,-0.9836,-1.0239,-1.0522,-1.1174,-1.1335,-1.108,-1.1153,-1.2005,-1.3327,-1.2789,-1.2782,-1.3185,-1.3393,-1.2817,-1.1946,-1.2412,-1.2588,-1.2441,-1.1422,-1.1056,-1.1019,-1.0732,-1.0844,-1.1168,-1.1835,-1.2382,-1.2705,-1.2418,-1.2872,-1.3317,-1.2952,-1.3426,-1.4086,-1.4346,-1.4617,-1.4851,-1.5111,-1.6698,-1.8363,-1.9214,-2.1156,-2.2795,-2.3151,-2.5849,-2.8253,-2.9187,-3.2296,-3.4706,-3.5155,-3.5655,-3.5876,-3.5616,-3.598,-3.6062,-3.565,-3.4665,-3.3845,-3.3339,-3.235,-3.1813,-3.1912,-3.1786,-3.1859,-3.2179,-3.1877,-3.1601,-3.1391,-3.1336,-3.1103,-3.0699,-3.0572,-3.0506,-0.5374,-0.6019,0.0,0.0,0.0,-1.1456,0.0,0.0,0.0,0.0,0.0,0.0,0.0,0.0,0.0,0.0,0.0,0.0,0.0,0.0,0.0,0.0,0.0,0.0,0.0,0.0,0.0,0.0,0.0,0.0,-0.7241,-0.6795,-0.6706,-0.6957,-0.7041,-0.748,-0.8289,-0.8551,-0.9117,-0.99,-1.0099,-1.0507,-1.1093,-1.1315,-1.1476,-1.1564,-1.1624,-1.2484,-1.3747,-1.3212,-1.3567,-1.4399,-1.4509,-1.4082,-1.3429,-1.3754,-1.3884,-1.3719,-1.2519,-1.2191,-1.2184,-1.1761,-1.1903,-1.2368,-1.3004,-1.3549,-1.3939,-1.3665,-1.3926,-1.4222,-1.3861,-1.4122,-1.4533,-1.4569,-1.5046,-1.5666,-1.6175,-1.7445,-1.8767,-1.9922,-2.1373,-2.2702,-2.3822,-2.6115,-2.8339,-2.9876,-3.2582,-3.4554,-3.492,-3.5362,-3.5543,-3.5293,-3.5711,-3.5822,-3.5424,-3.4701,-3.3896,-3.3093,-3.2475,-3.1944,-3.1524,-3.149,-3.1621,-3.1895,-3.149,-3.114,-3.0831,-3.1001,-3.0922,-3.0568,-3.0526,-3.0506,0.0,0.0,0.0,0.0,0.0,0.0,0.0,0.0,0.0,0.0,0.0,0.0,0.0,0.0,0.0,0.0,0.0,0.0,0.0,0.0,0.0,0.0,0.0,0.0,0.0,0.0,0.0,0.0,0.0,-0.9363,-0.8083,-0.7199,-0.6968,-0.7462,-0.7522,-0.7902,-0.8699,-0.8703,-0.9533,-1.1086,-1.0116,-1.0605,-1.2264,-1.1342,-1.1495,-1.2517,-1.259,-1.2721,-1.2869,-1.2765,-1.3699,-1.5227,-1.5188,-1.5552,-1.6027,-1.5255,-1.4961,-1.4774,-1.3448,-1.3179,-1.3375,-1.2814,-1.3026,-1.3491,-1.3702,-1.3911,-1.4083,-1.407,-1.451,-1.4832,-1.4446,-1.4641,-1.4864,-1.4677,-1.5125,-1.5877,-1.6929,-1.8509,-1.99,-2.0435,-2.1725,-2.3324,-2.5258,-2.6989,-2.8715,-3.0551,-3.3013,-3.4626,-3.4464,-3.4991,-3.5379,-3.5379,-3.5492,-3.5554,-3.5424,-3.4785,-3.3979,-3.3022,-3.2634,-3.2038,-3.1154,-3.1137,-3.112,-3.1103,-3.0699,-3.0589,-3.0712,-3.0962,-3.0962,-3.0692,-3.0568,-3.0506,-0.2931,0.0,0.0,0.0,0.0,0.0,0.0,0.0,0.0,0.0,0.0,0.0,0.0,0.0,0.0,0.0,0.0,0.0,0.0,0.0,0.0,0.0,0.0,0.0,0.0,0.0,0.0,0.0,-1.0972,-0.986,-0.7945,-0.7383,-0.7141,-0.713,-0.7669,-0.8097,-0.8475,-0.9074,-0.9948,-1.1165,-1.1204,-1.1613,-1.2408,-1.1815,-1.1918,-1.2602,-1.2943,-1.385,-1.5129,-1.5292,-1.5534,-1.5866,-1.6867,-1.6791,-1.6144,-1.646,-1.6456,-1.6183,-1.4991,-1.4621,-1.4621,-1.4199,-1.4335,-1.4799,-1.5401,-1.5833,-1.6035,-1.5762,-1.5762,-1.5762,-1.5125,-1.5303,-1.563,-1.533,-1.6298,-1.7531,-1.8325,-1.9444,-2.0642,-2.1615,-2.2524,-2.356,-2.4859,-2.6814,-2.8426,-2.9191,-3.1725,-3.3543,-3.3494,-3.4402,-3.493,-3.4626,-3.5108,-3.543,-3.5391,-3.4616,-3.4153,-3.4197,-3.3579,-3.2856,-3.2072,-3.2131,-3.1876,-3.1274,-3.0938,-3.0892,-3.1072,-3.0878,-3.0757,-3.0692,-3.0568,-3.0568,-0.289,-0.2919,0.0,0.0,0.0,0.0,0.0,0.0,0.0,0.0,0.0,0.0,0.0,0.0,0.0,0.0,0.0,0.0,0.0,0.0,0.0,0.0,0.0,0.0,0.0,0.0,0.0,0.0,-1.1619,-1.058,-0.8685,-0.8316,-0.8045,-0.7867,-0.8308,-0.8638,-0.8942,-0.9394,-1.0241,-1.151,-1.1667,-1.1915,-1.22,-1.2265,-1.2705,-1.3473,-1.413,-1.5323,-1.6862,-1.7195,-1.7275,-1.7196,-1.783,-1.7711,-1.7214,-1.7347,-1.7316,-1.7027,-1.6081,-1.5767,-1.571,-1.5259,-1.5365,-1.5754,-1.6167,-1.6517,-1.6691,-1.6307,-1.5956,-1.5674,-1.5488,-1.5692,-1.5939,-1.6062,-1.706,-1.8104,-1.8512,-1.977,-2.1184,-2.2542,-2.308,-2.3927,-2.5828,-2.7126,-2.8431,-2.9961,-3.1681,-3.2893,-3.3202,-3.3897,-3.4155,-3.3676,-3.4064,-3.4382,-3.4432,-3.393,-3.3627,-3.3613,-3.3148,-3.2536,-3.1796,-3.1796,-3.1593,-3.1154,-3.0975,-3.0972,-3.1112,-3.0892,-3.0753,-3.0692,-3.063,-3.063,-0.2979,-0.289,-0.2917,0.0,0.0,0.0,-0.8184,-0.8519,0.0,0.0,0.0,0.0,0.0,0.0,0.0,0.0,0.0,0.0,0.0,0.0,0.0,0.0,0.0,0.0,0.0,0.0,-1.4459,-1.2706,-1.2184,-1.1294,-0.9799,-0.9503,-0.9271,-0.8974,-0.9197,-0.9419,-0.9664,-0.9846,-1.0604,-1.1904,-1.1824,-1.1808,-1.1964,-1.2685,-1.3641,-1.4779,-1.5692,-1.687,-1.8121,-1.8571,-1.8732,-1.8656,-1.8191,-1.8236,-1.8509,-1.7859,-1.7518,-1.7344,-1.6807,-1.6626,-1.6533,-1.614,-1.6211,-1.6447,-1.6508,-1.6647,-1.6638,-1.6307,-1.5709,-1.5284,-1.5798,-1.6,-1.621,-1.6862,-1.7619,-1.824,-1.8263,-1.9748,-2.1553,-2.317,-2.345,-2.4313,-2.7212,-2.7669,-2.8631,-3.1548,-3.2146,-3.2535,-3.3199,-3.3404,-3.3297,-3.2751,-3.2818,-3.2967,-3.3141,-3.312,-3.2861,-3.2323,-3.2198,-3.18,-3.1063,-3.0931,-3.0877,-3.0912,-3.0915,-3.0955,-3.1015,-3.0952,-3.0851,-3.0733,-3.0733,-3.0733,0.0,0.0,0.0,0.0,0.0,0.0,0.0,-0.4228,0.0,0.0,0.0,0.0,0.0,0.0,0.0,0.0,0.0,0.0,0.0,0.0,0.0,0.0,0.0,0.0,0.0,0.0,-1.4986,-1.4409,-1.2696,-1.1155,-0.9928,-0.9842,-0.934,-0.8249,-0.9691,-1.0126,-0.9473,-1.0796,-1.1675,-1.2075,-1.2111,-1.2343,-1.2758,-1.2921,-1.3893,-1.5517,-1.6406,-1.7472,-1.8612,-1.8993,-1.9002,-1.8656,-1.8248,-1.8024,-1.7907,-1.7276,-1.6938,-1.6793,-1.6836,-1.6754,-1.6673,-1.7157,-1.727,-1.7304,-1.7901,-1.7799,-1.7432,-1.7097,-1.6855,-1.6786,-1.6837,-1.7217,-1.7619,-1.7765,-1.8677,-1.9594,-1.9868,-2.0463,-2.1439,-2.317,-2.3816,-2.4593,-2.6184,-2.7577,-2.8802,-2.9809,-3.1302,-3.2353,-3.2508,-3.2724,-3.2827,-3.2724,-3.2818,-3.306,-3.3469,-3.3198,-3.3174,-3.3522,-3.3173,-3.2639,-3.1903,-3.1931,-3.1662,-3.0992,-3.1137,-3.1196,-3.1151,-3.1052,-3.0955,-3.0935,-3.0892,-3.0892,0.0,0.0,0.0,-0.289,0.0,0.0,0.0,0.0,0.0,0.0,0.0,0.0,0.0,0.0,0.0,0.0,0.0,0.0,0.0,0.0,0.0,0.0,0.0,0.0,0.0,0.0,-1.5262,-1.5177,-1.3691,-1.2462,-1.1697,-1.1666,-1.1146,-0.9883,-1.0778,-1.1131,-1.0888,-1.174,-1.2234,-1.2433,-1.2889,-1.3084,-1.3027,-1.3909,-1.5039,-1.6239,-1.7269,-1.8135,-1.8882,-1.9192,-1.9192,-1.8984,-1.8549,-1.8353,-1.8187,-1.7637,-1.736,-1.7221,-1.7496,-1.7393,-1.7226,-1.7773,-1.7842,-1.7774,-1.8206,-1.8046,-1.7672,-1.7501,-1.726,-1.7113,-1.7457,-1.7765,-1.8172,-1.8821,-1.9429,-2.0031,-2.0539,-2.104,-2.1721,-2.2743,-2.3682,-2.4694,-2.5893,-2.6782,-2.7694,-2.8829,-2.9931,-3.0855,-3.1456,-3.1749,-3.188,-3.1862,-3.1871,-3.2169,-3.2797,-3.2669,-3.2879,-3.3605,-3.3034,-3.2517,-3.2212,-3.1837,-3.1483,-3.1112,-3.1193,-3.1232,-3.119,-3.0955,-3.0895,-3.0995,-3.0972,-3.0838,0.0,0.0,0.0,0.0,0.0,-0.3566,0.0,0.0,0.0,0.0,0.0,0.0,0.0,0.0,0.0,0.0,0.0,0.0,0.0,0.0,0.0,0.0,0.0,0.0,0.0,0.0,-1.4912,-1.5379,-1.4227,-1.3487,-1.3516,-1.3451,-1.2897,-1.1798,-1.1838,-1.1969,-1.2218,-1.2349,-1.2439,-1.2577,-1.3519,-1.3682,-1.3269,-1.5047,-1.6255,-1.6992,-1.8023,-1.8683,-1.9073,-1.9222,-1.9301,-1.9253,-1.8762,-1.8585,-1.8528,-1.8051,-1.7787,-1.7707,-1.797,-1.7797,-1.7574,-1.7978,-1.807,-1.8094,-1.8365,-1.8138,-1.7808,-1.7842,-1.7594,-1.7448,-1.807,-1.8172,-1.8442,-1.9528,-1.9922,-2.0237,-2.086,-2.1577,-2.223,-2.2567,-2.3429,-2.4563,-2.5869,-2.6325,-2.7032,-2.8719,-2.9214,-2.9763,-3.0747,-3.1027,-3.1128,-3.1082,-3.1247,-3.1623,-3.2277,-3.2332,-3.2643,-3.3351,-3.2748,-3.2343,-3.231,-3.1503,-3.1114,-3.123,-3.1154,-3.1154,-3.123,-3.0794,-3.0675,-3.0898,-3.072,-3.0418,0.0,0.0,0.0,0.0,-0.2992,0.0,0.0,0.0,0.0,0.0,0.0,0.0,0.0,0.0,0.0,0.0,0.0,0.0,0.0,0.0,0.0,0.0,0.0,0.0,0.0,0.0,0.0,-1.5223,-1.306,-1.2278,-1.3842,-1.3578,-1.2987,-1.2094,-1.2403,-1.2253,-1.153,-1.212,-1.2285,-1.21,-1.3033,-1.362,-1.3957,-1.5572,-1.6862,-1.787,-1.8451,-1.8882,-1.9262,-1.9301,-1.9301,-1.9225,-1.8449,-1.816,-1.8115,-1.7494,-1.727,-1.7249,-1.7122,-1.6917,-1.682,-1.754,-1.7959,-1.8345,-1.9189,-1.8834,-1.8182,-1.8371,-1.8607,-1.8865,-1.8965,-1.8831,-1.8808,-1.9241,-2.0053,-2.0803,-2.1262,-2.2199,-2.3065,-2.3407,-2.348,-2.4066,-2.5801,-2.747,-2.8956,-3.0105,-3.0608,-3.091,-3.1058,-3.1235,-3.1364,-3.1363,-3.2364,-3.3068,-3.3152,-3.322,-3.3284,-3.3406,-3.3301,-3.2963,-3.2327,-3.1625,-3.1257,-3.1276,-3.1001,-3.0985,-3.1293,-3.0477,-3.0246,-3.0539,-2.9696,-2.9227,0.0,0.0,0.0,0.0,0.0,0.0,-0.3833,0.0,-0.3681,0.0,0.0,0.0,0.0,0.0,0.0,0.0,0.0,0.0,0.0,0.0,0.0,0.0,0.0,0.0,0.0,0.0,0.0,0.0,0.0,-1.2854,-1.4552,-1.4789,-1.4316,-1.3088,-1.3562,-1.3568,-1.2974,-1.3623,-1.3766,-1.3415,-1.4461,-1.5123,-1.5406,-1.6322,-1.7204,-1.804,-1.8362,-1.8683,-1.8962,-1.9073,-1.9183,-1.9244,-1.8813,-1.8553,-1.8386,-1.7856,-1.7678,-1.767,-1.758,-1.7476,-1.7487,-1.7849,-1.824,-1.861,-1.8867,-1.8476,-1.7978,-1.8303,-1.8563,-1.8821,-1.9031,-1.9274,-1.9572,-2.0096,-2.0399,-2.0816,-2.1776,-2.2261,-2.272,-2.336,-2.3704,-2.4315,-2.5531,-2.6603,-2.7556,-2.8391,-2.9732,-3.0723,-3.1007,-3.1663,-3.2232,-3.2536,-3.3004,-3.3498,-3.3968,-3.4027,-3.4218,-3.4636,-3.4269,-3.3199,-3.132,-3.1729,-3.167,-3.0975,-3.0845,-3.0608,-3.0201,-2.953,-2.9064,-2.8832,-2.8932,-2.8708,-0.4423,0.0,0.0,0.0,0.0,0.0,0.0,0.0,0.0,0.0,0.0,0.0,0.0,0.0,0.0,0.0,0.0,0.0,0.0,0.0,0.0,0.0,0.0,0.0,0.0,0.0,0.0,0.0,0.0,0.0,-1.5318,-1.5594,-1.5179,-1.4117,-1.4258,-1.4307,-1.4159,-1.458,-1.4692,-1.451,-1.5636,-1.6247,-1.6437,-1.6992,-1.7578,-1.8121,-1.8322,-1.8523,-1.87,-1.8851,-1.9042,-1.9192,-1.9002,-1.8812,-1.8652,-1.8129,-1.7966,-1.7894,-1.7619,-1.7568,-1.7669,-1.8061,-1.8216,-1.8283,-1.871,-1.8341,-1.7901,-1.8586,-1.8844,-1.9011,-1.9297,-1.9627,-2.0031,-2.0571,-2.0732,-2.1083,-2.2087,-2.2445,-2.2781,-2.339,-2.3852,-2.4291,-2.4873,-2.5605,-2.6336,-2.7046,-2.8618,-2.9833,-3.0109,-3.1286,-3.2181,-3.2508,-3.2779,-3.3195,-3.3768,-3.3801,-3.4136,-3.4895,-3.4466,-3.3333,-3.1389,-3.1872,-3.1692,-3.0606,-3.0396,-2.9908,-2.9085,-2.8489,-2.7911,-2.7385,-2.7884,-2.7826,0.0,0.0,0.0,-0.3686,0.0,0.0,0.0,0.0,-0.3965,0.0,0.0,0.0,0.0,0.0,0.0,0.0,0.0,0.0,0.0,0.0,0.0,0.0,0.0,0.0,0.0,0.0,0.0,0.0,0.0,0.0,-1.6077,-1.5318,-1.4824,-1.5048,-1.4026,-1.3773,-1.4398,-1.4132,-1.4252,-1.4699,-1.5861,-1.6396,-1.6445,-1.7489,-1.8121,-1.8402,-1.8402,-1.8523,-1.87,-1.87,-1.8812,-1.9002,-1.8772,-1.87,-1.8616,-1.804,-1.7822,-1.767,-1.6693,-1.6464,-1.6804,-1.7847,-1.7507,-1.7044,-1.9133,-1.8934,-1.8273,-1.9671,-2.0042,-2.0063,-2.0063,-1.9987,-1.9933,-2.0074,-2.0942,-2.1811,-2.207,-2.3035,-2.3861,-2.3891,-2.376,-2.3628,-2.3654,-2.5015,-2.6387,-2.7171,-2.7838,-2.8194,-2.8025,-2.9632,-3.0647,-3.0347,-3.1347,-3.2032,-3.2087,-3.2087,-3.242,-3.3232,-3.3376,-3.339,-3.3301,-3.2103,-3.1077,-3.0341,-2.9489,-2.8825,-2.8341,-2.754,-2.7052,-2.6824,-2.633,-2.6106,0.0,0.0,-0.8026,-0.5504,0.0,0.0,0.0,0.0,0.0,0.0,0.0,0.0,0.0,0.0,0.0,0.0,0.0,0.0,0.0,0.0,0.0,0.0,0.0,0.0,0.0,0.0,0.0,0.0,0.0,0.0,0.0,-1.627,-1.6188,-1.5533,-1.5842,-1.5876,-1.5519,-1.5835,-1.6083,-1.6247,-1.7074,-1.7448,-1.7448,-1.7829,-1.804,-1.8161,-1.8161,-1.8282,-1.8482,-1.8482,-1.8612,-1.8772,-1.874,-1.87,-1.8643,-1.8302,-1.8091,-1.7859,-1.729,-1.706,-1.7106,-1.7842,-1.7891,-1.7867,-1.8944,-1.8824,-1.8479,-1.9166,-1.9529,-1.9748,-2.0031,-2.0248,-2.0561,-2.104,-2.1198,-2.1502,-2.2537,-2.2902,-2.3215,-2.3802,-2.373,-2.3599,-2.3599,-2.4662,-2.5873,-2.699,-2.844,-2.9672,-3.04,-3.1363,-3.1922,-3.1797,-3.1926,-3.2008,-3.2008,-3.2008,-3.1965,-3.1886,-3.2676,-3.2797,-3.2039,-3.1934,-3.1253,-2.9927,-2.914,-2.8148,-2.6983,-2.657,-2.616,-2.5741,-2.5467,-2.5508,-0.7865,-0.8815,0.0,-0.6776,-0.7335,0.0,-0.5166,0.0,0.0,0.0,0.0,0.0,0.0,0.0,0.0,0.0,0.0,0.0,0.0,0.0,0.0,0.0,0.0,0.0,0.0,0.0,0.0,0.0,0.0,0.0,0.0,0.0,-1.6615,-1.5865,-1.6673,-1.696,-1.6558,-1.6968,-1.7212,-1.7375,-1.7789,-1.8,-1.8,-1.8,-1.8,-1.8,-1.8,-1.8121,-1.8282,-1.8282,-1.8402,-1.8571,-1.8571,-1.8571,-1.8554,-1.8294,-1.8026,-1.7826,-1.7907,-1.7898,-1.7995,-1.8586,-1.8734,-1.8785,-1.9383,-1.9325,-1.9179,-1.9661,-1.9922,-2.0171,-2.042,-2.0796,-2.1221,-2.1526,-2.1683,-2.1994,-2.275,-2.2932,-2.3223,-2.4183,-2.3846,-2.356,-2.4021,-2.4674,-2.5462,-2.6402,-2.825,-2.9737,-3.033,-3.1059,-3.1401,-3.1137,-3.0863,-3.0727,-3.0727,-3.0975,-3.1014,-3.0665,-3.1577,-3.1953,-3.1514,-3.1302,-3.0789,-2.9853,-2.8679,-2.7458,-2.6258,-2.5895,-2.5522,-2.5118,-2.509,-2.5258]}]]